<?xml version="1.0" encoding="UTF-8" standalone="no" ?><gpx xmlns="http://www.topografix.com/GPX/1/1" xmlns:gpxx="http://www.garmin.com/xmlschemas/GpxExtensions/v3" xmlns:wptx1="http://www.garmin.com/xmlschemas/WaypointExtension/v1" xmlns:gpxtpx="http://www.garmin.com/xmlschemas/TrackPointExtension/v1" creator="Astro 320" version="1.1" xmlns:xsi="http://www.w3.org/2001/XMLSchema-instance" xsi:schemaLocation="http://www.topografix.com/GPX/1/1 http://www.topografix.com/GPX/1/1/gpx.xsd http://www.garmin.com/xmlschemas/GpxExtensions/v3 http://www8.garmin.com/xmlschemas/GpxExtensionsv3.xsd http://www.garmin.com/xmlschemas/WaypointExtension/v1 http://www8.garmin.com/xmlschemas/WaypointExtensionv1.xsd http://www.garmin.com/xmlschemas/TrackPointExtension/v1 http://www.garmin.com/xmlschemas/TrackPointExtensionv1.xsd"><metadata><link href="http://www.garmin.com"><text>Garmin International</text></link><time>2026-08-20T22:52:02Z</time></metadata><trk><name>2026-08-21 01:51:59</name><extensions><gpxx:TrackExtension><gpxx:DisplayColor>Blue</gpxx:DisplayColor></gpxx:TrackExtension></extensions><trkseg><trkpt lat="59.0994762629" lon="30.4591890424"><ele>104.44</ele><time>2026-08-20T18:00:50Z</time></trkpt><trkpt lat="59.0994722396" lon="30.4591926467"><ele>103.96</ele><time>2026-08-20T18:01:09Z</time></trkpt><trkpt lat="59.0994746704" lon="30.4591871984"><ele>103.48</ele><time>2026-08-20T18:01:25Z</time></trkpt><trkpt lat="59.0994770173" lon="30.4591938201"><ele>103.48</ele><time>2026-08-20T18:01:31Z</time></trkpt><trkpt lat="59.0994770173" lon="30.4592020344"><ele>103.00</ele><time>2026-08-20T18:01:44Z</time></trkpt><trkpt lat="59.0994770173" lon="30.4592074826"><ele>102.52</ele><time>2026-08-20T18:01:56Z</time></trkpt><trkpt lat="59.0994771011" lon="30.4592006095"><ele>102.52</ele><time>2026-08-20T18:02:07Z</time></trkpt><trkpt lat="59.0994774364" lon="30.4591956642"><ele>102.04</ele><time>2026-08-20T18:02:17Z</time></trkpt><trkpt lat="59.0994822141" lon="30.4592022859"><ele>101.56</ele><time>2026-08-20T18:02:28Z</time></trkpt><trkpt lat="59.0994910989" lon="30.4592098296"><ele>101.56</ele><time>2026-08-20T18:02:34Z</time></trkpt><trkpt lat="59.0994927753" lon="30.4591994360"><ele>101.56</ele><time>2026-08-20T18:02:45Z</time></trkpt><trkpt lat="59.0994909313" lon="30.4591934010"><ele>101.08</ele><time>2026-08-20T18:02:58Z</time></trkpt><trkpt lat="59.0994880814" lon="30.4591919761"><ele>100.60</ele><time>2026-08-20T18:03:09Z</time></trkpt><trkpt lat="59.0994859021" lon="30.4591878690"><ele>100.60</ele><time>2026-08-20T18:03:22Z</time></trkpt><trkpt lat="59.0994861536" lon="30.4591912217"><ele>100.11</ele><time>2026-08-20T18:03:35Z</time></trkpt><trkpt lat="59.0994931944" lon="30.4592075665"><ele>99.63</ele><time>2026-08-20T18:03:51Z</time></trkpt><trkpt lat="59.0995014086" lon="30.4592049681"><ele>99.15</ele><time>2026-08-20T18:04:03Z</time></trkpt><trkpt lat="59.0995007381" lon="30.4592086561"><ele>99.15</ele><time>2026-08-20T18:04:16Z</time></trkpt><trkpt lat="59.0995065216" lon="30.4591877852"><ele>98.19</ele><time>2026-08-20T18:04:40Z</time></trkpt><trkpt lat="59.0995061025" lon="30.4591680877"><ele>98.19</ele><time>2026-08-20T18:04:58Z</time></trkpt><trkpt lat="59.0994972177" lon="30.4591674171"><ele>97.71</ele><time>2026-08-20T18:05:11Z</time></trkpt><trkpt lat="59.0994958766" lon="30.4591870308"><ele>97.23</ele><time>2026-08-20T18:05:20Z</time></trkpt><trkpt lat="59.0994967986" lon="30.4591916408"><ele>97.23</ele><time>2026-08-20T18:05:30Z</time></trkpt><trkpt lat="59.0995081142" lon="30.4592086561"><ele>97.23</ele><time>2026-08-20T18:05:37Z</time></trkpt><trkpt lat="59.0995135624" lon="30.4592290241"><ele>96.75</ele><time>2026-08-20T18:05:44Z</time></trkpt><trkpt lat="59.0995113831" lon="30.4592372384"><ele>96.75</ele><time>2026-08-20T18:05:54Z</time></trkpt><trkpt lat="59.0995091200" lon="30.4592420999"><ele>96.27</ele><time>2026-08-20T18:06:05Z</time></trkpt><trkpt lat="59.0995109640" lon="30.4592450336"><ele>95.79</ele><time>2026-08-20T18:06:19Z</time></trkpt><trkpt lat="59.0995144844" lon="30.4592454527"><ele>95.79</ele><time>2026-08-20T18:06:27Z</time></trkpt><trkpt lat="59.0995136462" lon="30.4592759628"><ele>95.79</ele><time>2026-08-20T18:06:35Z</time></trkpt><trkpt lat="59.0995241236" lon="30.4593043774"><ele>95.79</ele><time>2026-08-20T18:06:37Z</time></trkpt><trkpt lat="59.0995626803" lon="30.4594094027"><ele>95.31</ele><time>2026-08-20T18:06:45Z</time></trkpt><trkpt lat="59.0995660331" lon="30.4594070558"><ele>95.31</ele><time>2026-08-20T18:06:52Z</time></trkpt><trkpt lat="59.0995647758" lon="30.4594151862"><ele>94.83</ele><time>2026-08-20T18:07:02Z</time></trkpt><trkpt lat="59.0995604172" lon="30.4594129231"><ele>94.83</ele><time>2026-08-20T18:07:10Z</time></trkpt><trkpt lat="59.0995642729" lon="30.4594057146"><ele>94.83</ele><time>2026-08-20T18:07:18Z</time></trkpt><trkpt lat="59.0995563101" lon="30.4594054632"><ele>94.35</ele><time>2026-08-20T18:07:24Z</time></trkpt><trkpt lat="59.0995577350" lon="30.4594000988"><ele>94.35</ele><time>2026-08-20T18:07:33Z</time></trkpt><trkpt lat="59.0995525382" lon="30.4593974166"><ele>93.87</ele><time>2026-08-20T18:07:40Z</time></trkpt><trkpt lat="59.0995511971" lon="30.4593824968"><ele>93.87</ele><time>2026-08-20T18:07:55Z</time></trkpt><trkpt lat="59.0995507780" lon="30.4593799822"><ele>93.39</ele><time>2026-08-20T18:08:01Z</time></trkpt><trkpt lat="59.0995213576" lon="30.4593172017"><ele>93.39</ele><time>2026-08-20T18:08:08Z</time></trkpt><trkpt lat="59.0995361097" lon="30.4592912178"><ele>93.39</ele><time>2026-08-20T18:08:16Z</time></trkpt><trkpt lat="59.0995232016" lon="30.4592568520"><ele>92.90</ele><time>2026-08-20T18:08:23Z</time></trkpt><trkpt lat="59.0995182563" lon="30.4592593666"><ele>92.90</ele><time>2026-08-20T18:08:35Z</time></trkpt><trkpt lat="59.0995045938" lon="30.4592779744"><ele>92.42</ele><time>2026-08-20T18:08:42Z</time></trkpt><trkpt lat="59.0995089523" lon="30.4592855182"><ele>92.42</ele><time>2026-08-20T18:08:49Z</time></trkpt><trkpt lat="59.0995185915" lon="30.4592918046"><ele>91.94</ele><time>2026-08-20T18:09:02Z</time></trkpt><trkpt lat="59.0995151550" lon="30.4592938162"><ele>91.46</ele><time>2026-08-20T18:09:15Z</time></trkpt><trkpt lat="59.0995168313" lon="30.4592932295"><ele>91.46</ele><time>2026-08-20T18:09:28Z</time></trkpt><trkpt lat="59.0995214414" lon="30.4592999350"><ele>90.98</ele><time>2026-08-20T18:09:48Z</time></trkpt><trkpt lat="59.0995232854" lon="30.4593056347"><ele>90.50</ele><time>2026-08-20T18:10:04Z</time></trkpt><trkpt lat="59.0995244589" lon="30.4592994321"><ele>90.02</ele><time>2026-08-20T18:10:22Z</time></trkpt><trkpt lat="59.0995281469" lon="30.4593006056"><ele>89.54</ele><time>2026-08-20T18:10:37Z</time></trkpt><trkpt lat="59.0995286498" lon="30.4592897091"><ele>89.54</ele><time>2026-08-20T18:10:49Z</time></trkpt><trkpt lat="59.0995335113" lon="30.4592763819"><ele>89.06</ele><time>2026-08-20T18:10:59Z</time></trkpt><trkpt lat="59.0995283984" lon="30.4592744540"><ele>89.06</ele><time>2026-08-20T18:11:10Z</time></trkpt><trkpt lat="59.0995158255" lon="30.4592747055"><ele>88.58</ele><time>2026-08-20T18:11:25Z</time></trkpt><trkpt lat="59.0995144844" lon="30.4592811596"><ele>88.58</ele><time>2026-08-20T18:11:35Z</time></trkpt><trkpt lat="59.0995189268" lon="30.4592804052"><ele>88.10</ele><time>2026-08-20T18:11:47Z</time></trkpt><trkpt lat="59.0995215252" lon="30.4592948221"><ele>88.10</ele><time>2026-08-20T18:11:56Z</time></trkpt><trkpt lat="59.0995517839" lon="30.4592721909"><ele>87.62</ele><time>2026-08-20T18:12:02Z</time></trkpt><trkpt lat="59.0995319188" lon="30.4592529964"><ele>87.62</ele><time>2026-08-20T18:12:09Z</time></trkpt><trkpt lat="59.0995279793" lon="30.4592458718"><ele>87.62</ele><time>2026-08-20T18:12:14Z</time></trkpt><trkpt lat="59.0995348524" lon="30.4592431895"><ele>87.62</ele><time>2026-08-20T18:12:20Z</time></trkpt><trkpt lat="59.0995457489" lon="30.4592389986"><ele>87.14</ele><time>2026-08-20T18:12:30Z</time></trkpt><trkpt lat="59.0995404683" lon="30.4592358973"><ele>86.66</ele><time>2026-08-20T18:12:43Z</time></trkpt><trkpt lat="59.0995401330" lon="30.4592315387"><ele>86.66</ele><time>2026-08-20T18:12:57Z</time></trkpt><trkpt lat="59.0995308291" lon="30.4592274316"><ele>86.18</ele><time>2026-08-20T18:13:08Z</time></trkpt><trkpt lat="59.0995240398" lon="30.4592401721"><ele>86.18</ele><time>2026-08-20T18:13:15Z</time></trkpt><trkpt lat="59.0995289851" lon="30.4592161998"><ele>85.69</ele><time>2026-08-20T18:13:29Z</time></trkpt><trkpt lat="59.0995320864" lon="30.4592256714"><ele>85.21</ele><time>2026-08-20T18:13:45Z</time></trkpt><trkpt lat="59.0995310806" lon="30.4592311196"><ele>85.21</ele><time>2026-08-20T18:13:54Z</time></trkpt><trkpt lat="59.0995315835" lon="30.4592340533"><ele>84.73</ele><time>2026-08-20T18:14:10Z</time></trkpt><trkpt lat="59.0995352715" lon="30.4592244979"><ele>84.73</ele><time>2026-08-20T18:14:25Z</time></trkpt><trkpt lat="59.0995372832" lon="30.4592238273"><ele>84.73</ele><time>2026-08-20T18:14:30Z</time></trkpt><trkpt lat="59.0995219443" lon="30.4592032079"><ele>84.25</ele><time>2026-08-20T18:14:38Z</time></trkpt><trkpt lat="59.0995107125" lon="30.4591837619"><ele>84.25</ele><time>2026-08-20T18:14:50Z</time></trkpt><trkpt lat="59.0995124727" lon="30.4591841809"><ele>83.77</ele><time>2026-08-20T18:15:04Z</time></trkpt><trkpt lat="59.0995342657" lon="30.4591158684"><ele>83.77</ele><time>2026-08-20T18:15:16Z</time></trkpt><trkpt lat="59.0995382890" lon="30.4591457918"><ele>83.29</ele><time>2026-08-20T18:15:27Z</time></trkpt><trkpt lat="59.0995169152" lon="30.4591622204"><ele>83.29</ele><time>2026-08-20T18:15:40Z</time></trkpt><trkpt lat="59.0995293204" lon="30.4592130985"><ele>82.81</ele><time>2026-08-20T18:15:48Z</time></trkpt><trkpt lat="59.0995232854" lon="30.4592325445"><ele>82.81</ele><time>2026-08-20T18:15:57Z</time></trkpt><trkpt lat="59.0995214414" lon="30.4592356458"><ele>82.81</ele><time>2026-08-20T18:16:03Z</time></trkpt><trkpt lat="59.0995233692" lon="30.4592327122"><ele>82.33</ele><time>2026-08-20T18:16:13Z</time></trkpt><trkpt lat="59.0995059349" lon="30.4592353944"><ele>82.33</ele><time>2026-08-20T18:16:20Z</time></trkpt><trkpt lat="59.0995080303" lon="30.4592352267"><ele>81.85</ele><time>2026-08-20T18:16:29Z</time></trkpt><trkpt lat="59.0995118860" lon="30.4592458718"><ele>81.85</ele><time>2026-08-20T18:16:39Z</time></trkpt><trkpt lat="59.0995083656" lon="30.4592674132"><ele>81.85</ele><time>2026-08-20T18:16:49Z</time></trkpt><trkpt lat="59.0995091200" lon="30.4592730291"><ele>81.37</ele><time>2026-08-20T18:17:01Z</time></trkpt><trkpt lat="59.0995129757" lon="30.4592817463"><ele>81.37</ele><time>2026-08-20T18:17:09Z</time></trkpt><trkpt lat="59.0995132271" lon="30.4592879489"><ele>80.89</ele><time>2026-08-20T18:17:22Z</time></trkpt><trkpt lat="59.0995100420" lon="30.4592948221"><ele>80.89</ele><time>2026-08-20T18:17:34Z</time></trkpt><trkpt lat="59.0995237045" lon="30.4593471251"><ele>80.89</ele><time>2026-08-20T18:17:43Z</time></trkpt><trkpt lat="59.0995637700" lon="30.4594685789"><ele>80.41</ele><time>2026-08-20T18:17:51Z</time></trkpt><trkpt lat="59.0996129718" lon="30.4595164396"><ele>80.41</ele><time>2026-08-20T18:17:56Z</time></trkpt><trkpt lat="59.0996342618" lon="30.4595960677"><ele>80.41</ele><time>2026-08-20T18:18:02Z</time></trkpt><trkpt lat="59.0996457450" lon="30.4596178606"><ele>80.41</ele><time>2026-08-20T18:18:04Z</time></trkpt><trkpt lat="59.0997038316" lon="30.4597754404"><ele>80.41</ele><time>2026-08-20T18:18:12Z</time></trkpt><trkpt lat="59.0997405443" lon="30.4598533921"><ele>79.93</ele><time>2026-08-20T18:18:17Z</time></trkpt><trkpt lat="59.0997713897" lon="30.4599930346"><ele>79.93</ele><time>2026-08-20T18:18:26Z</time></trkpt><trkpt lat="59.0998117067" lon="30.4602373671"><ele>79.93</ele><time>2026-08-20T18:18:37Z</time></trkpt><trkpt lat="59.0998201724" lon="30.4602542985"><ele>79.45</ele><time>2026-08-20T18:18:47Z</time></trkpt><trkpt lat="59.0998121258" lon="30.4602083657"><ele>80.41</ele><time>2026-08-20T18:18:59Z</time></trkpt><trkpt lat="59.0998106170" lon="30.4601424001"><ele>79.93</ele><time>2026-08-20T18:19:01Z</time></trkpt><trkpt lat="59.0997880697" lon="30.4599561542"><ele>79.93</ele><time>2026-08-20T18:19:07Z</time></trkpt><trkpt lat="59.0997013170" lon="30.4597319383"><ele>79.93</ele><time>2026-08-20T18:19:17Z</time></trkpt><trkpt lat="59.0996790212" lon="30.4596716724"><ele>79.93</ele><time>2026-08-20T18:19:20Z</time></trkpt><trkpt lat="59.0996360220" lon="30.4595283419"><ele>79.45</ele><time>2026-08-20T18:19:28Z</time></trkpt><trkpt lat="59.0995707270" lon="30.4594338778"><ele>79.45</ele><time>2026-08-20T18:19:35Z</time></trkpt><trkpt lat="59.0995413903" lon="30.4593223985"><ele>79.45</ele><time>2026-08-20T18:19:43Z</time></trkpt><trkpt lat="59.0995478444" lon="30.4592878651"><ele>79.45</ele><time>2026-08-20T18:19:50Z</time></trkpt><trkpt lat="59.0995545499" lon="30.4593082331"><ele>78.97</ele><time>2026-08-20T18:19:54Z</time></trkpt><trkpt lat="59.0996439848" lon="30.4594687466"><ele>78.97</ele><time>2026-08-20T18:20:05Z</time></trkpt><trkpt lat="59.0996625088" lon="30.4595108237"><ele>78.97</ele><time>2026-08-20T18:20:08Z</time></trkpt><trkpt lat="59.0996791888" lon="30.4595383164"><ele>78.97</ele><time>2026-08-20T18:20:10Z</time></trkpt><trkpt lat="59.0997549612" lon="30.4596915375"><ele>78.48</ele><time>2026-08-20T18:20:19Z</time></trkpt><trkpt lat="59.0998137183" lon="30.4598300904"><ele>78.48</ele><time>2026-08-20T18:20:29Z</time></trkpt><trkpt lat="59.0998060070" lon="30.4600522947"><ele>78.00</ele><time>2026-08-20T18:20:36Z</time></trkpt><trkpt lat="59.0998584777" lon="30.4602898378"><ele>78.00</ele><time>2026-08-20T18:20:46Z</time></trkpt><trkpt lat="59.0999027342" lon="30.4603852239"><ele>78.00</ele><time>2026-08-20T18:20:54Z</time></trkpt><trkpt lat="59.0999231860" lon="30.4604458250"><ele>77.52</ele><time>2026-08-20T18:20:58Z</time></trkpt><trkpt lat="59.0999279637" lon="30.4605784267"><ele>77.52</ele><time>2026-08-20T18:21:03Z</time></trkpt><trkpt lat="59.0999454819" lon="30.4606309813"><ele>77.52</ele><time>2026-08-20T18:21:06Z</time></trkpt><trkpt lat="59.0999565460" lon="30.4607333243"><ele>77.52</ele><time>2026-08-20T18:21:12Z</time></trkpt><trkpt lat="59.0999578033" lon="30.4607816879"><ele>77.52</ele><time>2026-08-20T18:21:20Z</time></trkpt><trkpt lat="59.0999719687" lon="30.4608956818"><ele>77.04</ele><time>2026-08-20T18:21:27Z</time></trkpt><trkpt lat="59.0999950189" lon="30.4610747192"><ele>77.04</ele><time>2026-08-20T18:21:36Z</time></trkpt><trkpt lat="59.0999858826" lon="30.4612260964"><ele>77.04</ele><time>2026-08-20T18:21:45Z</time></trkpt><trkpt lat="59.1000068374" lon="30.4613601230"><ele>77.04</ele><time>2026-08-20T18:21:51Z</time></trkpt><trkpt lat="59.0999899060" lon="30.4615240730"><ele>76.56</ele><time>2026-08-20T18:21:58Z</time></trkpt><trkpt lat="59.0999802668" lon="30.4617061280"><ele>76.56</ele><time>2026-08-20T18:22:08Z</time></trkpt><trkpt lat="59.0999213420" lon="30.4618539009"><ele>76.56</ele><time>2026-08-20T18:22:15Z</time></trkpt><trkpt lat="59.0999158099" lon="30.4620383866"><ele>76.56</ele><time>2026-08-20T18:22:24Z</time></trkpt><trkpt lat="59.0999101102" lon="30.4620694835"><ele>75.12</ele><time>2026-08-20T18:22:31Z</time></trkpt><trkpt lat="59.0998884849" lon="30.4622009955"><ele>74.64</ele><time>2026-08-20T18:22:38Z</time></trkpt><trkpt lat="59.0999233536" lon="30.4623420630"><ele>74.64</ele><time>2026-08-20T18:22:47Z</time></trkpt><trkpt lat="59.0999629162" lon="30.4624952003"><ele>74.64</ele><time>2026-08-20T18:22:58Z</time></trkpt><trkpt lat="59.0999780037" lon="30.4626102000"><ele>75.12</ele><time>2026-08-20T18:23:06Z</time></trkpt><trkpt lat="59.0999695379" lon="30.4627464898"><ele>75.60</ele><time>2026-08-20T18:23:16Z</time></trkpt><trkpt lat="59.0999736451" lon="30.4627940152"><ele>75.12</ele><time>2026-08-20T18:23:25Z</time></trkpt><trkpt lat="59.0999818593" lon="30.4629013874"><ele>75.60</ele><time>2026-08-20T18:23:32Z</time></trkpt><trkpt lat="59.0999821946" lon="30.4630097654"><ele>75.60</ele><time>2026-08-20T18:23:40Z</time></trkpt><trkpt lat="59.0999817755" lon="30.4630531836"><ele>75.60</ele><time>2026-08-20T18:23:42Z</time></trkpt><trkpt lat="59.1000026464" lon="30.4631684348"><ele>75.60</ele><time>2026-08-20T18:23:47Z</time></trkpt><trkpt lat="59.0999710467" lon="30.4633150343"><ele>75.60</ele><time>2026-08-20T18:23:54Z</time></trkpt><trkpt lat="59.0999594796" lon="30.4634185508"><ele>75.60</ele><time>2026-08-20T18:24:01Z</time></trkpt><trkpt lat="59.0999345016" lon="30.4635068960"><ele>75.60</ele><time>2026-08-20T18:24:07Z</time></trkpt><trkpt lat="59.0999285504" lon="30.4635908827"><ele>75.12</ele><time>2026-08-20T18:24:13Z</time></trkpt><trkpt lat="59.0998813603" lon="30.4637253284"><ele>75.12</ele><time>2026-08-20T18:24:21Z</time></trkpt><trkpt lat="59.0998761635" lon="30.4637440201"><ele>75.12</ele><time>2026-08-20T18:24:29Z</time></trkpt><trkpt lat="59.0998821985" lon="30.4637571797"><ele>75.12</ele><time>2026-08-20T18:24:40Z</time></trkpt><trkpt lat="59.0998961963" lon="30.4638624564"><ele>74.64</ele><time>2026-08-20T18:24:47Z</time></trkpt><trkpt lat="59.0999044105" lon="30.4639513884"><ele>74.64</ele><time>2026-08-20T18:24:53Z</time></trkpt><trkpt lat="59.0999298077" lon="30.4640326090"><ele>74.64</ele><time>2026-08-20T18:24:59Z</time></trkpt><trkpt lat="59.0999205038" lon="30.4640243948"><ele>74.64</ele><time>2026-08-20T18:25:05Z</time></trkpt><trkpt lat="59.0999084339" lon="30.4640379734"><ele>74.64</ele><time>2026-08-20T18:25:11Z</time></trkpt><trkpt lat="59.0999184921" lon="30.4640523903"><ele>74.16</ele><time>2026-08-20T18:25:16Z</time></trkpt><trkpt lat="59.0999293048" lon="30.4641414061"><ele>74.16</ele><time>2026-08-20T18:25:23Z</time></trkpt><trkpt lat="59.0999259520" lon="30.4641521350"><ele>74.16</ele><time>2026-08-20T18:25:30Z</time></trkpt><trkpt lat="59.0999315679" lon="30.4641931225"><ele>74.16</ele><time>2026-08-20T18:25:35Z</time></trkpt><trkpt lat="59.0999355912" lon="30.4642561544"><ele>74.16</ele><time>2026-08-20T18:25:42Z</time></trkpt><trkpt lat="59.0999694541" lon="30.4643235449"><ele>74.16</ele><time>2026-08-20T18:25:48Z</time></trkpt><trkpt lat="59.1000070889" lon="30.4643744230"><ele>73.68</ele><time>2026-08-20T18:25:54Z</time></trkpt><trkpt lat="59.1000241041" lon="30.4644495249"><ele>73.68</ele><time>2026-08-20T18:26:00Z</time></trkpt><trkpt lat="59.1000362579" lon="30.4644727428"><ele>73.68</ele><time>2026-08-20T18:26:02Z</time></trkpt><trkpt lat="59.1001242679" lon="30.4645490181"><ele>73.68</ele><time>2026-08-20T18:26:10Z</time></trkpt><trkpt lat="59.1001346614" lon="30.4646618385"><ele>74.16</ele><time>2026-08-20T18:26:16Z</time></trkpt><trkpt lat="59.1001603939" lon="30.4647585656"><ele>74.16</ele><time>2026-08-20T18:26:22Z</time></trkpt><trkpt lat="59.1001839470" lon="30.4648839589"><ele>74.16</ele><time>2026-08-20T18:26:28Z</time></trkpt><trkpt lat="59.1002107691" lon="30.4649719689"><ele>74.16</ele><time>2026-08-20T18:26:34Z</time></trkpt><trkpt lat="59.1002291255" lon="30.4650264513"><ele>73.68</ele><time>2026-08-20T18:26:40Z</time></trkpt><trkpt lat="59.1002339032" lon="30.4650818557"><ele>74.16</ele><time>2026-08-20T18:26:47Z</time></trkpt><trkpt lat="59.1002448834" lon="30.4651241843"><ele>74.16</ele><time>2026-08-20T18:26:54Z</time></trkpt><trkpt lat="59.1002234258" lon="30.4651673511"><ele>74.16</ele><time>2026-08-20T18:26:59Z</time></trkpt><trkpt lat="59.1002146248" lon="30.4652300477"><ele>74.16</ele><time>2026-08-20T18:27:03Z</time></trkpt><trkpt lat="59.1002036445" lon="30.4652899783"><ele>74.16</ele><time>2026-08-20T18:27:10Z</time></trkpt><trkpt lat="59.1001913231" lon="30.4653472267"><ele>74.16</ele><time>2026-08-20T18:27:13Z</time></trkpt><trkpt lat="59.1002034768" lon="30.4654166289"><ele>74.16</ele><time>2026-08-20T18:27:18Z</time></trkpt><trkpt lat="59.1002422012" lon="30.4654970951"><ele>73.68</ele><time>2026-08-20T18:27:23Z</time></trkpt><trkpt lat="59.1002743039" lon="30.4656022042"><ele>73.68</ele><time>2026-08-20T18:27:28Z</time></trkpt><trkpt lat="59.1002956778" lon="30.4657363147"><ele>73.68</ele><time>2026-08-20T18:27:32Z</time></trkpt><trkpt lat="59.1002173070" lon="30.4659346305"><ele>73.68</ele><time>2026-08-20T18:27:38Z</time></trkpt><trkpt lat="59.1002034768" lon="30.4660736024"><ele>73.68</ele><time>2026-08-20T18:27:44Z</time></trkpt><trkpt lat="59.1002266947" lon="30.4661092255"><ele>73.68</ele><time>2026-08-20T18:27:50Z</time></trkpt><trkpt lat="59.1002311371" lon="30.4661065433"><ele>73.68</ele><time>2026-08-20T18:27:51Z</time></trkpt><trkpt lat="59.1002747230" lon="30.4660968203"><ele>73.68</ele><time>2026-08-20T18:27:54Z</time></trkpt><trkpt lat="59.1002996173" lon="30.4661052022"><ele>73.68</ele><time>2026-08-20T18:27:58Z</time></trkpt><trkpt lat="59.1003340669" lon="30.4660727642"><ele>73.68</ele><time>2026-08-20T18:28:03Z</time></trkpt><trkpt lat="59.1003875434" lon="30.4660771228"><ele>73.68</ele><time>2026-08-20T18:28:10Z</time></trkpt><trkpt lat="59.1004290339" lon="30.4660884384"><ele>73.68</ele><time>2026-08-20T18:28:18Z</time></trkpt><trkpt lat="59.1004845221" lon="30.4661050346"><ele>73.68</ele><time>2026-08-20T18:28:23Z</time></trkpt><trkpt lat="59.1005414352" lon="30.4661367182"><ele>73.68</ele><time>2026-08-20T18:28:31Z</time></trkpt><trkpt lat="59.1005448718" lon="30.4661585111"><ele>73.68</ele><time>2026-08-20T18:28:37Z</time></trkpt><trkpt lat="59.1005491465" lon="30.4661580082"><ele>73.20</ele><time>2026-08-20T18:28:44Z</time></trkpt><trkpt lat="59.1005721968" lon="30.4661479499"><ele>73.20</ele><time>2026-08-20T18:28:50Z</time></trkpt><trkpt lat="59.1005752143" lon="30.4661027715"><ele>73.20</ele><time>2026-08-20T18:28:55Z</time></trkpt><trkpt lat="59.1005868651" lon="30.4661082197"><ele>73.20</ele><time>2026-08-20T18:28:57Z</time></trkpt><trkpt lat="59.1006566864" lon="30.4661472794"><ele>73.20</ele><time>2026-08-20T18:29:05Z</time></trkpt><trkpt lat="59.1006696783" lon="30.4661614448"><ele>73.20</ele><time>2026-08-20T18:29:12Z</time></trkpt><trkpt lat="59.1006963328" lon="30.4661653843"><ele>73.20</ele><time>2026-08-20T18:29:19Z</time></trkpt><trkpt lat="59.1006977577" lon="30.4661715031"><ele>73.20</ele><time>2026-08-20T18:29:28Z</time></trkpt><trkpt lat="59.1007009428" lon="30.4661555775"><ele>73.20</ele><time>2026-08-20T18:29:39Z</time></trkpt><trkpt lat="59.1007028706" lon="30.4661520571"><ele>73.20</ele><time>2026-08-20T18:29:45Z</time></trkpt><trkpt lat="59.1007289384" lon="30.4661236424"><ele>72.72</ele><time>2026-08-20T18:29:53Z</time></trkpt><trkpt lat="59.1007710155" lon="30.4661000054"><ele>72.72</ele><time>2026-08-20T18:30:01Z</time></trkpt><trkpt lat="59.1008410882" lon="30.4660824873"><ele>72.72</ele><time>2026-08-20T18:30:10Z</time></trkpt><trkpt lat="59.1009044554" lon="30.4660620354"><ele>72.72</ele><time>2026-08-20T18:30:14Z</time></trkpt><trkpt lat="59.1010078043" lon="30.4660255741"><ele>72.72</ele><time>2026-08-20T18:30:22Z</time></trkpt><trkpt lat="59.1010348778" lon="30.4660644662"><ele>72.72</ele><time>2026-08-20T18:30:30Z</time></trkpt><trkpt lat="59.1011015140" lon="30.4660919588"><ele>72.72</ele><time>2026-08-20T18:30:38Z</time></trkpt><trkpt lat="59.1011658031" lon="30.4661137518"><ele>72.72</ele><time>2026-08-20T18:30:44Z</time></trkpt><trkpt lat="59.1011869255" lon="30.4661663063"><ele>72.72</ele><time>2026-08-20T18:30:49Z</time></trkpt><trkpt lat="59.1012386419" lon="30.4661579244"><ele>72.72</ele><time>2026-08-20T18:30:57Z</time></trkpt><trkpt lat="59.1012743488" lon="30.4661616962"><ele>72.24</ele><time>2026-08-20T18:31:03Z</time></trkpt><trkpt lat="59.1013108939" lon="30.4661860876"><ele>72.24</ele><time>2026-08-20T18:31:08Z</time></trkpt><trkpt lat="59.1013573296" lon="30.4661967326"><ele>72.24</ele><time>2026-08-20T18:31:16Z</time></trkpt><trkpt lat="59.1013797093" lon="30.4661829863"><ele>72.24</ele><time>2026-08-20T18:31:23Z</time></trkpt><trkpt lat="59.1013872530" lon="30.4661913682"><ele>72.24</ele><time>2026-08-20T18:31:31Z</time></trkpt><trkpt lat="59.1013897676" lon="30.4661916196"><ele>72.24</ele><time>2026-08-20T18:31:49Z</time></trkpt><trkpt lat="59.1013921984" lon="30.4661920387"><ele>71.76</ele><time>2026-08-20T18:32:04Z</time></trkpt><trkpt lat="59.1013882589" lon="30.4661729280"><ele>71.76</ele><time>2026-08-20T18:32:19Z</time></trkpt><trkpt lat="59.1013993230" lon="30.4661569186"><ele>71.76</ele><time>2026-08-20T18:32:32Z</time></trkpt><trkpt lat="59.1014015861" lon="30.4661756102"><ele>71.76</ele><time>2026-08-20T18:32:43Z</time></trkpt><trkpt lat="59.1014009155" lon="30.4661772866"><ele>71.27</ele><time>2026-08-20T18:32:57Z</time></trkpt><trkpt lat="59.1014046874" lon="30.4661860876"><ele>71.76</ele><time>2026-08-20T18:33:11Z</time></trkpt><trkpt lat="59.1014047712" lon="30.4661918711"><ele>71.76</ele><time>2026-08-20T18:33:23Z</time></trkpt><trkpt lat="59.1014195234" lon="30.4661974870"><ele>71.76</ele><time>2026-08-20T18:33:32Z</time></trkpt><trkpt lat="59.1014142428" lon="30.4662103113"><ele>71.76</ele><time>2026-08-20T18:33:43Z</time></trkpt><trkpt lat="59.1014103871" lon="30.4662130773"><ele>70.31</ele><time>2026-08-20T18:33:57Z</time></trkpt><trkpt lat="59.1014099680" lon="30.4662134126"><ele>70.31</ele><time>2026-08-20T18:33:58Z</time></trkpt><trkpt lat="59.1014088783" lon="30.4662540648"><ele>70.31</ele><time>2026-08-20T18:34:02Z</time></trkpt><trkpt lat="59.1013972275" lon="30.4662788752"><ele>70.31</ele><time>2026-08-20T18:34:07Z</time></trkpt><trkpt lat="59.1013989877" lon="30.4662934598"><ele>70.31</ele><time>2026-08-20T18:34:13Z</time></trkpt><trkpt lat="59.1014033463" lon="30.4663658794"><ele>70.31</ele><time>2026-08-20T18:34:20Z</time></trkpt><trkpt lat="59.1013917793" lon="30.4664431605"><ele>70.31</ele><time>2026-08-20T18:34:25Z</time></trkpt><trkpt lat="59.1013906058" lon="30.4664738383"><ele>70.31</ele><time>2026-08-20T18:34:31Z</time></trkpt><trkpt lat="59.1013943776" lon="30.4664732516"><ele>69.83</ele><time>2026-08-20T18:34:42Z</time></trkpt><trkpt lat="59.1014040168" lon="30.4665181786"><ele>69.83</ele><time>2026-08-20T18:34:49Z</time></trkpt><trkpt lat="59.1014103871" lon="30.4665667936"><ele>69.83</ele><time>2026-08-20T18:34:55Z</time></trkpt><trkpt lat="59.1013999097" lon="30.4665943701"><ele>69.83</ele><time>2026-08-20T18:35:00Z</time></trkpt><trkpt lat="59.1013944615" lon="30.4666575696"><ele>69.83</ele><time>2026-08-20T18:35:08Z</time></trkpt><trkpt lat="59.1014112253" lon="30.4667501058"><ele>69.83</ele><time>2026-08-20T18:35:14Z</time></trkpt><trkpt lat="59.1014077887" lon="30.4667845555"><ele>69.83</ele><time>2026-08-20T18:35:19Z</time></trkpt><trkpt lat="59.1014075372" lon="30.4668228608"><ele>69.83</ele><time>2026-08-20T18:35:27Z</time></trkpt><trkpt lat="59.1014100518" lon="30.4668293148"><ele>69.83</ele><time>2026-08-20T18:35:33Z</time></trkpt><trkpt lat="59.1014014184" lon="30.4668494314"><ele>69.83</ele><time>2026-08-20T18:35:40Z</time></trkpt><trkpt lat="59.1013870016" lon="30.4669268802"><ele>69.83</ele><time>2026-08-20T18:35:48Z</time></trkpt><trkpt lat="59.1013791226" lon="30.4669357650"><ele>69.83</ele><time>2026-08-20T18:35:56Z</time></trkpt><trkpt lat="59.1013724171" lon="30.4669574741"><ele>69.83</ele><time>2026-08-20T18:36:02Z</time></trkpt><trkpt lat="59.1013787035" lon="30.4669739027"><ele>69.83</ele><time>2026-08-20T18:36:08Z</time></trkpt><trkpt lat="59.1013657115" lon="30.4669741541"><ele>69.35</ele><time>2026-08-20T18:36:24Z</time></trkpt><trkpt lat="59.1013706569" lon="30.4669785127"><ele>69.35</ele><time>2026-08-20T18:36:33Z</time></trkpt><trkpt lat="59.1013741773" lon="30.4670433886"><ele>69.35</ele><time>2026-08-20T18:36:38Z</time></trkpt><trkpt lat="59.1013805475" lon="30.4670844600"><ele>69.35</ele><time>2026-08-20T18:36:44Z</time></trkpt><trkpt lat="59.1013851576" lon="30.4670875613"><ele>69.35</ele><time>2026-08-20T18:36:56Z</time></trkpt><trkpt lat="59.1013746802" lon="30.4670968652"><ele>69.35</ele><time>2026-08-20T18:37:14Z</time></trkpt><trkpt lat="59.1013737582" lon="30.4671707936"><ele>68.87</ele><time>2026-08-20T18:37:31Z</time></trkpt><trkpt lat="59.1013771109" lon="30.4671966936"><ele>68.87</ele><time>2026-08-20T18:37:47Z</time></trkpt><trkpt lat="59.1013817210" lon="30.4671903234"><ele>68.87</ele><time>2026-08-20T18:37:57Z</time></trkpt><trkpt lat="59.1014010832" lon="30.4672136251"><ele>68.87</ele><time>2026-08-20T18:38:04Z</time></trkpt><trkpt lat="59.1014215350" lon="30.4672309756"><ele>68.87</ele><time>2026-08-20T18:38:11Z</time></trkpt><trkpt lat="59.1014524642" lon="30.4672381841"><ele>68.87</ele><time>2026-08-20T18:38:23Z</time></trkpt><trkpt lat="59.1014601756" lon="30.4672495835"><ele>68.87</ele><time>2026-08-20T18:38:39Z</time></trkpt><trkpt lat="59.1014716588" lon="30.4672317300"><ele>68.87</ele><time>2026-08-20T18:38:53Z</time></trkpt><trkpt lat="59.1014733352" lon="30.4672432132"><ele>68.87</ele><time>2026-08-20T18:39:03Z</time></trkpt><trkpt lat="59.1014654562" lon="30.4672510084"><ele>68.39</ele><time>2026-08-20T18:39:16Z</time></trkpt><trkpt lat="59.1014533024" lon="30.4672562890"><ele>68.39</ele><time>2026-08-20T18:39:33Z</time></trkpt><trkpt lat="59.1014623549" lon="30.4672571272"><ele>68.39</ele><time>2026-08-20T18:39:48Z</time></trkpt><trkpt lat="59.1014740057" lon="30.4672532715"><ele>68.39</ele><time>2026-08-20T18:40:04Z</time></trkpt><trkpt lat="59.1014750954" lon="30.4672504216"><ele>68.39</ele><time>2026-08-20T18:40:13Z</time></trkpt><trkpt lat="59.1014755983" lon="30.4672513437"><ele>68.39</ele><time>2026-08-20T18:40:31Z</time></trkpt><trkpt lat="59.1014786158" lon="30.4672470689"><ele>68.39</ele><time>2026-08-20T18:40:46Z</time></trkpt><trkpt lat="59.1014776099" lon="30.4672451410"><ele>68.39</ele><time>2026-08-20T18:40:54Z</time></trkpt><trkpt lat="59.1014744248" lon="30.4672428779"><ele>68.39</ele><time>2026-08-20T18:41:02Z</time></trkpt><trkpt lat="59.1014739219" lon="30.4672503378"><ele>68.39</ele><time>2026-08-20T18:41:15Z</time></trkpt><trkpt lat="59.1014784481" lon="30.4672376812"><ele>68.39</ele><time>2026-08-20T18:41:29Z</time></trkpt><trkpt lat="59.1014772747" lon="30.4672132898"><ele>68.39</ele><time>2026-08-20T18:41:42Z</time></trkpt><trkpt lat="59.1014820524" lon="30.4672207497"><ele>68.39</ele><time>2026-08-20T18:41:55Z</time></trkpt><trkpt lat="59.1014854889" lon="30.4672293831"><ele>68.39</ele><time>2026-08-20T18:42:09Z</time></trkpt><trkpt lat="59.1014880873" lon="30.4672516789"><ele>68.39</ele><time>2026-08-20T18:42:20Z</time></trkpt><trkpt lat="59.1014838964" lon="30.4672921635"><ele>68.39</ele><time>2026-08-20T18:42:28Z</time></trkpt><trkpt lat="59.1014577448" lon="30.4673634097"><ele>68.39</ele><time>2026-08-20T18:42:35Z</time></trkpt><trkpt lat="59.1014406458" lon="30.4674560297"><ele>68.39</ele><time>2026-08-20T18:42:42Z</time></trkpt><trkpt lat="59.1014475189" lon="30.4674952570"><ele>68.39</ele><time>2026-08-20T18:42:48Z</time></trkpt><trkpt lat="59.1014614329" lon="30.4675993603"><ele>68.39</ele><time>2026-08-20T18:42:55Z</time></trkpt><trkpt lat="59.1014662944" lon="30.4676364083"><ele>67.91</ele><time>2026-08-20T18:43:00Z</time></trkpt><trkpt lat="59.1015181784" lon="30.4677045532"><ele>68.87</ele><time>2026-08-20T18:43:08Z</time></trkpt><trkpt lat="59.1015312541" lon="30.4677591193"><ele>68.87</ele><time>2026-08-20T18:43:14Z</time></trkpt><trkpt lat="59.1015460063" lon="30.4678348079"><ele>68.87</ele><time>2026-08-20T18:43:22Z</time></trkpt><trkpt lat="59.1015610937" lon="30.4678874463"><ele>68.87</ele><time>2026-08-20T18:43:29Z</time></trkpt><trkpt lat="59.1015751753" lon="30.4679433536"><ele>68.87</ele><time>2026-08-20T18:43:35Z</time></trkpt><trkpt lat="59.1015866585" lon="30.4679570999"><ele>68.87</ele><time>2026-08-20T18:43:38Z</time></trkpt><trkpt lat="59.1015784442" lon="30.4680169467"><ele>68.87</ele><time>2026-08-20T18:43:43Z</time></trkpt><trkpt lat="59.1015832219" lon="30.4680599459"><ele>68.87</ele><time>2026-08-20T18:43:50Z</time></trkpt><trkpt lat="59.1015763488" lon="30.4681280069"><ele>68.87</ele><time>2026-08-20T18:43:57Z</time></trkpt><trkpt lat="59.1015613452" lon="30.4682677332"><ele>68.87</ele><time>2026-08-20T18:44:05Z</time></trkpt><trkpt lat="59.1015559807" lon="30.4683079664"><ele>68.87</ele><time>2026-08-20T18:44:07Z</time></trkpt><trkpt lat="59.1015332658" lon="30.4684662167"><ele>68.87</ele><time>2026-08-20T18:44:14Z</time></trkpt><trkpt lat="59.1015127301" lon="30.4685103893"><ele>68.87</ele><time>2026-08-20T18:44:22Z</time></trkpt><trkpt lat="59.1014706530" lon="30.4685939569"><ele>68.39</ele><time>2026-08-20T18:44:29Z</time></trkpt><trkpt lat="59.1014575772" lon="30.4686512891"><ele>68.39</ele><time>2026-08-20T18:44:35Z</time></trkpt><trkpt lat="59.1014551464" lon="30.4686673824"><ele>68.39</ele><time>2026-08-20T18:44:41Z</time></trkpt><trkpt lat="59.1014460940" lon="30.4687327612"><ele>68.39</ele><time>2026-08-20T18:44:47Z</time></trkpt><trkpt lat="59.1014463454" lon="30.4687820468"><ele>68.39</ele><time>2026-08-20T18:44:55Z</time></trkpt><trkpt lat="59.1014622711" lon="30.4688544665"><ele>68.39</ele><time>2026-08-20T18:45:01Z</time></trkpt><trkpt lat="59.1014922783" lon="30.4689496849"><ele>68.39</ele><time>2026-08-20T18:45:08Z</time></trkpt><trkpt lat="59.1014964692" lon="30.4689775966"><ele>68.87</ele><time>2026-08-20T18:45:18Z</time></trkpt><trkpt lat="59.1014850698" lon="30.4690038320"><ele>69.35</ele><time>2026-08-20T18:45:26Z</time></trkpt><trkpt lat="59.1015025042" lon="30.4689356871"><ele>68.87</ele><time>2026-08-20T18:45:34Z</time></trkpt><trkpt lat="59.1015037615" lon="30.4689704720"><ele>68.87</ele><time>2026-08-20T18:45:45Z</time></trkpt><trkpt lat="59.1014929488" lon="30.4690249544"><ele>67.91</ele><time>2026-08-20T18:46:04Z</time></trkpt><trkpt lat="59.1014862433" lon="30.4690241162"><ele>67.91</ele><time>2026-08-20T18:46:11Z</time></trkpt><trkpt lat="59.1014841478" lon="30.4690354317"><ele>67.91</ele><time>2026-08-20T18:46:21Z</time></trkpt><trkpt lat="59.1014832258" lon="30.4690543748"><ele>67.91</ele><time>2026-08-20T18:46:29Z</time></trkpt><trkpt lat="59.1014869977" lon="30.4691117071"><ele>67.43</ele><time>2026-08-20T18:46:35Z</time></trkpt><trkpt lat="59.1014756821" lon="30.4691723082"><ele>67.43</ele><time>2026-08-20T18:46:42Z</time></trkpt><trkpt lat="59.1014664620" lon="30.4691999685"><ele>67.43</ele><time>2026-08-20T18:46:49Z</time></trkpt><trkpt lat="59.1014602594" lon="30.4691932630"><ele>67.43</ele><time>2026-08-20T18:46:56Z</time></trkpt><trkpt lat="59.1014642827" lon="30.4692231026"><ele>67.43</ele><time>2026-08-20T18:47:04Z</time></trkpt><trkpt lat="59.1014698986" lon="30.4692809377"><ele>67.43</ele><time>2026-08-20T18:47:12Z</time></trkpt><trkpt lat="59.1014838126" lon="30.4693907406"><ele>67.43</ele><time>2026-08-20T18:47:18Z</time></trkpt><trkpt lat="59.1015088744" lon="30.4694547784"><ele>67.43</ele><time>2026-08-20T18:47:24Z</time></trkpt><trkpt lat="59.1015140712" lon="30.4695232585"><ele>67.43</ele><time>2026-08-20T18:47:30Z</time></trkpt><trkpt lat="59.1015027557" lon="30.4695400223"><ele>67.43</ele><time>2026-08-20T18:47:36Z</time></trkpt><trkpt lat="59.1014963016" lon="30.4695578758"><ele>67.43</ele><time>2026-08-20T18:47:42Z</time></trkpt><trkpt lat="59.1014868300" lon="30.4695911519"><ele>66.95</ele><time>2026-08-20T18:47:51Z</time></trkpt><trkpt lat="59.1014887579" lon="30.4695946723"><ele>66.95</ele><time>2026-08-20T18:47:57Z</time></trkpt><trkpt lat="59.1014845669" lon="30.4696141183"><ele>66.95</ele><time>2026-08-20T18:48:03Z</time></trkpt><trkpt lat="59.1014595050" lon="30.4696845263"><ele>66.95</ele><time>2026-08-20T18:48:10Z</time></trkpt><trkpt lat="59.1014606785" lon="30.4697293695"><ele>66.95</ele><time>2026-08-20T18:48:18Z</time></trkpt><trkpt lat="59.1014725808" lon="30.4698143620"><ele>66.95</ele><time>2026-08-20T18:48:24Z</time></trkpt><trkpt lat="59.1014702339" lon="30.4698607977"><ele>66.95</ele><time>2026-08-20T18:48:32Z</time></trkpt><trkpt lat="59.1014717426" lon="30.4699126817"><ele>66.95</ele><time>2026-08-20T18:48:37Z</time></trkpt><trkpt lat="59.1014610976" lon="30.4699835088"><ele>66.95</ele><time>2026-08-20T18:48:42Z</time></trkpt><trkpt lat="59.1014772747" lon="30.4700660706"><ele>66.95</ele><time>2026-08-20T18:48:49Z</time></trkpt><trkpt lat="59.1014634445" lon="30.4700913001"><ele>66.95</ele><time>2026-08-20T18:48:53Z</time></trkpt><trkpt lat="59.1014767718" lon="30.4701667372"><ele>66.95</ele><time>2026-08-20T18:48:59Z</time></trkpt><trkpt lat="59.1014860757" lon="30.4702392407"><ele>66.47</ele><time>2026-08-20T18:49:05Z</time></trkpt><trkpt lat="59.1015120596" lon="30.4703383986"><ele>66.47</ele><time>2026-08-20T18:49:12Z</time></trkpt><trkpt lat="59.1015282366" lon="30.4703952279"><ele>66.47</ele><time>2026-08-20T18:49:18Z</time></trkpt><trkpt lat="59.1015291587" lon="30.4704394005"><ele>66.47</ele><time>2026-08-20T18:49:23Z</time></trkpt><trkpt lat="59.1015621834" lon="30.4705058690"><ele>66.47</ele><time>2026-08-20T18:49:31Z</time></trkpt><trkpt lat="59.1015771031" lon="30.4705626145"><ele>66.47</ele><time>2026-08-20T18:49:39Z</time></trkpt><trkpt lat="59.1015868261" lon="30.4706074577"><ele>66.47</ele><time>2026-08-20T18:49:49Z</time></trkpt><trkpt lat="59.1015905142" lon="30.4706208687"><ele>65.99</ele><time>2026-08-20T18:50:03Z</time></trkpt><trkpt lat="59.1015947051" lon="30.4706278257"><ele>65.99</ele><time>2026-08-20T18:50:10Z</time></trkpt><trkpt lat="59.1016131453" lon="30.4706160072"><ele>65.99</ele><time>2026-08-20T18:50:17Z</time></trkpt><trkpt lat="59.1016156599" lon="30.4706271552"><ele>65.99</ele><time>2026-08-20T18:50:24Z</time></trkpt><trkpt lat="59.1016182583" lon="30.4706946295"><ele>65.99</ele><time>2026-08-20T18:50:31Z</time></trkpt><trkpt lat="59.1016192641" lon="30.4707176797"><ele>65.99</ele><time>2026-08-20T18:50:34Z</time></trkpt><trkpt lat="59.1016232036" lon="30.4707714915"><ele>65.99</ele><time>2026-08-20T18:50:41Z</time></trkpt><trkpt lat="59.1016459186" lon="30.4708205257"><ele>65.99</ele><time>2026-08-20T18:50:47Z</time></trkpt><trkpt lat="59.1016630176" lon="30.4708437435"><ele>65.99</ele><time>2026-08-20T18:50:53Z</time></trkpt><trkpt lat="59.1016710643" lon="30.4708965495"><ele>65.51</ele><time>2026-08-20T18:50:58Z</time></trkpt><trkpt lat="59.1016681306" lon="30.4709782731"><ele>65.51</ele><time>2026-08-20T18:51:05Z</time></trkpt><trkpt lat="59.1017072741" lon="30.4710214399"><ele>65.51</ele><time>2026-08-20T18:51:12Z</time></trkpt><trkpt lat="59.1017203499" lon="30.4710664507"><ele>65.51</ele><time>2026-08-20T18:51:20Z</time></trkpt><trkpt lat="59.1017331742" lon="30.4711102042"><ele>65.51</ele><time>2026-08-20T18:51:29Z</time></trkpt><trkpt lat="59.1017145663" lon="30.4711669497"><ele>65.51</ele><time>2026-08-20T18:51:35Z</time></trkpt><trkpt lat="59.1017225292" lon="30.4711745773"><ele>65.51</ele><time>2026-08-20T18:51:36Z</time></trkpt><trkpt lat="59.1017527878" lon="30.4711949453"><ele>65.51</ele><time>2026-08-20T18:51:38Z</time></trkpt><trkpt lat="59.1017646063" lon="30.4712150618"><ele>65.51</ele><time>2026-08-20T18:51:45Z</time></trkpt><trkpt lat="59.1017718147" lon="30.4712520260"><ele>65.03</ele><time>2026-08-20T18:51:52Z</time></trkpt><trkpt lat="59.1017889977" lon="30.4713066760"><ele>65.03</ele><time>2026-08-20T18:51:58Z</time></trkpt><trkpt lat="59.1018233635" lon="30.4714249447"><ele>65.03</ele><time>2026-08-20T18:52:06Z</time></trkpt><trkpt lat="59.1017878242" lon="30.4715542775"><ele>65.03</ele><time>2026-08-20T18:52:14Z</time></trkpt><trkpt lat="59.1017786879" lon="30.4715979472"><ele>65.03</ele><time>2026-08-20T18:52:21Z</time></trkpt><trkpt lat="59.1017902549" lon="30.4716292955"><ele>65.03</ele><time>2026-08-20T18:52:29Z</time></trkpt><trkpt lat="59.1018056776" lon="30.4716534354"><ele>65.03</ele><time>2026-08-20T18:52:35Z</time></trkpt><trkpt lat="59.1018079408" lon="30.4716575425"><ele>65.03</ele><time>2026-08-20T18:52:37Z</time></trkpt><trkpt lat="59.1018171608" lon="30.4716657568"><ele>65.03</ele><time>2026-08-20T18:52:43Z</time></trkpt><trkpt lat="59.1018163227" lon="30.4717100132"><ele>65.03</ele><time>2026-08-20T18:52:50Z</time></trkpt><trkpt lat="59.1018563043" lon="30.4717713688"><ele>65.03</ele><time>2026-08-20T18:52:58Z</time></trkpt><trkpt lat="59.1018639319" lon="30.4717913177"><ele>64.55</ele><time>2026-08-20T18:53:05Z</time></trkpt><trkpt lat="59.1018780973" lon="30.4718127754"><ele>64.55</ele><time>2026-08-20T18:53:11Z</time></trkpt><trkpt lat="59.1018782649" lon="30.4718152061"><ele>64.55</ele><time>2026-08-20T18:53:12Z</time></trkpt><trkpt lat="59.1018660273" lon="30.4718574509"><ele>64.55</ele><time>2026-08-20T18:53:19Z</time></trkpt><trkpt lat="59.1018459108" lon="30.4718957562"><ele>64.55</ele><time>2026-08-20T18:53:26Z</time></trkpt><trkpt lat="59.1018395405" lon="30.4718934931"><ele>64.55</ele><time>2026-08-20T18:53:32Z</time></trkpt><trkpt lat="59.1018178314" lon="30.4718977679"><ele>64.55</ele><time>2026-08-20T18:53:38Z</time></trkpt><trkpt lat="59.1018048394" lon="30.4719027132"><ele>64.55</ele><time>2026-08-20T18:53:46Z</time></trkpt><trkpt lat="59.1017730720" lon="30.4719488136"><ele>64.55</ele><time>2026-08-20T18:53:53Z</time></trkpt><trkpt lat="59.1017613374" lon="30.4719664995"><ele>64.55</ele><time>2026-08-20T18:53:59Z</time></trkpt><trkpt lat="59.1017265525" lon="30.4719940759"><ele>64.55</ele><time>2026-08-20T18:54:06Z</time></trkpt><trkpt lat="59.1016879119" lon="30.4720002785"><ele>64.55</ele><time>2026-08-20T18:54:14Z</time></trkpt><trkpt lat="59.1016709805" lon="30.4720104206"><ele>67.43</ele><time>2026-08-20T18:54:19Z</time></trkpt><trkpt lat="59.1016667895" lon="30.4720126837"><ele>69.35</ele><time>2026-08-20T18:54:23Z</time></trkpt><trkpt lat="59.1016677953" lon="30.4719881248"><ele>69.83</ele><time>2026-08-20T18:54:34Z</time></trkpt><trkpt lat="59.1016610898" lon="30.4719707742"><ele>66.47</ele><time>2026-08-20T18:54:40Z</time></trkpt><trkpt lat="59.1016512830" lon="30.4719720315"><ele>63.10</ele><time>2026-08-20T18:54:45Z</time></trkpt><trkpt lat="59.1016470082" lon="30.4719847720"><ele>64.55</ele><time>2026-08-20T18:54:55Z</time></trkpt><trkpt lat="59.1016501095" lon="30.4720081575"><ele>65.03</ele><time>2026-08-20T18:55:14Z</time></trkpt><trkpt lat="59.1016430687" lon="30.4720224068"><ele>65.03</ele><time>2026-08-20T18:55:29Z</time></trkpt><trkpt lat="59.1016419791" lon="30.4720271844"><ele>65.03</ele><time>2026-08-20T18:55:49Z</time></trkpt><trkpt lat="59.1016419791" lon="30.4720334709"><ele>65.03</ele><time>2026-08-20T18:56:01Z</time></trkpt><trkpt lat="59.1016462538" lon="30.4720455408"><ele>64.55</ele><time>2026-08-20T18:56:17Z</time></trkpt><trkpt lat="59.1016467568" lon="30.4720457923"><ele>64.55</ele><time>2026-08-20T18:56:28Z</time></trkpt><trkpt lat="59.1016395483" lon="30.4720343929"><ele>64.55</ele><time>2026-08-20T18:56:42Z</time></trkpt><trkpt lat="59.1016405541" lon="30.4720314592"><ele>64.55</ele><time>2026-08-20T18:56:55Z</time></trkpt><trkpt lat="59.1016374528" lon="30.4720275197"><ele>64.55</ele><time>2026-08-20T18:57:07Z</time></trkpt><trkpt lat="59.1016421467" lon="30.4720280226"><ele>64.55</ele><time>2026-08-20T18:57:14Z</time></trkpt><trkpt lat="59.1016347706" lon="30.4720150307"><ele>64.55</ele><time>2026-08-20T18:57:20Z</time></trkpt><trkpt lat="59.1016354412" lon="30.4720027931"><ele>64.55</ele><time>2026-08-20T18:57:26Z</time></trkpt><trkpt lat="59.1016252153" lon="30.4720008653"><ele>64.55</ele><time>2026-08-20T18:57:28Z</time></trkpt><trkpt lat="59.1015874967" lon="30.4719959199"><ele>64.55</ele><time>2026-08-20T18:57:34Z</time></trkpt><trkpt lat="59.1015850659" lon="30.4719787370"><ele>64.55</ele><time>2026-08-20T18:57:39Z</time></trkpt><trkpt lat="59.1015589982" lon="30.4719355702"><ele>65.03</ele><time>2026-08-20T18:57:46Z</time></trkpt><trkpt lat="59.1015458386" lon="30.4719337262"><ele>65.03</ele><time>2026-08-20T18:57:50Z</time></trkpt><trkpt lat="59.1015629377" lon="30.4719257634"><ele>65.03</ele><time>2026-08-20T18:57:57Z</time></trkpt><trkpt lat="59.1015574895" lon="30.4719505738"><ele>65.03</ele><time>2026-08-20T18:58:07Z</time></trkpt><trkpt lat="59.1015558131" lon="30.4719553515"><ele>64.55</ele><time>2026-08-20T18:58:14Z</time></trkpt><trkpt lat="59.1015527956" lon="30.4719713610"><ele>64.55</ele><time>2026-08-20T18:58:21Z</time></trkpt><trkpt lat="59.1015481018" lon="30.4719680082"><ele>64.55</ele><time>2026-08-20T18:58:29Z</time></trkpt><trkpt lat="59.1015462577" lon="30.4719670024"><ele>64.55</ele><time>2026-08-20T18:58:42Z</time></trkpt><trkpt lat="59.1015474312" lon="30.4719683435"><ele>64.55</ele><time>2026-08-20T18:58:53Z</time></trkpt><trkpt lat="59.1015310865" lon="30.4720178805"><ele>64.55</ele><time>2026-08-20T18:59:01Z</time></trkpt><trkpt lat="59.1015273985" lon="30.4720540904"><ele>64.55</ele><time>2026-08-20T18:59:08Z</time></trkpt><trkpt lat="59.1015284043" lon="30.4720764700"><ele>64.55</ele><time>2026-08-20T18:59:21Z</time></trkpt><trkpt lat="59.1015274823" lon="30.4720966704"><ele>64.55</ele><time>2026-08-20T18:59:29Z</time></trkpt><trkpt lat="59.1015377920" lon="30.4721669946"><ele>64.55</ele><time>2026-08-20T18:59:35Z</time></trkpt><trkpt lat="59.1015393846" lon="30.4722240753"><ele>64.55</ele><time>2026-08-20T18:59:42Z</time></trkpt><trkpt lat="59.1015567351" lon="30.4722702596"><ele>64.55</ele><time>2026-08-20T18:59:49Z</time></trkpt><trkpt lat="59.1015734989" lon="30.4723363928"><ele>64.55</ele><time>2026-08-20T18:59:56Z</time></trkpt><trkpt lat="59.1015793663" lon="30.4723850079"><ele>64.55</ele><time>2026-08-20T19:00:03Z</time></trkpt><trkpt lat="59.1015889216" lon="30.4724422563"><ele>64.55</ele><time>2026-08-20T19:00:09Z</time></trkpt><trkpt lat="59.1015823837" lon="30.4725010972"><ele>64.55</ele><time>2026-08-20T19:00:14Z</time></trkpt><trkpt lat="59.1015325114" lon="30.4725471139"><ele>64.55</ele><time>2026-08-20T19:00:22Z</time></trkpt><trkpt lat="59.1015155800" lon="30.4725971539"><ele>64.55</ele><time>2026-08-20T19:00:28Z</time></trkpt><trkpt lat="59.1015009955" lon="30.4726756085"><ele>64.07</ele><time>2026-08-20T19:00:35Z</time></trkpt><trkpt lat="59.1014917754" lon="30.4727083817"><ele>64.07</ele><time>2026-08-20T19:00:46Z</time></trkpt><trkpt lat="59.1015146580" lon="30.4727136623"><ele>64.07</ele><time>2026-08-20T19:00:55Z</time></trkpt><trkpt lat="59.1015134007" lon="30.4727335274"><ele>64.07</ele><time>2026-08-20T19:01:12Z</time></trkpt><trkpt lat="59.1014999896" lon="30.4727348685"><ele>64.07</ele><time>2026-08-20T19:01:27Z</time></trkpt><trkpt lat="59.1015153285" lon="30.4727225471"><ele>63.58</ele><time>2026-08-20T19:01:48Z</time></trkpt><trkpt lat="59.1015159152" lon="30.4727300070"><ele>63.58</ele><time>2026-08-20T19:02:05Z</time></trkpt><trkpt lat="59.1015266441" lon="30.4727257323"><ele>63.58</ele><time>2026-08-20T19:02:07Z</time></trkpt><trkpt lat="59.1015276499" lon="30.4727471061"><ele>63.58</ele><time>2026-08-20T19:02:11Z</time></trkpt><trkpt lat="59.1015433241" lon="30.4728976451"><ele>63.58</ele><time>2026-08-20T19:02:18Z</time></trkpt><trkpt lat="59.1015854850" lon="30.4729627725"><ele>63.58</ele><time>2026-08-20T19:02:24Z</time></trkpt><trkpt lat="59.1016181745" lon="30.4730750900"><ele>63.58</ele><time>2026-08-20T19:02:31Z</time></trkpt><trkpt lat="59.1017080285" lon="30.4731668718"><ele>63.58</ele><time>2026-08-20T19:02:39Z</time></trkpt><trkpt lat="59.1017612536" lon="30.4731962923"><ele>63.58</ele><time>2026-08-20T19:02:46Z</time></trkpt><trkpt lat="59.1017761733" lon="30.4732093681"><ele>63.58</ele><time>2026-08-20T19:02:52Z</time></trkpt><trkpt lat="59.1017872375" lon="30.4732851405"><ele>63.10</ele><time>2026-08-20T19:02:58Z</time></trkpt><trkpt lat="59.1018099524" lon="30.4733464960"><ele>63.10</ele><time>2026-08-20T19:03:05Z</time></trkpt><trkpt lat="59.1018305719" lon="30.4734060075"><ele>63.10</ele><time>2026-08-20T19:03:11Z</time></trkpt><trkpt lat="59.1018501017" lon="30.4734345060"><ele>63.10</ele><time>2026-08-20T19:03:24Z</time></trkpt><trkpt lat="59.1018672008" lon="30.4734543711"><ele>63.10</ele><time>2026-08-20T19:03:35Z</time></trkpt><trkpt lat="59.1018729843" lon="30.4734836239"><ele>63.10</ele><time>2026-08-20T19:03:46Z</time></trkpt><trkpt lat="59.1018744931" lon="30.4735097755"><ele>63.10</ele><time>2026-08-20T19:03:56Z</time></trkpt><trkpt lat="59.1018832941" lon="30.4735246114"><ele>63.10</ele><time>2026-08-20T19:04:09Z</time></trkpt><trkpt lat="59.1018875688" lon="30.4735287186"><ele>63.10</ele><time>2026-08-20T19:04:18Z</time></trkpt><trkpt lat="59.1018841323" lon="30.4735225998"><ele>63.10</ele><time>2026-08-20T19:04:24Z</time></trkpt><trkpt lat="59.1018644348" lon="30.4735579714"><ele>63.10</ele><time>2026-08-20T19:04:31Z</time></trkpt><trkpt lat="59.1018453240" lon="30.4735840391"><ele>63.10</ele><time>2026-08-20T19:04:36Z</time></trkpt><trkpt lat="59.1018389538" lon="30.4735833686"><ele>63.10</ele><time>2026-08-20T19:04:41Z</time></trkpt><trkpt lat="59.1017796937" lon="30.4735966958"><ele>63.10</ele><time>2026-08-20T19:04:47Z</time></trkpt><trkpt lat="59.1017415561" lon="30.4736376833"><ele>63.10</ele><time>2026-08-20T19:04:52Z</time></trkpt><trkpt lat="59.1017421428" lon="30.4736512620"><ele>63.10</ele><time>2026-08-20T19:04:58Z</time></trkpt><trkpt lat="59.1017475072" lon="30.4736542795"><ele>63.10</ele><time>2026-08-20T19:05:00Z</time></trkpt><trkpt lat="59.1017547157" lon="30.4736719653"><ele>63.10</ele><time>2026-08-20T19:05:06Z</time></trkpt><trkpt lat="59.1017147340" lon="30.4737141263"><ele>63.10</ele><time>2026-08-20T19:05:13Z</time></trkpt><trkpt lat="59.1017222777" lon="30.4737186525"><ele>63.58</ele><time>2026-08-20T19:05:14Z</time></trkpt><trkpt lat="59.1017066035" lon="30.4737530183"><ele>63.58</ele><time>2026-08-20T19:05:19Z</time></trkpt><trkpt lat="59.1016718186" lon="30.4737879708"><ele>63.58</ele><time>2026-08-20T19:05:23Z</time></trkpt><trkpt lat="59.1016294062" lon="30.4739088379"><ele>63.58</ele><time>2026-08-20T19:05:32Z</time></trkpt><trkpt lat="59.1016198508" lon="30.4739458859"><ele>63.58</ele><time>2026-08-20T19:05:36Z</time></trkpt><trkpt lat="59.1016158275" lon="30.4740291182"><ele>63.58</ele><time>2026-08-20T19:05:42Z</time></trkpt><trkpt lat="59.1016115528" lon="30.4740824271"><ele>63.58</ele><time>2026-08-20T19:05:48Z</time></trkpt><trkpt lat="59.1016102117" lon="30.4740814213"><ele>63.58</ele><time>2026-08-20T19:05:49Z</time></trkpt><trkpt lat="59.1015835572" lon="30.4741034657"><ele>63.58</ele><time>2026-08-20T19:05:52Z</time></trkpt><trkpt lat="59.1015782766" lon="30.4741281923"><ele>63.58</ele><time>2026-08-20T19:05:59Z</time></trkpt><trkpt lat="59.1015885863" lon="30.4741651565"><ele>63.58</ele><time>2026-08-20T19:06:05Z</time></trkpt><trkpt lat="59.1015976388" lon="30.4742177948"><ele>63.58</ele><time>2026-08-20T19:06:11Z</time></trkpt><trkpt lat="59.1015802883" lon="30.4742540047"><ele>63.58</ele><time>2026-08-20T19:06:16Z</time></trkpt><trkpt lat="59.1015738342" lon="30.4742922261"><ele>63.58</ele><time>2026-08-20T19:06:24Z</time></trkpt><trkpt lat="59.1015671287" lon="30.4743646458"><ele>63.58</ele><time>2026-08-20T19:06:30Z</time></trkpt><trkpt lat="59.1015618481" lon="30.4744091537"><ele>63.58</ele><time>2026-08-20T19:06:35Z</time></trkpt><trkpt lat="59.1015618481" lon="30.4744776338"><ele>63.58</ele><time>2026-08-20T19:06:41Z</time></trkpt><trkpt lat="59.1015503649" lon="30.4745286796"><ele>63.10</ele><time>2026-08-20T19:06:46Z</time></trkpt><trkpt lat="59.1015363671" lon="30.4745666496"><ele>63.10</ele><time>2026-08-20T19:06:51Z</time></trkpt><trkpt lat="59.1015260573" lon="30.4746269155"><ele>63.10</ele><time>2026-08-20T19:06:57Z</time></trkpt><trkpt lat="59.1015373729" lon="30.4746259935"><ele>63.10</ele><time>2026-08-20T19:07:00Z</time></trkpt><trkpt lat="59.1015822999" lon="30.4746798892"><ele>63.10</ele><time>2026-08-20T19:07:06Z</time></trkpt><trkpt lat="59.1015884187" lon="30.4747228883"><ele>63.10</ele><time>2026-08-20T19:07:09Z</time></trkpt><trkpt lat="59.1015615128" lon="30.4747882672"><ele>63.10</ele><time>2026-08-20T19:07:14Z</time></trkpt><trkpt lat="59.1015585791" lon="30.4747859202"><ele>63.10</ele><time>2026-08-20T19:07:19Z</time></trkpt><trkpt lat="59.1015729960" lon="30.4747839924"><ele>63.10</ele><time>2026-08-20T19:07:30Z</time></trkpt><trkpt lat="59.1015861556" lon="30.4747792147"><ele>63.10</ele><time>2026-08-20T19:07:41Z</time></trkpt><trkpt lat="59.1015975550" lon="30.4747806396"><ele>63.10</ele><time>2026-08-20T19:07:58Z</time></trkpt><trkpt lat="59.1016128939" lon="30.4747632891"><ele>63.10</ele><time>2026-08-20T19:08:13Z</time></trkpt><trkpt lat="59.1016044281" lon="30.4747588467"><ele>63.10</ele><time>2026-08-20T19:08:21Z</time></trkpt><trkpt lat="59.1015991475" lon="30.4747536499"><ele>62.62</ele><time>2026-08-20T19:08:28Z</time></trkpt><trkpt lat="59.1015978903" lon="30.4747513868"><ele>62.62</ele><time>2026-08-20T19:08:39Z</time></trkpt><trkpt lat="59.1015971359" lon="30.4747741017"><ele>62.62</ele><time>2026-08-20T19:08:45Z</time></trkpt><trkpt lat="59.1015955433" lon="30.4747798853"><ele>62.62</ele><time>2026-08-20T19:08:54Z</time></trkpt><trkpt lat="59.1015814617" lon="30.4748026840"><ele>62.62</ele><time>2026-08-20T19:08:58Z</time></trkpt><trkpt lat="59.1015572380" lon="30.4748527240"><ele>62.62</ele><time>2026-08-20T19:09:05Z</time></trkpt><trkpt lat="59.1015538853" lon="30.4748772830"><ele>62.62</ele><time>2026-08-20T19:09:12Z</time></trkpt><trkpt lat="59.1015533824" lon="30.4748812225"><ele>62.62</ele><time>2026-08-20T19:09:18Z</time></trkpt><trkpt lat="59.1015434917" lon="30.4748928733"><ele>62.62</ele><time>2026-08-20T19:09:27Z</time></trkpt><trkpt lat="59.1015526280" lon="30.4749046918"><ele>62.62</ele><time>2026-08-20T19:09:42Z</time></trkpt><trkpt lat="59.1015512031" lon="30.4749262333"><ele>62.62</ele><time>2026-08-20T19:09:51Z</time></trkpt><trkpt lat="59.1015475150" lon="30.4749416560"><ele>62.62</ele><time>2026-08-20T19:09:58Z</time></trkpt><trkpt lat="59.1015481856" lon="30.4749502055"><ele>62.62</ele><time>2026-08-20T19:10:10Z</time></trkpt><trkpt lat="59.1015499458" lon="30.4749649577"><ele>62.62</ele><time>2026-08-20T19:10:16Z</time></trkpt><trkpt lat="59.1015548911" lon="30.4749688972"><ele>62.62</ele><time>2026-08-20T19:10:31Z</time></trkpt><trkpt lat="59.1015504487" lon="30.4749562405"><ele>62.62</ele><time>2026-08-20T19:10:38Z</time></trkpt><trkpt lat="59.1015507001" lon="30.4749460984"><ele>62.62</ele><time>2026-08-20T19:10:51Z</time></trkpt><trkpt lat="59.1015521251" lon="30.4749415722"><ele>62.62</ele><time>2026-08-20T19:11:05Z</time></trkpt><trkpt lat="59.1015495267" lon="30.4749367945"><ele>62.62</ele><time>2026-08-20T19:11:16Z</time></trkpt><trkpt lat="59.1015466768" lon="30.4749316815"><ele>62.14</ele><time>2026-08-20T19:11:23Z</time></trkpt><trkpt lat="59.1015336011" lon="30.4749041889"><ele>62.14</ele><time>2026-08-20T19:11:35Z</time></trkpt><trkpt lat="59.1015144065" lon="30.4749171808"><ele>62.14</ele><time>2026-08-20T19:11:41Z</time></trkpt><trkpt lat="59.1014937870" lon="30.4749449249"><ele>62.14</ele><time>2026-08-20T19:11:47Z</time></trkpt><trkpt lat="59.1014743410" lon="30.4749885108"><ele>62.14</ele><time>2026-08-20T19:11:52Z</time></trkpt><trkpt lat="59.1014730837" lon="30.4749885108"><ele>62.14</ele><time>2026-08-20T19:11:53Z</time></trkpt><trkpt lat="59.1014833096" lon="30.4749827273"><ele>62.14</ele><time>2026-08-20T19:11:57Z</time></trkpt><trkpt lat="59.1014983971" lon="30.4750372097"><ele>62.14</ele><time>2026-08-20T19:12:02Z</time></trkpt><trkpt lat="59.1014885902" lon="30.4750527162"><ele>62.14</ele><time>2026-08-20T19:12:03Z</time></trkpt><trkpt lat="59.1014716588" lon="30.4750777781"><ele>62.14</ele><time>2026-08-20T19:12:09Z</time></trkpt><trkpt lat="59.1014782805" lon="30.4750766885"><ele>62.14</ele><time>2026-08-20T19:12:10Z</time></trkpt><trkpt lat="59.1015097965" lon="30.4751572385"><ele>62.14</ele><time>2026-08-20T19:12:17Z</time></trkpt><trkpt lat="59.1015437432" lon="30.4752108827"><ele>62.14</ele><time>2026-08-20T19:12:24Z</time></trkpt><trkpt lat="59.1015659552" lon="30.4752512835"><ele>62.14</ele><time>2026-08-20T19:12:31Z</time></trkpt><trkpt lat="59.1015763488" lon="30.4752583243"><ele>62.14</ele><time>2026-08-20T19:12:39Z</time></trkpt><trkpt lat="59.1015883349" lon="30.4752936959"><ele>62.14</ele><time>2026-08-20T19:12:44Z</time></trkpt><trkpt lat="59.1016032547" lon="30.4753095377"><ele>62.14</ele><time>2026-08-20T19:12:49Z</time></trkpt><trkpt lat="59.1016113013" lon="30.4753216915"><ele>62.14</ele><time>2026-08-20T19:12:55Z</time></trkpt><trkpt lat="59.1016052663" lon="30.4753385391"><ele>62.14</ele><time>2026-08-20T19:12:57Z</time></trkpt><trkpt lat="59.1016570665" lon="30.4753816221"><ele>62.14</ele><time>2026-08-20T19:13:03Z</time></trkpt><trkpt lat="59.1016720701" lon="30.4753961228"><ele>62.14</ele><time>2026-08-20T19:13:05Z</time></trkpt><trkpt lat="59.1016864032" lon="30.4754580650"><ele>62.14</ele><time>2026-08-20T19:13:11Z</time></trkpt><trkpt lat="59.1017240379" lon="30.4754783493"><ele>62.14</ele><time>2026-08-20T19:13:16Z</time></trkpt><trkpt lat="59.1017694678" lon="30.4755536187"><ele>62.14</ele><time>2026-08-20T19:13:23Z</time></trkpt><trkpt lat="59.1017735749" lon="30.4756049160"><ele>62.14</ele><time>2026-08-20T19:13:30Z</time></trkpt><trkpt lat="59.1017926857" lon="30.4756740667"><ele>62.14</ele><time>2026-08-20T19:13:36Z</time></trkpt><trkpt lat="59.1017977148" lon="30.4757014755"><ele>62.14</ele><time>2026-08-20T19:13:42Z</time></trkpt><trkpt lat="59.1017908417" lon="30.4756962787"><ele>62.14</ele><time>2026-08-20T19:13:51Z</time></trkpt><trkpt lat="59.1017909255" lon="30.4756906629"><ele>62.14</ele><time>2026-08-20T19:14:05Z</time></trkpt><trkpt lat="59.1017812025" lon="30.4756933451"><ele>62.14</ele><time>2026-08-20T19:14:19Z</time></trkpt><trkpt lat="59.1017749999" lon="30.4756838735"><ele>62.14</ele><time>2026-08-20T19:14:32Z</time></trkpt><trkpt lat="59.1017605830" lon="30.4757003020"><ele>62.14</ele><time>2026-08-20T19:14:41Z</time></trkpt><trkpt lat="59.1017496027" lon="30.4757225979"><ele>62.14</ele><time>2026-08-20T19:14:53Z</time></trkpt><trkpt lat="59.1017483454" lon="30.4757004697"><ele>62.14</ele><time>2026-08-20T19:15:03Z</time></trkpt><trkpt lat="59.1017521173" lon="30.4756899923"><ele>62.14</ele><time>2026-08-20T19:15:15Z</time></trkpt><trkpt lat="59.1017522849" lon="30.4756799340"><ele>62.14</ele><time>2026-08-20T19:15:26Z</time></trkpt><trkpt lat="59.1017648578" lon="30.4756621644"><ele>62.14</ele><time>2026-08-20T19:15:42Z</time></trkpt><trkpt lat="59.1017766763" lon="30.4756442271"><ele>62.14</ele><time>2026-08-20T19:16:00Z</time></trkpt><trkpt lat="59.1017743293" lon="30.4756430537"><ele>62.14</ele><time>2026-08-20T19:16:10Z</time></trkpt><trkpt lat="59.1017692164" lon="30.4756398685"><ele>62.14</ele><time>2026-08-20T19:16:27Z</time></trkpt><trkpt lat="59.1017634328" lon="30.4756547883"><ele>62.14</ele><time>2026-08-20T19:16:36Z</time></trkpt><trkpt lat="59.1017661989" lon="30.4756533634"><ele>62.14</ele><time>2026-08-20T19:16:49Z</time></trkpt><trkpt lat="59.1017602477" lon="30.4756643437"><ele>62.14</ele><time>2026-08-20T19:17:03Z</time></trkpt><trkpt lat="59.1017569788" lon="30.4756685346"><ele>62.14</ele><time>2026-08-20T19:17:13Z</time></trkpt><trkpt lat="59.1017487645" lon="30.4756795149"><ele>62.14</ele><time>2026-08-20T19:17:25Z</time></trkpt><trkpt lat="59.1017554700" lon="30.4756827839"><ele>62.14</ele><time>2026-08-20T19:17:40Z</time></trkpt><trkpt lat="59.1017574817" lon="30.4756827839"><ele>62.14</ele><time>2026-08-20T19:17:55Z</time></trkpt><trkpt lat="59.1017579008" lon="30.4756938480"><ele>62.14</ele><time>2026-08-20T19:18:10Z</time></trkpt><trkpt lat="59.1017561406" lon="30.4756975360"><ele>62.62</ele><time>2026-08-20T19:18:24Z</time></trkpt><trkpt lat="59.1017563920" lon="30.4756904114"><ele>62.62</ele><time>2026-08-20T19:18:34Z</time></trkpt><trkpt lat="59.1017428972" lon="30.4756769165"><ele>62.62</ele><time>2026-08-20T19:18:43Z</time></trkpt><trkpt lat="59.1017223615" lon="30.4756482504"><ele>62.62</ele><time>2026-08-20T19:18:50Z</time></trkpt><trkpt lat="59.1017238703" lon="30.4756676126"><ele>62.62</ele><time>2026-08-20T19:18:59Z</time></trkpt><trkpt lat="59.1017219424" lon="30.4756635055"><ele>62.62</ele><time>2026-08-20T19:19:11Z</time></trkpt><trkpt lat="59.1017213557" lon="30.4756658524"><ele>62.62</ele><time>2026-08-20T19:19:26Z</time></trkpt><trkpt lat="59.1017224453" lon="30.4756601527"><ele>62.62</ele><time>2026-08-20T19:19:38Z</time></trkpt><trkpt lat="59.1017143987" lon="30.4756826162"><ele>62.62</ele><time>2026-08-20T19:19:44Z</time></trkpt><trkpt lat="59.1016829666" lon="30.4757107794"><ele>62.62</ele><time>2026-08-20T19:19:50Z</time></trkpt><trkpt lat="59.1016585752" lon="30.4757226817"><ele>59.74</ele><time>2026-08-20T19:19:55Z</time></trkpt><trkpt lat="59.1016170848" lon="30.4757274594"><ele>62.14</ele><time>2026-08-20T19:20:02Z</time></trkpt><trkpt lat="59.1016067751" lon="30.4757139646"><ele>65.03</ele><time>2026-08-20T19:20:08Z</time></trkpt><trkpt lat="59.1015740018" lon="30.4757341649"><ele>65.03</ele><time>2026-08-20T19:20:13Z</time></trkpt><trkpt lat="59.1015248001" lon="30.4757241905"><ele>63.58</ele><time>2026-08-20T19:20:22Z</time></trkpt><trkpt lat="59.1014906857" lon="30.4757277947"><ele>63.10</ele><time>2026-08-20T19:20:28Z</time></trkpt><trkpt lat="59.1014387179" lon="30.4757486656"><ele>63.10</ele><time>2026-08-20T19:20:34Z</time></trkpt><trkpt lat="59.1014094651" lon="30.4757755715"><ele>63.10</ele><time>2026-08-20T19:20:38Z</time></trkpt><trkpt lat="59.1013860796" lon="30.4757804330"><ele>62.62</ele><time>2026-08-20T19:20:49Z</time></trkpt><trkpt lat="59.1013828106" lon="30.4757733084"><ele>62.62</ele><time>2026-08-20T19:21:03Z</time></trkpt><trkpt lat="59.1013758536" lon="30.4757629149"><ele>62.62</ele><time>2026-08-20T19:21:16Z</time></trkpt><trkpt lat="59.1013678908" lon="30.4757757392"><ele>62.62</ele><time>2026-08-20T19:21:27Z</time></trkpt><trkpt lat="59.1013157554" lon="30.4757981189"><ele>62.62</ele><time>2026-08-20T19:21:34Z</time></trkpt><trkpt lat="59.1012823116" lon="30.4758287128"><ele>62.62</ele><time>2026-08-20T19:21:40Z</time></trkpt><trkpt lat="59.1012234706" lon="30.4758316465"><ele>62.62</ele><time>2026-08-20T19:21:47Z</time></trkpt><trkpt lat="59.1011879314" lon="30.4758179840"><ele>62.62</ele><time>2026-08-20T19:21:53Z</time></trkpt><trkpt lat="59.1011685692" lon="30.4758079257"><ele>62.62</ele><time>2026-08-20T19:21:59Z</time></trkpt><trkpt lat="59.1011598520" lon="30.4758039024"><ele>62.62</ele><time>2026-08-20T19:22:10Z</time></trkpt><trkpt lat="59.1011591814" lon="30.4757955205"><ele>62.62</ele><time>2026-08-20T19:22:17Z</time></trkpt><trkpt lat="59.1011637915" lon="30.4757938441"><ele>61.66</ele><time>2026-08-20T19:22:32Z</time></trkpt><trkpt lat="59.1011701617" lon="30.4757973645"><ele>61.66</ele><time>2026-08-20T19:22:48Z</time></trkpt><trkpt lat="59.1011694074" lon="30.4757949337"><ele>61.66</ele><time>2026-08-20T19:23:03Z</time></trkpt><trkpt lat="59.1011770349" lon="30.4758025613"><ele>61.66</ele><time>2026-08-20T19:23:18Z</time></trkpt><trkpt lat="59.1011891887" lon="30.4757906590"><ele>61.66</ele><time>2026-08-20T19:23:33Z</time></trkpt><trkpt lat="59.1011891887" lon="30.4757803492"><ele>61.66</ele><time>2026-08-20T19:23:49Z</time></trkpt><trkpt lat="59.1011851653" lon="30.4757868033"><ele>61.66</ele><time>2026-08-20T19:23:58Z</time></trkpt><trkpt lat="59.1011809744" lon="30.4757940117"><ele>61.66</ele><time>2026-08-20T19:24:05Z</time></trkpt><trkpt lat="59.1011839919" lon="30.4758009687"><ele>61.66</ele><time>2026-08-20T19:24:14Z</time></trkpt><trkpt lat="59.1011789627" lon="30.4757400323"><ele>61.66</ele><time>2026-08-20T19:24:22Z</time></trkpt><trkpt lat="59.1011766996" lon="30.4757394455"><ele>61.66</ele><time>2026-08-20T19:24:23Z</time></trkpt><trkpt lat="59.1011770349" lon="30.4756765813"><ele>61.66</ele><time>2026-08-20T19:24:27Z</time></trkpt><trkpt lat="59.1011450160" lon="30.4756628349"><ele>61.66</ele><time>2026-08-20T19:24:33Z</time></trkpt><trkpt lat="59.1011321917" lon="30.4756276309"><ele>61.66</ele><time>2026-08-20T19:24:41Z</time></trkpt><trkpt lat="59.1011263244" lon="30.4756085202"><ele>61.66</ele><time>2026-08-20T19:24:48Z</time></trkpt><trkpt lat="59.1011202056" lon="30.4755836260"><ele>61.66</ele><time>2026-08-20T19:25:00Z</time></trkpt><trkpt lat="59.1010939702" lon="30.4755345918"><ele>61.18</ele><time>2026-08-20T19:25:07Z</time></trkpt><trkpt lat="59.1011005919" lon="30.4755016509"><ele>61.18</ele><time>2026-08-20T19:25:12Z</time></trkpt><trkpt lat="59.1011026036" lon="30.4754738230"><ele>61.18</ele><time>2026-08-20T19:25:20Z</time></trkpt><trkpt lat="59.1011014301" lon="30.4754501861"><ele>61.18</ele><time>2026-08-20T19:25:30Z</time></trkpt><trkpt lat="59.1011126619" lon="30.4753914289"><ele>61.18</ele><time>2026-08-20T19:25:35Z</time></trkpt><trkpt lat="59.1011075489" lon="30.4753560573"><ele>62.62</ele><time>2026-08-20T19:25:41Z</time></trkpt><trkpt lat="59.1010987479" lon="30.4753351863"><ele>62.62</ele><time>2026-08-20T19:25:45Z</time></trkpt><trkpt lat="59.1010906175" lon="30.4753106274"><ele>62.62</ele><time>2026-08-20T19:25:52Z</time></trkpt><trkpt lat="59.1010850854" lon="30.4752915166"><ele>63.10</ele><time>2026-08-20T19:26:04Z</time></trkpt><trkpt lat="59.1010673996" lon="30.4752439912"><ele>63.10</ele><time>2026-08-20T19:26:09Z</time></trkpt><trkpt lat="59.1010644659" lon="30.4752269760"><ele>63.10</ele><time>2026-08-20T19:26:17Z</time></trkpt><trkpt lat="59.1010455228" lon="30.4751771875"><ele>63.10</ele><time>2026-08-20T19:26:22Z</time></trkpt><trkpt lat="59.1010280885" lon="30.4751418997"><ele>63.10</ele><time>2026-08-20T19:26:25Z</time></trkpt><trkpt lat="59.1009734385" lon="30.4751099646"><ele>63.10</ele><time>2026-08-20T19:26:32Z</time></trkpt><trkpt lat="59.1009575967" lon="30.4750529677"><ele>63.10</ele><time>2026-08-20T19:26:37Z</time></trkpt><trkpt lat="59.1009593569" lon="30.4750460945"><ele>63.10</ele><time>2026-08-20T19:26:45Z</time></trkpt><trkpt lat="59.1009526514" lon="30.4750213679"><ele>63.10</ele><time>2026-08-20T19:26:51Z</time></trkpt><trkpt lat="59.1009515617" lon="30.4749709088"><ele>63.10</ele><time>2026-08-20T19:26:56Z</time></trkpt><trkpt lat="59.1009511426" lon="30.4749340285"><ele>63.10</ele><time>2026-08-20T19:27:01Z</time></trkpt><trkpt lat="59.1009504721" lon="30.4748865869"><ele>63.10</ele><time>2026-08-20T19:27:06Z</time></trkpt><trkpt lat="59.1009485442" lon="30.4748818092"><ele>63.10</ele><time>2026-08-20T19:27:12Z</time></trkpt><trkpt lat="59.1009477898" lon="30.4748336133"><ele>63.10</ele><time>2026-08-20T19:27:22Z</time></trkpt><trkpt lat="59.1009435151" lon="30.4747740179"><ele>63.10</ele><time>2026-08-20T19:27:29Z</time></trkpt><trkpt lat="59.1009492986" lon="30.4747403227"><ele>61.66</ele><time>2026-08-20T19:27:40Z</time></trkpt><trkpt lat="59.1009721812" lon="30.4746753629"><ele>61.66</ele><time>2026-08-20T19:27:46Z</time></trkpt><trkpt lat="59.1009786353" lon="30.4746494628"><ele>61.66</ele><time>2026-08-20T19:27:52Z</time></trkpt><trkpt lat="59.1009748634" lon="30.4746363033"><ele>61.66</ele><time>2026-08-20T19:27:55Z</time></trkpt><trkpt lat="59.1009524837" lon="30.4745920468"><ele>61.66</ele><time>2026-08-20T19:28:00Z</time></trkpt><trkpt lat="59.1009411681" lon="30.4745657276"><ele>61.66</ele><time>2026-08-20T19:28:08Z</time></trkpt><trkpt lat="59.1009316966" lon="30.4745435156"><ele>61.66</ele><time>2026-08-20T19:28:13Z</time></trkpt><trkpt lat="59.1009313613" lon="30.4745472036"><ele>61.66</ele><time>2026-08-20T19:28:18Z</time></trkpt><trkpt lat="59.1009272542" lon="30.4745514784"><ele>61.66</ele><time>2026-08-20T19:28:24Z</time></trkpt><trkpt lat="59.1009323671" lon="30.4745399952"><ele>61.66</ele><time>2026-08-20T19:28:31Z</time></trkpt><trkpt lat="59.1009361390" lon="30.4745066352"><ele>61.66</ele><time>2026-08-20T19:28:36Z</time></trkpt><trkpt lat="59.1009407490" lon="30.4745060485"><ele>61.18</ele><time>2026-08-20T19:28:42Z</time></trkpt><trkpt lat="59.1009576805" lon="30.4744912963"><ele>61.18</ele><time>2026-08-20T19:28:48Z</time></trkpt><trkpt lat="59.1009846702" lon="30.4744781367"><ele>61.18</ele><time>2026-08-20T19:28:56Z</time></trkpt><trkpt lat="59.1010130011" lon="30.4744814895"><ele>61.18</ele><time>2026-08-20T19:29:02Z</time></trkpt><trkpt lat="59.1010395717" lon="30.4744404182"><ele>61.18</ele><time>2026-08-20T19:29:08Z</time></trkpt><trkpt lat="59.1010493785" lon="30.4744409211"><ele>61.18</ele><time>2026-08-20T19:29:21Z</time></trkpt><trkpt lat="59.1010457743" lon="30.4744306952"><ele>61.18</ele><time>2026-08-20T19:29:37Z</time></trkpt><trkpt lat="59.1010570060" lon="30.4744318686"><ele>61.18</ele><time>2026-08-20T19:29:54Z</time></trkpt><trkpt lat="59.1010689922" lon="30.4744541645"><ele>61.18</ele><time>2026-08-20T19:30:12Z</time></trkpt><trkpt lat="59.1010741889" lon="30.4744446091"><ele>62.14</ele><time>2026-08-20T19:30:29Z</time></trkpt><trkpt lat="59.1010720097" lon="30.4744379036"><ele>61.66</ele><time>2026-08-20T19:30:43Z</time></trkpt><trkpt lat="59.1010679863" lon="30.4744045436"><ele>62.14</ele><time>2026-08-20T19:31:00Z</time></trkpt><trkpt lat="59.1010709200" lon="30.4744051304"><ele>62.14</ele><time>2026-08-20T19:31:11Z</time></trkpt><trkpt lat="59.1010837443" lon="30.4744104110"><ele>62.14</ele><time>2026-08-20T19:31:20Z</time></trkpt><trkpt lat="59.1010881029" lon="30.4744081479"><ele>62.14</ele><time>2026-08-20T19:31:29Z</time></trkpt><trkpt lat="59.1010753624" lon="30.4743875284"><ele>62.14</ele><time>2026-08-20T19:31:40Z</time></trkpt><trkpt lat="59.1010578442" lon="30.4743299447"><ele>62.14</ele><time>2026-08-20T19:31:47Z</time></trkpt><trkpt lat="59.1010479536" lon="30.4742419347"><ele>62.14</ele><time>2026-08-20T19:31:55Z</time></trkpt><trkpt lat="59.1010485403" lon="30.4741722811"><ele>61.66</ele><time>2026-08-20T19:32:01Z</time></trkpt><trkpt lat="59.1010298487" lon="30.4741294496"><ele>61.66</ele><time>2026-08-20T19:32:12Z</time></trkpt><trkpt lat="59.1010093130" lon="30.4740626458"><ele>61.66</ele><time>2026-08-20T19:32:18Z</time></trkpt><trkpt lat="59.1009935550" lon="30.4739649128"><ele>60.70</ele><time>2026-08-20T19:32:26Z</time></trkpt><trkpt lat="59.1009938065" lon="30.4738969356"><ele>60.70</ele><time>2026-08-20T19:32:32Z</time></trkpt><trkpt lat="59.1009896994" lon="30.4738178104"><ele>60.70</ele><time>2026-08-20T19:32:38Z</time></trkpt><trkpt lat="59.1009762883" lon="30.4737388529"><ele>60.70</ele><time>2026-08-20T19:32:48Z</time></trkpt><trkpt lat="59.1009970754" lon="30.4737165570"><ele>60.22</ele><time>2026-08-20T19:32:54Z</time></trkpt><trkpt lat="59.1010623705" lon="30.4736522678"><ele>60.22</ele><time>2026-08-20T19:33:01Z</time></trkpt><trkpt lat="59.1010958143" lon="30.4735857155"><ele>60.22</ele><time>2026-08-20T19:33:07Z</time></trkpt><trkpt lat="59.1011148412" lon="30.4735651799"><ele>60.22</ele><time>2026-08-20T19:33:15Z</time></trkpt><trkpt lat="59.1011223011" lon="30.4735598154"><ele>60.22</ele><time>2026-08-20T19:33:21Z</time></trkpt><trkpt lat="59.1011290066" lon="30.4735519364"><ele>61.18</ele><time>2026-08-20T19:33:33Z</time></trkpt><trkpt lat="59.1011284199" lon="30.4735381901"><ele>61.66</ele><time>2026-08-20T19:33:44Z</time></trkpt><trkpt lat="59.1011342872" lon="30.4735279642"><ele>61.18</ele><time>2026-08-20T19:34:00Z</time></trkpt><trkpt lat="59.1011398192" lon="30.4735163972"><ele>61.18</ele><time>2026-08-20T19:34:09Z</time></trkpt><trkpt lat="59.1011444293" lon="30.4735116195"><ele>61.18</ele><time>2026-08-20T19:34:22Z</time></trkpt><trkpt lat="59.1011495423" lon="30.4735089373"><ele>61.18</ele><time>2026-08-20T19:34:33Z</time></trkpt><trkpt lat="59.1011492908" lon="30.4735052492"><ele>61.18</ele><time>2026-08-20T19:34:41Z</time></trkpt><trkpt lat="59.1011331137" lon="30.4734686203"><ele>61.18</ele><time>2026-08-20T19:34:47Z</time></trkpt><trkpt lat="59.1011426691" lon="30.4733920097"><ele>61.18</ele><time>2026-08-20T19:34:54Z</time></trkpt><trkpt lat="59.1011369694" lon="30.4733728152"><ele>61.18</ele><time>2026-08-20T19:35:07Z</time></trkpt><trkpt lat="59.1011362989" lon="30.4733612482"><ele>61.18</ele><time>2026-08-20T19:35:25Z</time></trkpt><trkpt lat="59.1011293419" lon="30.4733457416"><ele>60.70</ele><time>2026-08-20T19:35:41Z</time></trkpt><trkpt lat="59.1011230554" lon="30.4733277205"><ele>60.70</ele><time>2026-08-20T19:35:51Z</time></trkpt><trkpt lat="59.1011063755" lon="30.4733025748"><ele>60.70</ele><time>2026-08-20T19:36:00Z</time></trkpt><trkpt lat="59.1010585986" lon="30.4732728191"><ele>60.70</ele><time>2026-08-20T19:36:05Z</time></trkpt><trkpt lat="59.1009911243" lon="30.4733078554"><ele>60.70</ele><time>2026-08-20T19:36:11Z</time></trkpt><trkpt lat="59.1009626258" lon="30.4732656945"><ele>60.70</ele><time>2026-08-20T19:36:17Z</time></trkpt><trkpt lat="59.1009368096" lon="30.4732368607"><ele>60.70</ele><time>2026-08-20T19:36:23Z</time></trkpt><trkpt lat="59.1009179503" lon="30.4731941968"><ele>60.70</ele><time>2026-08-20T19:36:31Z</time></trkpt><trkpt lat="59.1009012703" lon="30.4731865693"><ele>60.70</ele><time>2026-08-20T19:36:37Z</time></trkpt><trkpt lat="59.1009040363" lon="30.4731896706"><ele>60.70</ele><time>2026-08-20T19:36:42Z</time></trkpt><trkpt lat="59.1008690838" lon="30.4731946997"><ele>60.70</ele><time>2026-08-20T19:36:46Z</time></trkpt><trkpt lat="59.1007996816" lon="30.4732213542"><ele>60.70</ele><time>2026-08-20T19:36:53Z</time></trkpt><trkpt lat="59.1007203888" lon="30.4732315801"><ele>60.70</ele><time>2026-08-20T19:37:01Z</time></trkpt><trkpt lat="59.1006974224" lon="30.4732439015"><ele>60.22</ele><time>2026-08-20T19:37:08Z</time></trkpt><trkpt lat="59.1006573569" lon="30.4732641857"><ele>60.22</ele><time>2026-08-20T19:37:15Z</time></trkpt><trkpt lat="59.1006038804" lon="30.4732565582"><ele>60.22</ele><time>2026-08-20T19:37:22Z</time></trkpt><trkpt lat="59.1005960852" lon="30.4732706398"><ele>60.22</ele><time>2026-08-20T19:37:33Z</time></trkpt><trkpt lat="59.1005994380" lon="30.4732524510"><ele>60.22</ele><time>2026-08-20T19:37:46Z</time></trkpt><trkpt lat="59.1005964205" lon="30.4732535407"><ele>60.22</ele><time>2026-08-20T19:37:54Z</time></trkpt><trkpt lat="59.1005907208" lon="30.4732296523"><ele>60.22</ele><time>2026-08-20T19:38:07Z</time></trkpt><trkpt lat="59.1005939897" lon="30.4732412193"><ele>60.22</ele><time>2026-08-20T19:38:18Z</time></trkpt><trkpt lat="59.1005956661" lon="30.4732442368"><ele>60.22</ele><time>2026-08-20T19:38:26Z</time></trkpt><trkpt lat="59.1006090771" lon="30.4732479248"><ele>60.22</ele><time>2026-08-20T19:38:41Z</time></trkpt><trkpt lat="59.1006155312" lon="30.4732661974"><ele>60.22</ele><time>2026-08-20T19:38:54Z</time></trkpt><trkpt lat="59.1006439459" lon="30.4732928518"><ele>60.22</ele><time>2026-08-20T19:38:57Z</time></trkpt><trkpt lat="59.1007050499" lon="30.4733371083"><ele>60.22</ele><time>2026-08-20T19:39:04Z</time></trkpt><trkpt lat="59.1007479653" lon="30.4733207636"><ele>60.22</ele><time>2026-08-20T19:39:10Z</time></trkpt><trkpt lat="59.1007727757" lon="30.4733438976"><ele>60.22</ele><time>2026-08-20T19:39:15Z</time></trkpt><trkpt lat="59.1008077282" lon="30.4733790178"><ele>60.22</ele><time>2026-08-20T19:39:20Z</time></trkpt><trkpt lat="59.1008280963" lon="30.4734062590"><ele>60.22</ele><time>2026-08-20T19:39:25Z</time></trkpt><trkpt lat="59.1008539964" lon="30.4734065942"><ele>60.22</ele><time>2026-08-20T19:39:33Z</time></trkpt><trkpt lat="59.1008586064" lon="30.4733903334"><ele>60.22</ele><time>2026-08-20T19:39:42Z</time></trkpt><trkpt lat="59.1009104904" lon="30.4734024033"><ele>60.22</ele><time>2026-08-20T19:39:48Z</time></trkpt><trkpt lat="59.1009684093" lon="30.4734055884"><ele>60.22</ele><time>2026-08-20T19:39:54Z</time></trkpt><trkpt lat="59.1010033619" lon="30.4733766709"><ele>59.74</ele><time>2026-08-20T19:40:02Z</time></trkpt><trkpt lat="59.1010177787" lon="30.4733816162"><ele>59.74</ele><time>2026-08-20T19:40:14Z</time></trkpt><trkpt lat="59.1010443494" lon="30.4733663611"><ele>59.74</ele><time>2026-08-20T19:40:22Z</time></trkpt><trkpt lat="59.1011139192" lon="30.4733470827"><ele>59.74</ele><time>2026-08-20T19:40:29Z</time></trkpt><trkpt lat="59.1011435073" lon="30.4733315762"><ele>59.74</ele><time>2026-08-20T19:40:36Z</time></trkpt><trkpt lat="59.1011572536" lon="30.4733105376"><ele>59.74</ele><time>2026-08-20T19:40:53Z</time></trkpt><trkpt lat="59.1011530627" lon="30.4733034130"><ele>59.74</ele><time>2026-08-20T19:41:04Z</time></trkpt><trkpt lat="59.1011510510" lon="30.4733003955"><ele>59.74</ele><time>2026-08-20T19:41:13Z</time></trkpt><trkpt lat="59.1011510510" lon="30.4732883256"><ele>59.74</ele><time>2026-08-20T19:41:20Z</time></trkpt><trkpt lat="59.1011368856" lon="30.4732080270"><ele>59.74</ele><time>2026-08-20T19:41:26Z</time></trkpt><trkpt lat="59.1011300124" lon="30.4730738327"><ele>59.74</ele><time>2026-08-20T19:41:32Z</time></trkpt><trkpt lat="59.1011322755" lon="30.4730635229"><ele>59.74</ele><time>2026-08-20T19:41:33Z</time></trkpt><trkpt lat="59.1011236422" lon="30.4729733337"><ele>59.74</ele><time>2026-08-20T19:41:37Z</time></trkpt><trkpt lat="59.1011031903" lon="30.4728821386"><ele>59.74</ele><time>2026-08-20T19:41:44Z</time></trkpt><trkpt lat="59.1010741051" lon="30.4728294164"><ele>59.74</ele><time>2026-08-20T19:41:49Z</time></trkpt><trkpt lat="59.1010565870" lon="30.4728080425"><ele>59.74</ele><time>2026-08-20T19:41:55Z</time></trkpt><trkpt lat="59.1010420024" lon="30.4727487825"><ele>59.74</ele><time>2026-08-20T19:42:06Z</time></trkpt><trkpt lat="59.1010327823" lon="30.4727013409"><ele>59.74</ele><time>2026-08-20T19:42:15Z</time></trkpt><trkpt lat="59.1010250710" lon="30.4726425000"><ele>59.74</ele><time>2026-08-20T19:42:21Z</time></trkpt><trkpt lat="59.1010284238" lon="30.4725973215"><ele>59.74</ele><time>2026-08-20T19:42:26Z</time></trkpt><trkpt lat="59.1010308545" lon="30.4725927114"><ele>59.74</ele><time>2026-08-20T19:42:31Z</time></trkpt><trkpt lat="59.1010285914" lon="30.4725824017"><ele>59.74</ele><time>2026-08-20T19:42:36Z</time></trkpt><trkpt lat="59.1010294296" lon="30.4724885244"><ele>59.74</ele><time>2026-08-20T19:42:41Z</time></trkpt><trkpt lat="59.1010318603" lon="30.4724807292"><ele>59.74</ele><time>2026-08-20T19:42:57Z</time></trkpt><trkpt lat="59.1010536533" lon="30.4724288452"><ele>59.74</ele><time>2026-08-20T19:43:03Z</time></trkpt><trkpt lat="59.1010441817" lon="30.4723805655"><ele>59.74</ele><time>2026-08-20T19:43:06Z</time></trkpt><trkpt lat="59.1010206286" lon="30.4723230656"><ele>59.74</ele><time>2026-08-20T19:43:12Z</time></trkpt><trkpt lat="59.1010169405" lon="30.4722944833"><ele>60.22</ele><time>2026-08-20T19:43:21Z</time></trkpt><trkpt lat="59.1009981651" lon="30.4722918011"><ele>60.22</ele><time>2026-08-20T19:43:26Z</time></trkpt><trkpt lat="59.1009564232" lon="30.4722644761"><ele>60.22</ele><time>2026-08-20T19:43:31Z</time></trkpt><trkpt lat="59.1009116638" lon="30.4721721914"><ele>60.22</ele><time>2026-08-20T19:43:37Z</time></trkpt><trkpt lat="59.1008970793" lon="30.4720967542"><ele>60.22</ele><time>2026-08-20T19:43:42Z</time></trkpt><trkpt lat="59.1008891165" lon="30.4720610473"><ele>60.22</ele><time>2026-08-20T19:43:49Z</time></trkpt><trkpt lat="59.1008918826" lon="30.4720515758"><ele>60.22</ele><time>2026-08-20T19:43:52Z</time></trkpt><trkpt lat="59.1009089816" lon="30.4719682597"><ele>60.22</ele><time>2026-08-20T19:44:01Z</time></trkpt><trkpt lat="59.1009248234" lon="30.4719325528"><ele>60.22</ele><time>2026-08-20T19:44:04Z</time></trkpt><trkpt lat="59.1009337921" lon="30.4718655813"><ele>60.22</ele><time>2026-08-20T19:44:10Z</time></trkpt><trkpt lat="59.1009383183" lon="30.4718638211"><ele>59.74</ele><time>2026-08-20T19:44:17Z</time></trkpt><trkpt lat="59.1009777132" lon="30.4718327243"><ele>59.74</ele><time>2026-08-20T19:44:25Z</time></trkpt><trkpt lat="59.1009991709" lon="30.4718106799"><ele>59.74</ele><time>2026-08-20T19:44:34Z</time></trkpt><trkpt lat="59.1010026075" lon="30.4717628192"><ele>59.74</ele><time>2026-08-20T19:44:40Z</time></trkpt><trkpt lat="59.1010037810" lon="30.4717660043"><ele>59.74</ele><time>2026-08-20T19:44:45Z</time></trkpt><trkpt lat="59.1010040324" lon="30.4717826005"><ele>59.74</ele><time>2026-08-20T19:44:49Z</time></trkpt><trkpt lat="59.1010233108" lon="30.4717781581"><ele>59.74</ele><time>2026-08-20T19:44:52Z</time></trkpt><trkpt lat="59.1010466125" lon="30.4716914892"><ele>59.74</ele><time>2026-08-20T19:44:58Z</time></trkpt><trkpt lat="59.1010680702" lon="30.4716261104"><ele>59.74</ele><time>2026-08-20T19:45:05Z</time></trkpt><trkpt lat="59.1010712553" lon="30.4716287926"><ele>59.74</ele><time>2026-08-20T19:45:14Z</time></trkpt><trkpt lat="59.1010808107" lon="30.4716317263"><ele>59.74</ele><time>2026-08-20T19:45:23Z</time></trkpt><trkpt lat="59.1010887735" lon="30.4716622364"><ele>59.74</ele><time>2026-08-20T19:45:29Z</time></trkpt><trkpt lat="59.1010959819" lon="30.4716794193"><ele>59.74</ele><time>2026-08-20T19:45:31Z</time></trkpt><trkpt lat="59.1011338681" lon="30.4716968536"><ele>59.74</ele><time>2026-08-20T19:45:37Z</time></trkpt><trkpt lat="59.1011389811" lon="30.4717019666"><ele>60.22</ele><time>2026-08-20T19:45:46Z</time></trkpt><trkpt lat="59.1011820640" lon="30.4717091750"><ele>60.22</ele><time>2026-08-20T19:45:53Z</time></trkpt><trkpt lat="59.1012135800" lon="30.4717084207"><ele>60.22</ele><time>2026-08-20T19:45:57Z</time></trkpt><trkpt lat="59.1012382228" lon="30.4716816824"><ele>60.22</ele><time>2026-08-20T19:46:02Z</time></trkpt><trkpt lat="59.1012404021" lon="30.4716670979"><ele>60.22</ele><time>2026-08-20T19:46:16Z</time></trkpt><trkpt lat="59.1012429167" lon="30.4716447182"><ele>60.22</ele><time>2026-08-20T19:46:22Z</time></trkpt><trkpt lat="59.1012647096" lon="30.4716224223"><ele>60.22</ele><time>2026-08-20T19:46:28Z</time></trkpt><trkpt lat="59.1012712475" lon="30.4715982825"><ele>60.22</ele><time>2026-08-20T19:46:31Z</time></trkpt><trkpt lat="59.1012729239" lon="30.4715697840"><ele>60.22</ele><time>2026-08-20T19:46:34Z</time></trkpt><trkpt lat="59.1013080440" lon="30.4715244379"><ele>60.22</ele><time>2026-08-20T19:46:39Z</time></trkpt><trkpt lat="59.1013108939" lon="30.4715206660"><ele>60.22</ele><time>2026-08-20T19:46:41Z</time></trkpt><trkpt lat="59.1013166774" lon="30.4715085961"><ele>60.22</ele><time>2026-08-20T19:46:49Z</time></trkpt><trkpt lat="59.1012963094" lon="30.4714710452"><ele>60.22</ele><time>2026-08-20T19:46:55Z</time></trkpt><trkpt lat="59.1012916155" lon="30.4714401159"><ele>59.74</ele><time>2026-08-20T19:46:59Z</time></trkpt><trkpt lat="59.1012837365" lon="30.4714148864"><ele>59.74</ele><time>2026-08-20T19:47:06Z</time></trkpt><trkpt lat="59.1012619436" lon="30.4713966139"><ele>59.74</ele><time>2026-08-20T19:47:11Z</time></trkpt><trkpt lat="59.1012529749" lon="30.4713914171"><ele>59.74</ele><time>2026-08-20T19:47:20Z</time></trkpt><trkpt lat="59.1012440063" lon="30.4713889863"><ele>59.74</ele><time>2026-08-20T19:47:21Z</time></trkpt><trkpt lat="59.1012375522" lon="30.4713679478"><ele>59.74</ele><time>2026-08-20T19:47:26Z</time></trkpt><trkpt lat="59.1012310982" lon="30.4713586438"><ele>59.74</ele><time>2026-08-20T19:47:27Z</time></trkpt><trkpt lat="59.1012114845" lon="30.4712970369"><ele>59.74</ele><time>2026-08-20T19:47:33Z</time></trkpt><trkpt lat="59.1012060363" lon="30.4712873977"><ele>59.74</ele><time>2026-08-20T19:47:43Z</time></trkpt><trkpt lat="59.1011602711" lon="30.4712606594"><ele>59.74</ele><time>2026-08-20T19:47:52Z</time></trkpt><trkpt lat="59.1011577565" lon="30.4712412134"><ele>59.74</ele><time>2026-08-20T19:47:54Z</time></trkpt><trkpt lat="59.1011435073" lon="30.4711742420"><ele>59.74</ele><time>2026-08-20T19:47:58Z</time></trkpt><trkpt lat="59.1011110693" lon="30.4711099528"><ele>59.74</ele><time>2026-08-20T19:48:04Z</time></trkpt><trkpt lat="59.1011161823" lon="30.4710997269"><ele>60.22</ele><time>2026-08-20T19:48:11Z</time></trkpt><trkpt lat="59.1011163499" lon="30.4710739106"><ele>60.22</ele><time>2026-08-20T19:48:13Z</time></trkpt><trkpt lat="59.1011365503" lon="30.4710315820"><ele>60.22</ele><time>2026-08-20T19:48:18Z</time></trkpt><trkpt lat="59.1011453513" lon="30.4709664546"><ele>60.22</ele><time>2026-08-20T19:48:24Z</time></trkpt><trkpt lat="59.1011433396" lon="30.4709658679"><ele>60.22</ele><time>2026-08-20T19:48:25Z</time></trkpt><trkpt lat="59.1011274140" lon="30.4709212761"><ele>60.22</ele><time>2026-08-20T19:48:32Z</time></trkpt><trkpt lat="59.1010886896" lon="30.4708880000"><ele>60.22</ele><time>2026-08-20T19:48:40Z</time></trkpt><trkpt lat="59.1010838281" lon="30.4708688054"><ele>60.22</ele><time>2026-08-20T19:48:41Z</time></trkpt><trkpt lat="59.1010685731" lon="30.4708591662"><ele>60.22</ele><time>2026-08-20T19:48:47Z</time></trkpt><trkpt lat="59.1010714229" lon="30.4708704818"><ele>60.22</ele><time>2026-08-20T19:48:56Z</time></trkpt><trkpt lat="59.1010697465" lon="30.4708791152"><ele>60.22</ele><time>2026-08-20T19:49:09Z</time></trkpt><trkpt lat="59.1010757815" lon="30.4708832223"><ele>60.22</ele><time>2026-08-20T19:49:11Z</time></trkpt><trkpt lat="59.1010831576" lon="30.4708584119"><ele>60.22</ele><time>2026-08-20T19:49:18Z</time></trkpt><trkpt lat="59.1010917909" lon="30.4708134849"><ele>60.22</ele><time>2026-08-20T19:49:21Z</time></trkpt><trkpt lat="59.1010813974" lon="30.4707635287"><ele>60.22</ele><time>2026-08-20T19:49:25Z</time></trkpt><trkpt lat="59.1010710876" lon="30.4706888460"><ele>60.22</ele><time>2026-08-20T19:49:31Z</time></trkpt><trkpt lat="59.1010419186" lon="30.4706495348"><ele>60.22</ele><time>2026-08-20T19:49:38Z</time></trkpt><trkpt lat="59.1010258254" lon="30.4706058651"><ele>60.22</ele><time>2026-08-20T19:49:44Z</time></trkpt><trkpt lat="59.1010054573" lon="30.4706051946"><ele>60.22</ele><time>2026-08-20T19:49:50Z</time></trkpt><trkpt lat="59.1010073852" lon="30.4706095532"><ele>60.22</ele><time>2026-08-20T19:50:01Z</time></trkpt><trkpt lat="59.1009786353" lon="30.4706001654"><ele>60.22</ele><time>2026-08-20T19:50:07Z</time></trkpt><trkpt lat="59.1009791382" lon="30.4705626983"><ele>59.74</ele><time>2026-08-20T19:50:13Z</time></trkpt><trkpt lat="59.1009715945" lon="30.4705501255"><ele>59.74</ele><time>2026-08-20T19:50:18Z</time></trkpt><trkpt lat="59.1009704210" lon="30.4705507960"><ele>59.74</ele><time>2026-08-20T19:50:20Z</time></trkpt><trkpt lat="59.1009483766" lon="30.4705133289"><ele>59.74</ele><time>2026-08-20T19:50:26Z</time></trkpt><trkpt lat="59.1009462811" lon="30.4704946373"><ele>59.74</ele><time>2026-08-20T19:50:29Z</time></trkpt><trkpt lat="59.1009278409" lon="30.4704752751"><ele>59.74</ele><time>2026-08-20T19:50:33Z</time></trkpt><trkpt lat="59.1009000968" lon="30.4704614449"><ele>59.74</ele><time>2026-08-20T19:50:39Z</time></trkpt><trkpt lat="59.1008897871" lon="30.4704399873"><ele>59.74</ele><time>2026-08-20T19:50:48Z</time></trkpt><trkpt lat="59.1008682456" lon="30.4704449326"><ele>59.74</ele><time>2026-08-20T19:50:54Z</time></trkpt><trkpt lat="59.1008633841" lon="30.4704083875"><ele>59.74</ele><time>2026-08-20T19:50:59Z</time></trkpt><trkpt lat="59.1008695029" lon="30.4703346267"><ele>59.74</ele><time>2026-08-20T19:51:04Z</time></trkpt><trkpt lat="59.1008685809" lon="30.4703029431"><ele>59.74</ele><time>2026-08-20T19:51:09Z</time></trkpt><trkpt lat="59.1008664854" lon="30.4702654760"><ele>59.74</ele><time>2026-08-20T19:51:16Z</time></trkpt><trkpt lat="59.1008552536" lon="30.4702275898"><ele>59.74</ele><time>2026-08-20T19:51:24Z</time></trkpt><trkpt lat="59.1008545831" lon="30.4701819085"><ele>59.74</ele><time>2026-08-20T19:51:30Z</time></trkpt><trkpt lat="59.1008343827" lon="30.4701504763"><ele>59.26</ele><time>2026-08-20T19:51:37Z</time></trkpt><trkpt lat="59.1008321196" lon="30.4701303598"><ele>59.26</ele><time>2026-08-20T19:51:45Z</time></trkpt><trkpt lat="59.1007893719" lon="30.4700616281"><ele>59.26</ele><time>2026-08-20T19:51:51Z</time></trkpt><trkpt lat="59.1007952392" lon="30.4700431880"><ele>59.26</ele><time>2026-08-20T19:51:59Z</time></trkpt><trkpt lat="59.1007591970" lon="30.4699375760"><ele>59.26</ele><time>2026-08-20T19:52:06Z</time></trkpt><trkpt lat="59.1007558443" lon="30.4699208960"><ele>59.26</ele><time>2026-08-20T19:52:08Z</time></trkpt><trkpt lat="59.1007938143" lon="30.4698664136"><ele>59.26</ele><time>2026-08-20T19:52:15Z</time></trkpt><trkpt lat="59.1007934790" lon="30.4698550981"><ele>59.26</ele><time>2026-08-20T19:52:23Z</time></trkpt><trkpt lat="59.1008061357" lon="30.4698704369"><ele>59.26</ele><time>2026-08-20T19:52:29Z</time></trkpt><trkpt lat="59.1008150205" lon="30.4698439501"><ele>59.26</ele><time>2026-08-20T19:52:34Z</time></trkpt><trkpt lat="59.1008244921" lon="30.4698094167"><ele>59.26</ele><time>2026-08-20T19:52:40Z</time></trkpt><trkpt lat="59.1008317005" lon="30.4697867017"><ele>59.26</ele><time>2026-08-20T19:52:44Z</time></trkpt><trkpt lat="59.1008421779" lon="30.4697373323"><ele>59.26</ele><time>2026-08-20T19:52:50Z</time></trkpt><trkpt lat="59.1008519009" lon="30.4697514977"><ele>59.26</ele><time>2026-08-20T19:53:04Z</time></trkpt><trkpt lat="59.1008585226" lon="30.4697238375"><ele>58.78</ele><time>2026-08-20T19:53:17Z</time></trkpt><trkpt lat="59.1008576844" lon="30.4697224963"><ele>58.78</ele><time>2026-08-20T19:53:19Z</time></trkpt><trkpt lat="59.1008768789" lon="30.4697058164"><ele>58.78</ele><time>2026-08-20T19:53:26Z</time></trkpt><trkpt lat="59.1008917149" lon="30.4696903937"><ele>58.78</ele><time>2026-08-20T19:53:33Z</time></trkpt><trkpt lat="59.1009015217" lon="30.4696085863"><ele>58.78</ele><time>2026-08-20T19:53:41Z</time></trkpt><trkpt lat="59.1009112448" lon="30.4695695266"><ele>58.78</ele><time>2026-08-20T19:53:56Z</time></trkpt><trkpt lat="59.1009200457" lon="30.4695288744"><ele>58.78</ele><time>2026-08-20T19:54:12Z</time></trkpt><trkpt lat="59.1009237338" lon="30.4695306346"><ele>58.78</ele><time>2026-08-20T19:54:22Z</time></trkpt><trkpt lat="59.1009249073" lon="30.4695419502"><ele>58.78</ele><time>2026-08-20T19:54:36Z</time></trkpt><trkpt lat="59.1009176150" lon="30.4695369210"><ele>58.30</ele><time>2026-08-20T19:54:47Z</time></trkpt><trkpt lat="59.1009187885" lon="30.4695353284"><ele>58.30</ele><time>2026-08-20T19:54:56Z</time></trkpt><trkpt lat="59.1009163577" lon="30.4695319757"><ele>58.30</ele><time>2026-08-20T19:55:04Z</time></trkpt><trkpt lat="59.1009155195" lon="30.4695310537"><ele>58.30</ele><time>2026-08-20T19:55:09Z</time></trkpt><trkpt lat="59.1008833330" lon="30.4694836121"><ele>58.30</ele><time>2026-08-20T19:55:15Z</time></trkpt><trkpt lat="59.1008777171" lon="30.4694706202"><ele>58.30</ele><time>2026-08-20T19:55:25Z</time></trkpt><trkpt lat="59.1008819919" lon="30.4694613162"><ele>58.30</ele><time>2026-08-20T19:55:40Z</time></trkpt><trkpt lat="59.1008633841" lon="30.4694417026"><ele>58.30</ele><time>2026-08-20T19:55:45Z</time></trkpt><trkpt lat="59.1008591093" lon="30.4694375116"><ele>58.30</ele><time>2026-08-20T19:55:46Z</time></trkpt><trkpt lat="59.1008335445" lon="30.4694011342"><ele>58.30</ele><time>2026-08-20T19:55:52Z</time></trkpt><trkpt lat="59.1008161101" lon="30.4693769943"><ele>58.30</ele><time>2026-08-20T19:55:59Z</time></trkpt><trkpt lat="59.1008186247" lon="30.4693753179"><ele>57.82</ele><time>2026-08-20T19:56:07Z</time></trkpt><trkpt lat="59.1008125059" lon="30.4693598952"><ele>57.82</ele><time>2026-08-20T19:56:14Z</time></trkpt><trkpt lat="59.1008056328" lon="30.4693357553"><ele>57.82</ele><time>2026-08-20T19:56:26Z</time></trkpt><trkpt lat="59.1007927246" lon="30.4693199135"><ele>57.82</ele><time>2026-08-20T19:56:42Z</time></trkpt><trkpt lat="59.1007916350" lon="30.4693132080"><ele>57.82</ele><time>2026-08-20T19:56:56Z</time></trkpt><trkpt lat="59.1007912997" lon="30.4693029821"><ele>57.82</ele><time>2026-08-20T19:57:07Z</time></trkpt><trkpt lat="59.1007876117" lon="30.4692925885"><ele>57.82</ele><time>2026-08-20T19:57:21Z</time></trkpt><trkpt lat="59.1007918026" lon="30.4692869727"><ele>57.82</ele><time>2026-08-20T19:57:42Z</time></trkpt><trkpt lat="59.1007919703" lon="30.4692835361"><ele>57.34</ele><time>2026-08-20T19:57:52Z</time></trkpt><trkpt lat="59.1007866058" lon="30.4692645930"><ele>57.34</ele><time>2026-08-20T19:57:59Z</time></trkpt><trkpt lat="59.1007911321" lon="30.4692548700"><ele>57.34</ele><time>2026-08-20T19:58:06Z</time></trkpt><trkpt lat="59.1007979214" lon="30.4691935983"><ele>57.34</ele><time>2026-08-20T19:58:16Z</time></trkpt><trkpt lat="59.1007948201" lon="30.4691466596"><ele>57.34</ele><time>2026-08-20T19:58:21Z</time></trkpt><trkpt lat="59.1007993463" lon="30.4690995533"><ele>57.34</ele><time>2026-08-20T19:58:29Z</time></trkpt><trkpt lat="59.1008104105" lon="30.4690532852"><ele>57.34</ele><time>2026-08-20T19:58:36Z</time></trkpt><trkpt lat="59.1008011904" lon="30.4689899180"><ele>57.34</ele><time>2026-08-20T19:58:44Z</time></trkpt><trkpt lat="59.1007867735" lon="30.4689439852"><ele>57.34</ele><time>2026-08-20T19:58:50Z</time></trkpt><trkpt lat="59.1007844266" lon="30.4688422289"><ele>57.34</ele><time>2026-08-20T19:58:56Z</time></trkpt><trkpt lat="59.1007653996" lon="30.4687733296"><ele>57.34</ele><time>2026-08-20T19:59:02Z</time></trkpt><trkpt lat="59.1007595323" lon="30.4687403888"><ele>57.34</ele><time>2026-08-20T19:59:08Z</time></trkpt><trkpt lat="59.1007526591" lon="30.4687187634"><ele>57.34</ele><time>2026-08-20T19:59:16Z</time></trkpt><trkpt lat="59.1007506475" lon="30.4686756805"><ele>57.34</ele><time>2026-08-20T19:59:24Z</time></trkpt><trkpt lat="59.1007498931" lon="30.4686316755"><ele>57.34</ele><time>2026-08-20T19:59:30Z</time></trkpt><trkpt lat="59.1007619631" lon="30.4686011653"><ele>57.34</ele><time>2026-08-20T19:59:36Z</time></trkpt><trkpt lat="59.1007564310" lon="30.4685262311"><ele>57.34</ele><time>2026-08-20T19:59:43Z</time></trkpt><trkpt lat="59.1007483844" lon="30.4684872553"><ele>57.34</ele><time>2026-08-20T19:59:50Z</time></trkpt><trkpt lat="59.1007410921" lon="30.4684409034"><ele>57.34</ele><time>2026-08-20T19:59:57Z</time></trkpt><trkpt lat="59.1007517371" lon="30.4684007540"><ele>57.34</ele><time>2026-08-20T20:00:03Z</time></trkpt><trkpt lat="59.1007531621" lon="30.4683753569"><ele>57.34</ele><time>2026-08-20T20:00:11Z</time></trkpt><trkpt lat="59.1007532459" lon="30.4683182761"><ele>57.34</ele><time>2026-08-20T20:00:19Z</time></trkpt><trkpt lat="59.1007612087" lon="30.4682623688"><ele>57.34</ele><time>2026-08-20T20:00:25Z</time></trkpt><trkpt lat="59.1007624660" lon="30.4682163522"><ele>57.34</ele><time>2026-08-20T20:00:31Z</time></trkpt><trkpt lat="59.1007650644" lon="30.4681170266"><ele>57.34</ele><time>2026-08-20T20:00:39Z</time></trkpt><trkpt lat="59.1007666569" lon="30.4680280946"><ele>57.34</ele><time>2026-08-20T20:00:46Z</time></trkpt><trkpt lat="59.1007721890" lon="30.4679544177"><ele>57.34</ele><time>2026-08-20T20:00:52Z</time></trkpt><trkpt lat="59.1007853486" lon="30.4679209739"><ele>57.34</ele><time>2026-08-20T20:01:01Z</time></trkpt><trkpt lat="59.1007961612" lon="30.4679007735"><ele>57.34</ele><time>2026-08-20T20:01:09Z</time></trkpt><trkpt lat="59.1007802356" lon="30.4678433575"><ele>57.34</ele><time>2026-08-20T20:01:16Z</time></trkpt><trkpt lat="59.1007985082" lon="30.4678077344"><ele>57.34</ele><time>2026-08-20T20:01:23Z</time></trkpt><trkpt lat="59.1008069739" lon="30.4677416850"><ele>56.86</ele><time>2026-08-20T20:01:35Z</time></trkpt><trkpt lat="59.1007880308" lon="30.4677019548"><ele>56.86</ele><time>2026-08-20T20:01:41Z</time></trkpt><trkpt lat="59.1007892042" lon="30.4676910583"><ele>56.86</ele><time>2026-08-20T20:01:42Z</time></trkpt><trkpt lat="59.1007709317" lon="30.4676163755"><ele>56.86</ele><time>2026-08-20T20:01:48Z</time></trkpt><trkpt lat="59.1007628012" lon="30.4675642401"><ele>56.86</ele><time>2026-08-20T20:01:54Z</time></trkpt><trkpt lat="59.1007556766" lon="30.4674846958"><ele>56.86</ele><time>2026-08-20T20:02:03Z</time></trkpt><trkpt lat="59.1007502284" lon="30.4674524255"><ele>56.86</ele><time>2026-08-20T20:02:11Z</time></trkpt><trkpt lat="59.1007232387" lon="30.4674002063"><ele>56.86</ele><time>2026-08-20T20:02:18Z</time></trkpt><trkpt lat="59.1007239092" lon="30.4673897289"><ele>56.86</ele><time>2026-08-20T20:02:19Z</time></trkpt><trkpt lat="59.1007219814" lon="30.4673836101"><ele>56.86</ele><time>2026-08-20T20:02:21Z</time></trkpt><trkpt lat="59.1006469633" lon="30.4673140403"><ele>56.86</ele><time>2026-08-20T20:02:30Z</time></trkpt><trkpt lat="59.1006307863" lon="30.4672944266"><ele>56.86</ele><time>2026-08-20T20:02:42Z</time></trkpt><trkpt lat="59.1006122623" lon="30.4673007131"><ele>56.86</ele><time>2026-08-20T20:02:59Z</time></trkpt><trkpt lat="59.1006037965" lon="30.4672814347"><ele>55.89</ele><time>2026-08-20T20:03:06Z</time></trkpt><trkpt lat="59.1006018687" lon="30.4672836978"><ele>55.89</ele><time>2026-08-20T20:03:16Z</time></trkpt><trkpt lat="59.1005922295" lon="30.4672563728"><ele>55.89</ele><time>2026-08-20T20:03:31Z</time></trkpt><trkpt lat="59.1005711909" lon="30.4672461469"><ele>55.89</ele><time>2026-08-20T20:03:37Z</time></trkpt><trkpt lat="59.1005595401" lon="30.4672322329"><ele>55.89</ele><time>2026-08-20T20:03:42Z</time></trkpt><trkpt lat="59.1005435307" lon="30.4672059976"><ele>55.89</ele><time>2026-08-20T20:03:49Z</time></trkpt><trkpt lat="59.1005292814" lon="30.4671842046"><ele>55.89</ele><time>2026-08-20T20:03:55Z</time></trkpt><trkpt lat="59.1005253419" lon="30.4671806004"><ele>55.89</ele><time>2026-08-20T20:04:01Z</time></trkpt><trkpt lat="59.1005229112" lon="30.4671708774"><ele>55.89</ele><time>2026-08-20T20:04:09Z</time></trkpt><trkpt lat="59.1005146131" lon="30.4671659321"><ele>55.89</ele><time>2026-08-20T20:04:16Z</time></trkpt><trkpt lat="59.1005135234" lon="30.4671639204"><ele>55.89</ele><time>2026-08-20T20:04:22Z</time></trkpt><trkpt lat="59.1004908085" lon="30.4671592265"><ele>55.89</ele><time>2026-08-20T20:04:30Z</time></trkpt><trkpt lat="59.1004805826" lon="30.4671538621"><ele>55.89</ele><time>2026-08-20T20:04:35Z</time></trkpt><trkpt lat="59.1004666686" lon="30.4671825282"><ele>55.89</ele><time>2026-08-20T20:04:41Z</time></trkpt><trkpt lat="59.1004626453" lon="30.4671811871"><ele>55.89</ele><time>2026-08-20T20:04:47Z</time></trkpt><trkpt lat="59.1004252620" lon="30.4671519343"><ele>55.89</ele><time>2026-08-20T20:04:54Z</time></trkpt><trkpt lat="59.1003569495" lon="30.4670961108"><ele>55.89</ele><time>2026-08-20T20:05:02Z</time></trkpt><trkpt lat="59.1002871282" lon="30.4670718871"><ele>55.89</ele><time>2026-08-20T20:05:10Z</time></trkpt><trkpt lat="59.1002239287" lon="30.4670869745"><ele>55.89</ele><time>2026-08-20T20:05:19Z</time></trkpt><trkpt lat="59.1001696978" lon="30.4670627508"><ele>55.89</ele><time>2026-08-20T20:05:26Z</time></trkpt><trkpt lat="59.1001692787" lon="30.4670753237"><ele>55.89</ele><time>2026-08-20T20:05:33Z</time></trkpt><trkpt lat="59.1001617350" lon="30.4670745693"><ele>55.89</ele><time>2026-08-20T20:05:40Z</time></trkpt><trkpt lat="59.1001440492" lon="30.4670685343"><ele>55.89</ele><time>2026-08-20T20:05:47Z</time></trkpt><trkpt lat="59.1001307219" lon="30.4670785926"><ele>55.89</ele><time>2026-08-20T20:05:52Z</time></trkpt><trkpt lat="59.1001020558" lon="30.4670809396"><ele>55.89</ele><time>2026-08-20T20:05:58Z</time></trkpt><trkpt lat="59.1000889800" lon="30.4670656007"><ele>55.89</ele><time>2026-08-20T20:06:16Z</time></trkpt><trkpt lat="59.1000812687" lon="30.4670698754"><ele>55.89</ele><time>2026-08-20T20:06:33Z</time></trkpt><trkpt lat="59.1000765748" lon="30.4670743179"><ele>55.89</ele><time>2026-08-20T20:06:40Z</time></trkpt><trkpt lat="59.1000585537" lon="30.4671373498"><ele>55.89</ele><time>2026-08-20T20:06:48Z</time></trkpt><trkpt lat="59.1000464000" lon="30.4671690334"><ele>55.89</ele><time>2026-08-20T20:06:54Z</time></trkpt><trkpt lat="59.1000423767" lon="30.4671884794"><ele>55.89</ele><time>2026-08-20T20:06:55Z</time></trkpt><trkpt lat="59.1000268701" lon="30.4672648385"><ele>55.89</ele><time>2026-08-20T20:07:00Z</time></trkpt><trkpt lat="59.1000177339" lon="30.4672865476"><ele>55.89</ele><time>2026-08-20T20:07:02Z</time></trkpt><trkpt lat="59.0999780037" lon="30.4674233403"><ele>55.89</ele><time>2026-08-20T20:07:09Z</time></trkpt><trkpt lat="59.0999690350" lon="30.4675053153"><ele>55.89</ele><time>2026-08-20T20:07:14Z</time></trkpt><trkpt lat="59.0999407880" lon="30.4676074907"><ele>55.89</ele><time>2026-08-20T20:07:22Z</time></trkpt><trkpt lat="59.0999448113" lon="30.4676257633"><ele>55.89</ele><time>2026-08-20T20:07:32Z</time></trkpt><trkpt lat="59.0999645088" lon="30.4676332232"><ele>56.37</ele><time>2026-08-20T20:07:40Z</time></trkpt><trkpt lat="59.0999777522" lon="30.4676463827"><ele>56.37</ele><time>2026-08-20T20:07:46Z</time></trkpt><trkpt lat="59.0999868046" lon="30.4676718637"><ele>56.37</ele><time>2026-08-20T20:07:55Z</time></trkpt><trkpt lat="59.1000047419" lon="30.4676863644"><ele>56.37</ele><time>2026-08-20T20:08:04Z</time></trkpt><trkpt lat="59.1000116989" lon="30.4677150305"><ele>56.37</ele><time>2026-08-20T20:08:10Z</time></trkpt><trkpt lat="59.1000153869" lon="30.4677080736"><ele>56.37</ele><time>2026-08-20T20:08:12Z</time></trkpt><trkpt lat="59.1000271216" lon="30.4677256756"><ele>56.37</ele><time>2026-08-20T20:08:18Z</time></trkpt><trkpt lat="59.1000257805" lon="30.4677380808"><ele>57.34</ele><time>2026-08-20T20:08:24Z</time></trkpt><trkpt lat="59.1000289656" lon="30.4677500669"><ele>57.34</ele><time>2026-08-20T20:08:31Z</time></trkpt><trkpt lat="59.1000366770" lon="30.4677893780"><ele>57.34</ele><time>2026-08-20T20:08:41Z</time></trkpt><trkpt lat="59.1000515129" lon="30.4678022861"><ele>57.34</ele><time>2026-08-20T20:08:47Z</time></trkpt><trkpt lat="59.1000609845" lon="30.4678121768"><ele>57.82</ele><time>2026-08-20T20:09:00Z</time></trkpt><trkpt lat="59.1000717133" lon="30.4678262584"><ele>55.89</ele><time>2026-08-20T20:09:05Z</time></trkpt><trkpt lat="59.1000845376" lon="30.4678534996"><ele>55.89</ele><time>2026-08-20T20:09:20Z</time></trkpt><trkpt lat="59.1000998765" lon="30.4678474646"><ele>56.86</ele><time>2026-08-20T20:09:28Z</time></trkpt><trkpt lat="59.1001127008" lon="30.4678395856"><ele>57.34</ele><time>2026-08-20T20:09:36Z</time></trkpt><trkpt lat="59.1001541913" lon="30.4678337183"><ele>57.34</ele><time>2026-08-20T20:09:53Z</time></trkpt><trkpt lat="59.1001559515" lon="30.4678291921"><ele>57.34</ele><time>2026-08-20T20:10:06Z</time></trkpt><trkpt lat="59.1001631599" lon="30.4678188823"><ele>57.34</ele><time>2026-08-20T20:10:23Z</time></trkpt><trkpt lat="59.1001658421" lon="30.4678151943"><ele>56.37</ele><time>2026-08-20T20:10:40Z</time></trkpt><trkpt lat="59.1001769900" lon="30.4678002745"><ele>56.37</ele><time>2026-08-20T20:10:53Z</time></trkpt><trkpt lat="59.1001893114" lon="30.4677904677"><ele>56.37</ele><time>2026-08-20T20:11:03Z</time></trkpt><trkpt lat="59.1001931671" lon="30.4677958321"><ele>55.89</ele><time>2026-08-20T20:11:14Z</time></trkpt><trkpt lat="59.1002054885" lon="30.4677952453"><ele>55.41</ele><time>2026-08-20T20:11:34Z</time></trkpt><trkpt lat="59.1002822667" lon="30.4678535834"><ele>123.19</ele><time>2026-08-20T20:12:35Z</time></trkpt><trkpt lat="59.1003083345" lon="30.4678685032"><ele>123.19</ele><time>2026-08-20T20:12:36Z</time></trkpt><trkpt lat="59.1002596356" lon="30.4678879492"><ele>121.74</ele><time>2026-08-20T20:12:57Z</time></trkpt><trkpt lat="59.1002395190" lon="30.4678826686"><ele>121.26</ele><time>2026-08-20T20:13:14Z</time></trkpt><trkpt lat="59.1002463084" lon="30.4679000191"><ele>120.78</ele><time>2026-08-20T20:13:25Z</time></trkpt><trkpt lat="59.1002163012" lon="30.4679453652"><ele>120.78</ele><time>2026-08-20T20:13:37Z</time></trkpt><trkpt lat="59.1002334841" lon="30.4679654818"><ele>120.30</ele><time>2026-08-20T20:13:49Z</time></trkpt><trkpt lat="59.1002453025" lon="30.4679492209"><ele>119.82</ele><time>2026-08-20T20:14:01Z</time></trkpt><trkpt lat="59.1002430394" lon="30.4679622967"><ele>119.34</ele><time>2026-08-20T20:14:16Z</time></trkpt><trkpt lat="59.1002279520" lon="30.4679993447"><ele>119.34</ele><time>2026-08-20T20:14:24Z</time></trkpt><trkpt lat="59.1001993697" lon="30.4680424277"><ele>118.86</ele><time>2026-08-20T20:14:29Z</time></trkpt><trkpt lat="59.1001891438" lon="30.4680585209"><ele>118.86</ele><time>2026-08-20T20:14:30Z</time></trkpt><trkpt lat="59.1001647525" lon="30.4681304377"><ele>118.86</ele><time>2026-08-20T20:14:37Z</time></trkpt><trkpt lat="59.1001826897" lon="30.4681505542"><ele>118.38</ele><time>2026-08-20T20:14:54Z</time></trkpt><trkpt lat="59.1001831926" lon="30.4682123289"><ele>117.90</ele><time>2026-08-20T20:15:01Z</time></trkpt><trkpt lat="59.1002164688" lon="30.4682750255"><ele>117.90</ele><time>2026-08-20T20:15:06Z</time></trkpt><trkpt lat="59.1002008785" lon="30.4683191143"><ele>117.90</ele><time>2026-08-20T20:15:13Z</time></trkpt><trkpt lat="59.1002037283" lon="30.4683791287"><ele>117.42</ele><time>2026-08-20T20:15:20Z</time></trkpt><trkpt lat="59.1001940053" lon="30.4684018437"><ele>116.94</ele><time>2026-08-20T20:15:31Z</time></trkpt><trkpt lat="59.1001743078" lon="30.4684079625"><ele>116.94</ele><time>2026-08-20T20:15:42Z</time></trkpt><trkpt lat="59.1001717094" lon="30.4684204515"><ele>116.46</ele><time>2026-08-20T20:15:48Z</time></trkpt><trkpt lat="59.1001580469" lon="30.4684366286"><ele>116.46</ele><time>2026-08-20T20:15:55Z</time></trkpt><trkpt lat="59.1001341585" lon="30.4684465192"><ele>116.46</ele><time>2026-08-20T20:15:59Z</time></trkpt><trkpt lat="59.1001306381" lon="30.4684886802"><ele>115.98</ele><time>2026-08-20T20:16:05Z</time></trkpt><trkpt lat="59.1001212504" lon="30.4684992414"><ele>115.98</ele><time>2026-08-20T20:16:11Z</time></trkpt><trkpt lat="59.1001289617" lon="30.4685195256"><ele>115.50</ele><time>2026-08-20T20:16:19Z</time></trkpt><trkpt lat="59.1001514252" lon="30.4685585853"><ele>115.50</ele><time>2026-08-20T20:16:23Z</time></trkpt><trkpt lat="59.1001629084" lon="30.4685998242"><ele>115.50</ele><time>2026-08-20T20:16:28Z</time></trkpt><trkpt lat="59.1001700331" lon="30.4686032608"><ele>115.01</ele><time>2026-08-20T20:16:33Z</time></trkpt><trkpt lat="59.1001691949" lon="30.4686066136"><ele>115.01</ele><time>2026-08-20T20:16:38Z</time></trkpt><trkpt lat="59.1001701169" lon="30.4686372075"><ele>115.01</ele><time>2026-08-20T20:16:44Z</time></trkpt><trkpt lat="59.1001730505" lon="30.4686913546"><ele>114.53</ele><time>2026-08-20T20:16:50Z</time></trkpt><trkpt lat="59.1001760680" lon="30.4687040113"><ele>114.53</ele><time>2026-08-20T20:16:56Z</time></trkpt><trkpt lat="59.1001899820" lon="30.4687294923"><ele>114.53</ele><time>2026-08-20T20:17:01Z</time></trkpt><trkpt lat="59.1001840308" lon="30.4687444959"><ele>114.05</ele><time>2026-08-20T20:17:07Z</time></trkpt><trkpt lat="59.1001950111" lon="30.4687973019"><ele>114.05</ele><time>2026-08-20T20:17:11Z</time></trkpt><trkpt lat="59.1001925804" lon="30.4688032530"><ele>114.05</ele><time>2026-08-20T20:17:20Z</time></trkpt><trkpt lat="59.1001981124" lon="30.4688179214"><ele>113.57</ele><time>2026-08-20T20:17:29Z</time></trkpt><trkpt lat="59.1001932509" lon="30.4688175861"><ele>112.61</ele><time>2026-08-20T20:17:38Z</time></trkpt><trkpt lat="59.1001991183" lon="30.4688269738"><ele>112.61</ele><time>2026-08-20T20:17:45Z</time></trkpt><trkpt lat="59.1002058238" lon="30.4688463360"><ele>112.61</ele><time>2026-08-20T20:17:48Z</time></trkpt><trkpt lat="59.1002276167" lon="30.4689072724"><ele>112.13</ele><time>2026-08-20T20:17:55Z</time></trkpt><trkpt lat="59.1002399381" lon="30.4689130560"><ele>111.65</ele><time>2026-08-20T20:18:06Z</time></trkpt><trkpt lat="59.1002378426" lon="30.4689277243"><ele>112.61</ele><time>2026-08-20T20:18:14Z</time></trkpt><trkpt lat="59.1002347413" lon="30.4689617548"><ele>112.61</ele><time>2026-08-20T20:18:20Z</time></trkpt><trkpt lat="59.1002255213" lon="30.4690104537"><ele>112.13</ele><time>2026-08-20T20:18:27Z</time></trkpt><trkpt lat="59.1002182290" lon="30.4690522794"><ele>112.13</ele><time>2026-08-20T20:18:33Z</time></trkpt><trkpt lat="59.1001898143" lon="30.4690882377"><ele>111.65</ele><time>2026-08-20T20:18:43Z</time></trkpt><trkpt lat="59.1001899820" lon="30.4691086058"><ele>111.65</ele><time>2026-08-20T20:18:49Z</time></trkpt><trkpt lat="59.1002201568" lon="30.4691820312"><ele>111.65</ele><time>2026-08-20T20:18:56Z</time></trkpt><trkpt lat="59.1002532654" lon="30.4692215938"><ele>111.17</ele><time>2026-08-20T20:19:03Z</time></trkpt><trkpt lat="59.1002355795" lon="30.4692679457"><ele>111.17</ele><time>2026-08-20T20:19:11Z</time></trkpt><trkpt lat="59.1002099309" lon="30.4693516809"><ele>110.69</ele><time>2026-08-20T20:19:18Z</time></trkpt><trkpt lat="59.1002143733" lon="30.4694346618"><ele>110.69</ele><time>2026-08-20T20:19:26Z</time></trkpt><trkpt lat="59.1002009623" lon="30.4694500845"><ele>110.69</ele><time>2026-08-20T20:19:33Z</time></trkpt><trkpt lat="59.1001871321" lon="30.4695283715"><ele>110.21</ele><time>2026-08-20T20:19:41Z</time></trkpt><trkpt lat="59.1001743916" lon="30.4695927445"><ele>110.21</ele><time>2026-08-20T20:19:48Z</time></trkpt><trkpt lat="59.1001753137" lon="30.4696244281"><ele>110.21</ele><time>2026-08-20T20:19:52Z</time></trkpt><trkpt lat="59.1001705360" lon="30.4696893040"><ele>109.73</ele><time>2026-08-20T20:19:59Z</time></trkpt><trkpt lat="59.1001572926" lon="30.4697192274"><ele>109.73</ele><time>2026-08-20T20:20:04Z</time></trkpt><trkpt lat="59.1001350805" lon="30.4697657470"><ele>109.25</ele><time>2026-08-20T20:20:10Z</time></trkpt><trkpt lat="59.1001182329" lon="30.4698209837"><ele>109.25</ele><time>2026-08-20T20:20:16Z</time></trkpt><trkpt lat="59.1001243517" lon="30.4698577803"><ele>109.25</ele><time>2026-08-20T20:20:23Z</time></trkpt><trkpt lat="59.1001195740" lon="30.4699024558"><ele>108.77</ele><time>2026-08-20T20:20:30Z</time></trkpt><trkpt lat="59.1001221724" lon="30.4699490592"><ele>108.77</ele><time>2026-08-20T20:20:37Z</time></trkpt><trkpt lat="59.1001252737" lon="30.4699733667"><ele>108.29</ele><time>2026-08-20T20:20:45Z</time></trkpt><trkpt lat="59.1001325659" lon="30.4699974228"><ele>108.29</ele><time>2026-08-20T20:20:47Z</time></trkpt><trkpt lat="59.1001426242" lon="30.4700206406"><ele>108.29</ele><time>2026-08-20T20:20:53Z</time></trkpt><trkpt lat="59.1001502518" lon="30.4700228199"><ele>108.29</ele><time>2026-08-20T20:20:56Z</time></trkpt><trkpt lat="59.1001837794" lon="30.4700509831"><ele>107.81</ele><time>2026-08-20T20:21:03Z</time></trkpt><trkpt lat="59.1001828574" lon="30.4700697586"><ele>107.81</ele><time>2026-08-20T20:21:15Z</time></trkpt><trkpt lat="59.1001722123" lon="30.4700752068"><ele>107.81</ele><time>2026-08-20T20:21:18Z</time></trkpt><trkpt lat="59.1001853719" lon="30.4701281805"><ele>107.32</ele><time>2026-08-20T20:21:24Z</time></trkpt><trkpt lat="59.1001886409" lon="30.4701541644"><ele>107.32</ele><time>2026-08-20T20:21:29Z</time></trkpt><trkpt lat="59.1002174746" lon="30.4701968282"><ele>107.32</ele><time>2026-08-20T20:21:35Z</time></trkpt><trkpt lat="59.1002101824" lon="30.4702420905"><ele>106.84</ele><time>2026-08-20T20:21:42Z</time></trkpt><trkpt lat="59.1002150439" lon="30.4702447727"><ele>106.84</ele><time>2026-08-20T20:21:52Z</time></trkpt><trkpt lat="59.1002137028" lon="30.4702414200"><ele>106.36</ele><time>2026-08-20T20:22:02Z</time></trkpt><trkpt lat="59.1002156306" lon="30.4702377319"><ele>106.36</ele><time>2026-08-20T20:22:09Z</time></trkpt><trkpt lat="59.1002146248" lon="30.4702480417"><ele>105.88</ele><time>2026-08-20T20:22:15Z</time></trkpt><trkpt lat="59.1002152953" lon="30.4702632967"><ele>105.88</ele><time>2026-08-20T20:22:18Z</time></trkpt><trkpt lat="59.1002261080" lon="30.4703330342"><ele>105.88</ele><time>2026-08-20T20:22:24Z</time></trkpt><trkpt lat="59.1002232581" lon="30.4704212118"><ele>105.40</ele><time>2026-08-20T20:22:30Z</time></trkpt><trkpt lat="59.1002261080" lon="30.4704313539"><ele>105.40</ele><time>2026-08-20T20:22:33Z</time></trkpt><trkpt lat="59.1002669279" lon="30.4704847466"><ele>105.40</ele><time>2026-08-20T20:22:39Z</time></trkpt><trkpt lat="59.1002820991" lon="30.4705326911"><ele>105.40</ele><time>2026-08-20T20:22:45Z</time></trkpt><trkpt lat="59.1002837755" lon="30.4705367982"><ele>104.92</ele><time>2026-08-20T20:22:55Z</time></trkpt><trkpt lat="59.1003081668" lon="30.4705725051"><ele>104.92</ele><time>2026-08-20T20:23:00Z</time></trkpt><trkpt lat="59.1003104299" lon="30.4706382193"><ele>104.44</ele><time>2026-08-20T20:23:08Z</time></trkpt><trkpt lat="59.1003111843" lon="30.4706781171"><ele>104.44</ele><time>2026-08-20T20:23:13Z</time></trkpt><trkpt lat="59.1003213264" lon="30.4706909414"><ele>104.44</ele><time>2026-08-20T20:23:19Z</time></trkpt><trkpt lat="59.1003193986" lon="30.4706908576"><ele>103.96</ele><time>2026-08-20T20:23:21Z</time></trkpt><trkpt lat="59.1003624815" lon="30.4707342759"><ele>103.96</ele><time>2026-08-20T20:23:28Z</time></trkpt><trkpt lat="59.1003759764" lon="30.4707673006"><ele>103.96</ele><time>2026-08-20T20:23:34Z</time></trkpt><trkpt lat="59.1003836878" lon="30.4708131496"><ele>103.48</ele><time>2026-08-20T20:23:45Z</time></trkpt><trkpt lat="59.1004124377" lon="30.4708624352"><ele>103.48</ele><time>2026-08-20T20:23:52Z</time></trkpt><trkpt lat="59.1004162934" lon="30.4709069431"><ele>103.00</ele><time>2026-08-20T20:23:59Z</time></trkpt><trkpt lat="59.1004250944" lon="30.4709920194"><ele>103.00</ele><time>2026-08-20T20:24:06Z</time></trkpt><trkpt lat="59.1004259326" lon="30.4710741621"><ele>102.52</ele><time>2026-08-20T20:24:12Z</time></trkpt><trkpt lat="59.1004324704" lon="30.4711013194"><ele>102.52</ele><time>2026-08-20T20:24:21Z</time></trkpt><trkpt lat="59.1004483122" lon="30.4711313266"><ele>102.04</ele><time>2026-08-20T20:24:35Z</time></trkpt><trkpt lat="59.1004747991" lon="30.4711841326"><ele>102.04</ele><time>2026-08-20T20:24:41Z</time></trkpt><trkpt lat="59.1005063150" lon="30.4712060932"><ele>102.04</ele><time>2026-08-20T20:24:45Z</time></trkpt><trkpt lat="59.1005363222" lon="30.4712724779"><ele>101.56</ele><time>2026-08-20T20:24:52Z</time></trkpt><trkpt lat="59.1005358193" lon="30.4712649342"><ele>98.19</ele><time>2026-08-20T20:24:56Z</time></trkpt><trkpt lat="59.1005338077" lon="30.4712582286"><ele>95.79</ele><time>2026-08-20T20:25:09Z</time></trkpt><trkpt lat="59.1005308740" lon="30.4712536186"><ele>98.67</ele><time>2026-08-20T20:25:17Z</time></trkpt><trkpt lat="59.1005199775" lon="30.4713371862"><ele>102.04</ele><time>2026-08-20T20:25:22Z</time></trkpt><trkpt lat="59.1005156189" lon="30.4713989608"><ele>102.52</ele><time>2026-08-20T20:25:28Z</time></trkpt><trkpt lat="59.1005050577" lon="30.4714017268"><ele>101.08</ele><time>2026-08-20T20:25:33Z</time></trkpt><trkpt lat="59.1005202290" lon="30.4714131262"><ele>100.60</ele><time>2026-08-20T20:25:39Z</time></trkpt><trkpt lat="59.1005112603" lon="30.4714572988"><ele>100.60</ele><time>2026-08-20T20:25:43Z</time></trkpt><trkpt lat="59.1004801635" lon="30.4715220910"><ele>100.60</ele><time>2026-08-20T20:25:49Z</time></trkpt><trkpt lat="59.1005001124" lon="30.4715629108"><ele>100.11</ele><time>2026-08-20T20:25:56Z</time></trkpt><trkpt lat="59.1005451232" lon="30.4716435447"><ele>100.11</ele><time>2026-08-20T20:26:02Z</time></trkpt><trkpt lat="59.1005661618" lon="30.4717421997"><ele>100.11</ele><time>2026-08-20T20:26:10Z</time></trkpt><trkpt lat="59.1005685925" lon="30.4717980232"><ele>99.63</ele><time>2026-08-20T20:26:17Z</time></trkpt><trkpt lat="59.1005761363" lon="30.4717896413"><ele>98.67</ele><time>2026-08-20T20:26:29Z</time></trkpt><trkpt lat="59.1005777288" lon="30.4718074948"><ele>98.67</ele><time>2026-08-20T20:26:36Z</time></trkpt><trkpt lat="59.1005733702" lon="30.4718570318"><ele>98.19</ele><time>2026-08-20T20:26:43Z</time></trkpt><trkpt lat="59.1005771421" lon="30.4718713649"><ele>98.19</ele><time>2026-08-20T20:26:49Z</time></trkpt><trkpt lat="59.1005801596" lon="30.4718834348"><ele>97.71</ele><time>2026-08-20T20:27:06Z</time></trkpt><trkpt lat="59.1005812492" lon="30.4718698561"><ele>97.71</ele><time>2026-08-20T20:27:24Z</time></trkpt><trkpt lat="59.1005744599" lon="30.4719217401"><ele>97.23</ele><time>2026-08-20T20:27:38Z</time></trkpt><trkpt lat="59.1005719453" lon="30.4719380848"><ele>96.75</ele><time>2026-08-20T20:27:57Z</time></trkpt><trkpt lat="59.1005732864" lon="30.4719260149"><ele>96.27</ele><time>2026-08-20T20:28:10Z</time></trkpt><trkpt lat="59.1005862784" lon="30.4718969297"><ele>96.27</ele><time>2026-08-20T20:28:24Z</time></trkpt><trkpt lat="59.1005861945" lon="30.4719059821"><ele>95.79</ele><time>2026-08-20T20:28:31Z</time></trkpt><trkpt lat="59.1005785670" lon="30.4719490651"><ele>95.79</ele><time>2026-08-20T20:28:38Z</time></trkpt><trkpt lat="59.1005633958" lon="30.4719751328"><ele>95.79</ele><time>2026-08-20T20:28:44Z</time></trkpt><trkpt lat="59.1005521640" lon="30.4720087443"><ele>95.31</ele><time>2026-08-20T20:28:52Z</time></trkpt><trkpt lat="59.1005438659" lon="30.4720293637"><ele>95.31</ele><time>2026-08-20T20:29:02Z</time></trkpt><trkpt lat="59.1005260963" lon="30.4720188864"><ele>95.31</ele><time>2026-08-20T20:29:05Z</time></trkpt><trkpt lat="59.1005111765" lon="30.4720305372"><ele>94.83</ele><time>2026-08-20T20:29:12Z</time></trkpt><trkpt lat="59.1005107574" lon="30.4720322136"><ele>94.83</ele><time>2026-08-20T20:29:19Z</time></trkpt><trkpt lat="59.1005122662" lon="30.4720372427"><ele>94.83</ele><time>2026-08-20T20:29:25Z</time></trkpt><trkpt lat="59.1005109251" lon="30.4720370751"><ele>94.35</ele><time>2026-08-20T20:29:35Z</time></trkpt><trkpt lat="59.1004996933" lon="30.4720623884"><ele>94.35</ele><time>2026-08-20T20:29:43Z</time></trkpt><trkpt lat="59.1004891321" lon="30.4720951617"><ele>94.35</ele><time>2026-08-20T20:29:49Z</time></trkpt><trkpt lat="59.1004791576" lon="30.4721421003"><ele>94.35</ele><time>2026-08-20T20:29:56Z</time></trkpt><trkpt lat="59.1004689317" lon="30.4721862730"><ele>93.87</ele><time>2026-08-20T20:30:11Z</time></trkpt><trkpt lat="59.1004224960" lon="30.4722192977"><ele>93.87</ele><time>2026-08-20T20:30:18Z</time></trkpt><trkpt lat="59.1004180536" lon="30.4722295236"><ele>93.39</ele><time>2026-08-20T20:30:32Z</time></trkpt><trkpt lat="59.1004168801" lon="30.4722282663"><ele>93.39</ele><time>2026-08-20T20:30:39Z</time></trkpt><trkpt lat="59.1004057322" lon="30.4722863529"><ele>92.90</ele><time>2026-08-20T20:30:47Z</time></trkpt><trkpt lat="59.1004076600" lon="30.4723167792"><ele>92.90</ele><time>2026-08-20T20:30:59Z</time></trkpt><trkpt lat="59.1004134435" lon="30.4723550007"><ele>92.90</ele><time>2026-08-20T20:31:04Z</time></trkpt><trkpt lat="59.1004156228" lon="30.4723650590"><ele>92.42</ele><time>2026-08-20T20:31:10Z</time></trkpt><trkpt lat="59.1004165448" lon="30.4723658133"><ele>92.42</ele><time>2026-08-20T20:31:17Z</time></trkpt><trkpt lat="59.1004130244" lon="30.4723762907"><ele>91.94</ele><time>2026-08-20T20:31:30Z</time></trkpt><trkpt lat="59.1004153714" lon="30.4724028613"><ele>91.94</ele><time>2026-08-20T20:31:38Z</time></trkpt><trkpt lat="59.1003991943" lon="30.4724441841"><ele>91.94</ele><time>2026-08-20T20:31:43Z</time></trkpt><trkpt lat="59.1004048102" lon="30.4724860098"><ele>91.94</ele><time>2026-08-20T20:31:50Z</time></trkpt><trkpt lat="59.1004201490" lon="30.4725351278"><ele>91.46</ele><time>2026-08-20T20:31:55Z</time></trkpt><trkpt lat="59.1004418582" lon="30.4725414980"><ele>91.46</ele><time>2026-08-20T20:32:06Z</time></trkpt><trkpt lat="59.1004595440" lon="30.4725588486"><ele>91.46</ele><time>2026-08-20T20:32:13Z</time></trkpt><trkpt lat="59.1004705243" lon="30.4725763667"><ele>90.98</ele><time>2026-08-20T20:32:21Z</time></trkpt><trkpt lat="59.1004875395" lon="30.4725984950"><ele>90.98</ele><time>2026-08-20T20:32:26Z</time></trkpt><trkpt lat="59.1004836001" lon="30.4725991655"><ele>90.98</ele><time>2026-08-20T20:32:37Z</time></trkpt><trkpt lat="59.1004823428" lon="30.4726006743"><ele>90.98</ele><time>2026-08-20T20:32:39Z</time></trkpt><trkpt lat="59.1004896350" lon="30.4726838227"><ele>90.50</ele><time>2026-08-20T20:32:45Z</time></trkpt><trkpt lat="59.1004825104" lon="30.4727365449"><ele>90.50</ele><time>2026-08-20T20:32:50Z</time></trkpt><trkpt lat="59.1004641540" lon="30.4727895185"><ele>90.50</ele><time>2026-08-20T20:32:55Z</time></trkpt><trkpt lat="59.1004696861" lon="30.4728310090"><ele>90.50</ele><time>2026-08-20T20:33:00Z</time></trkpt><trkpt lat="59.1004558560" lon="30.4728430789"><ele>90.02</ele><time>2026-08-20T20:33:13Z</time></trkpt><trkpt lat="59.1004518326" lon="30.4728589207"><ele>90.02</ele><time>2026-08-20T20:33:23Z</time></trkpt><trkpt lat="59.1004544310" lon="30.4728609324"><ele>90.02</ele><time>2026-08-20T20:33:32Z</time></trkpt><trkpt lat="59.1004547663" lon="30.4728682246"><ele>89.54</ele><time>2026-08-20T20:33:40Z</time></trkpt><trkpt lat="59.1004550178" lon="30.4728623573"><ele>89.54</ele><time>2026-08-20T20:33:46Z</time></trkpt><trkpt lat="59.1004537605" lon="30.4728657100"><ele>89.54</ele><time>2026-08-20T20:33:56Z</time></trkpt><trkpt lat="59.1004503239" lon="30.4728947952"><ele>89.54</ele><time>2026-08-20T20:34:02Z</time></trkpt><trkpt lat="59.1004417744" lon="30.4729578272"><ele>89.54</ele><time>2026-08-20T20:34:07Z</time></trkpt><trkpt lat="59.1004440375" lon="30.4729690589"><ele>89.06</ele><time>2026-08-20T20:34:15Z</time></trkpt><trkpt lat="59.1004386730" lon="30.4730123933"><ele>89.06</ele><time>2026-08-20T20:34:24Z</time></trkpt><trkpt lat="59.1004489828" lon="30.4730808735"><ele>89.06</ele><time>2026-08-20T20:34:32Z</time></trkpt><trkpt lat="59.1004637349" lon="30.4731243756"><ele>89.06</ele><time>2026-08-20T20:34:37Z</time></trkpt><trkpt lat="59.1004372481" lon="30.4731889162"><ele>88.58</ele><time>2026-08-20T20:34:42Z</time></trkpt><trkpt lat="59.1004081629" lon="30.4732470028"><ele>88.58</ele><time>2026-08-20T20:34:48Z</time></trkpt><trkpt lat="59.1003970150" lon="30.4732729029"><ele>88.58</ele><time>2026-08-20T20:34:54Z</time></trkpt><trkpt lat="59.1004027147" lon="30.4732948635"><ele>88.58</ele><time>2026-08-20T20:35:00Z</time></trkpt><trkpt lat="59.1004059836" lon="30.4733121302"><ele>88.10</ele><time>2026-08-20T20:35:07Z</time></trkpt><trkpt lat="59.1004044749" lon="30.4733971227"><ele>88.10</ele><time>2026-08-20T20:35:14Z</time></trkpt><trkpt lat="59.1003990266" lon="30.4734400380"><ele>88.10</ele><time>2026-08-20T20:35:18Z</time></trkpt><trkpt lat="59.1003981046" lon="30.4734399542"><ele>88.10</ele><time>2026-08-20T20:35:19Z</time></trkpt><trkpt lat="59.1004088335" lon="30.4734972026"><ele>88.10</ele><time>2026-08-20T20:35:24Z</time></trkpt><trkpt lat="59.1004117671" lon="30.4735046625"><ele>88.10</ele><time>2026-08-20T20:35:25Z</time></trkpt><trkpt lat="59.1004304588" lon="30.4735482484"><ele>88.10</ele><time>2026-08-20T20:35:30Z</time></trkpt><trkpt lat="59.1004311293" lon="30.4735776689"><ele>87.62</ele><time>2026-08-20T20:35:36Z</time></trkpt><trkpt lat="59.1004264355" lon="30.4736492503"><ele>87.62</ele><time>2026-08-20T20:35:44Z</time></trkpt><trkpt lat="59.1004075762" lon="30.4737347458"><ele>87.62</ele><time>2026-08-20T20:35:51Z</time></trkpt><trkpt lat="59.1003952548" lon="30.4737425409"><ele>88.58</ele><time>2026-08-20T20:36:04Z</time></trkpt><trkpt lat="59.1004131082" lon="30.4737596400"><ele>88.58</ele><time>2026-08-20T20:36:10Z</time></trkpt><trkpt lat="59.1004204005" lon="30.4738949239"><ele>88.10</ele><time>2026-08-20T20:36:16Z</time></trkpt><trkpt lat="59.1004103422" lon="30.4739149567"><ele>88.10</ele><time>2026-08-20T20:36:21Z</time></trkpt><trkpt lat="59.1003885493" lon="30.4740086664"><ele>88.10</ele><time>2026-08-20T20:36:27Z</time></trkpt><trkpt lat="59.1004088335" lon="30.4740881268"><ele>88.10</ele><time>2026-08-20T20:36:33Z</time></trkpt><trkpt lat="59.1004115157" lon="30.4741226602"><ele>87.62</ele><time>2026-08-20T20:36:44Z</time></trkpt><trkpt lat="59.1004095040" lon="30.4741259292"><ele>87.62</ele><time>2026-08-20T20:36:47Z</time></trkpt><trkpt lat="59.1004479770" lon="30.4742266797"><ele>87.62</ele><time>2026-08-20T20:36:51Z</time></trkpt><trkpt lat="59.1004685964" lon="30.4742962494"><ele>87.62</ele><time>2026-08-20T20:36:57Z</time></trkpt><trkpt lat="59.1004441213" lon="30.4743403383"><ele>87.62</ele><time>2026-08-20T20:37:04Z</time></trkpt><trkpt lat="59.1004337277" lon="30.4744396638"><ele>87.14</ele><time>2026-08-20T20:37:12Z</time></trkpt><trkpt lat="59.1004354041" lon="30.4744631331"><ele>87.14</ele><time>2026-08-20T20:37:14Z</time></trkpt><trkpt lat="59.1004503239" lon="30.4744762927"><ele>87.14</ele><time>2026-08-20T20:37:16Z</time></trkpt><trkpt lat="59.1004484799" lon="30.4745710921"><ele>87.14</ele><time>2026-08-20T20:37:22Z</time></trkpt><trkpt lat="59.1004586220" lon="30.4746124987"><ele>87.14</ele><time>2026-08-20T20:37:27Z</time></trkpt><trkpt lat="59.1004530061" lon="30.4746038653"><ele>86.66</ele><time>2026-08-20T20:37:41Z</time></trkpt><trkpt lat="59.1004596278" lon="30.4746593535"><ele>86.66</ele><time>2026-08-20T20:37:46Z</time></trkpt><trkpt lat="59.1004727036" lon="30.4747373890"><ele>86.66</ele><time>2026-08-20T20:37:53Z</time></trkpt><trkpt lat="59.1004983522" lon="30.4748155084"><ele>86.66</ele><time>2026-08-20T20:38:00Z</time></trkpt><trkpt lat="59.1005363222" lon="30.4749051947"><ele>86.18</ele><time>2026-08-20T20:38:07Z</time></trkpt><trkpt lat="59.1005545110" lon="30.4749576654"><ele>86.18</ele><time>2026-08-20T20:38:13Z</time></trkpt><trkpt lat="59.1005593725" lon="30.4750063643"><ele>86.18</ele><time>2026-08-20T20:38:18Z</time></trkpt><trkpt lat="59.1005621385" lon="30.4750932008"><ele>86.18</ele><time>2026-08-20T20:38:25Z</time></trkpt><trkpt lat="59.1005581152" lon="30.4750970565"><ele>85.69</ele><time>2026-08-20T20:38:39Z</time></trkpt><trkpt lat="59.1005643178" lon="30.4751025885"><ele>85.69</ele><time>2026-08-20T20:38:45Z</time></trkpt><trkpt lat="59.1005653236" lon="30.4750984814"><ele>85.69</ele><time>2026-08-20T20:38:50Z</time></trkpt><trkpt lat="59.1005888768" lon="30.4751512036"><ele>85.21</ele><time>2026-08-20T20:38:55Z</time></trkpt><trkpt lat="59.1005791537" lon="30.4752133135"><ele>85.21</ele><time>2026-08-20T20:39:01Z</time></trkpt><trkpt lat="59.1005696822" lon="30.4752195999"><ele>85.21</ele><time>2026-08-20T20:39:07Z</time></trkpt><trkpt lat="59.1006045509" lon="30.4752185103"><ele>85.21</ele><time>2026-08-20T20:39:13Z</time></trkpt><trkpt lat="59.1006142739" lon="30.4752754234"><ele>85.21</ele><time>2026-08-20T20:39:20Z</time></trkpt><trkpt lat="59.1006224882" lon="30.4753377009"><ele>84.73</ele><time>2026-08-20T20:39:26Z</time></trkpt><trkpt lat="59.1006276011" lon="30.4753741622"><ele>84.73</ele><time>2026-08-20T20:39:32Z</time></trkpt><trkpt lat="59.1006398387" lon="30.4754488450"><ele>84.73</ele><time>2026-08-20T20:39:37Z</time></trkpt><trkpt lat="59.1006521601" lon="30.4755347595"><ele>84.73</ele><time>2026-08-20T20:39:43Z</time></trkpt><trkpt lat="59.1006595362" lon="30.4755499307"><ele>84.25</ele><time>2026-08-20T20:39:52Z</time></trkpt><trkpt lat="59.1006485559" lon="30.4755845480"><ele>84.25</ele><time>2026-08-20T20:39:58Z</time></trkpt><trkpt lat="59.1006058920" lon="30.4756987933"><ele>84.25</ele><time>2026-08-20T20:40:07Z</time></trkpt><trkpt lat="59.1005809978" lon="30.4757555388"><ele>84.25</ele><time>2026-08-20T20:40:13Z</time></trkpt><trkpt lat="59.1005794890" lon="30.4757749848"><ele>83.77</ele><time>2026-08-20T20:40:19Z</time></trkpt><trkpt lat="59.1005585343" lon="30.4757798463"><ele>83.77</ele><time>2026-08-20T20:40:28Z</time></trkpt><trkpt lat="59.1005474702" lon="30.4758122005"><ele>83.77</ele><time>2026-08-20T20:40:34Z</time></trkpt><trkpt lat="59.1005214024" lon="30.4758212529"><ele>83.77</ele><time>2026-08-20T20:40:40Z</time></trkpt><trkpt lat="59.1005032137" lon="30.4758950137"><ele>83.29</ele><time>2026-08-20T20:40:47Z</time></trkpt><trkpt lat="59.1004973464" lon="30.4759356659"><ele>83.29</ele><time>2026-08-20T20:40:52Z</time></trkpt><trkpt lat="59.1004705243" lon="30.4759540223"><ele>83.29</ele><time>2026-08-20T20:40:58Z</time></trkpt><trkpt lat="59.1004712787" lon="30.4759703670"><ele>83.29</ele><time>2026-08-20T20:41:11Z</time></trkpt><trkpt lat="59.1004825942" lon="30.4759980273"><ele>82.81</ele><time>2026-08-20T20:41:18Z</time></trkpt><trkpt lat="59.1005108412" lon="30.4760072473"><ele>82.81</ele><time>2026-08-20T20:41:23Z</time></trkpt><trkpt lat="59.1005311254" lon="30.4759903159"><ele>82.81</ele><time>2026-08-20T20:41:30Z</time></trkpt><trkpt lat="59.1005377471" lon="30.4759848677"><ele>82.81</ele><time>2026-08-20T20:41:43Z</time></trkpt><trkpt lat="59.1005405132" lon="30.4759986978"><ele>82.33</ele><time>2026-08-20T20:41:59Z</time></trkpt><trkpt lat="59.1005075723" lon="30.4760025535"><ele>82.33</ele><time>2026-08-20T20:42:11Z</time></trkpt><trkpt lat="59.1004758887" lon="30.4760017153"><ele>81.85</ele><time>2026-08-20T20:42:17Z</time></trkpt><trkpt lat="59.1004704405" lon="30.4759941716"><ele>81.85</ele><time>2026-08-20T20:42:21Z</time></trkpt><trkpt lat="59.1004213225" lon="30.4759883042"><ele>81.85</ele><time>2026-08-20T20:42:28Z</time></trkpt><trkpt lat="59.1003861185" lon="30.4759977758"><ele>81.85</ele><time>2026-08-20T20:42:34Z</time></trkpt><trkpt lat="59.1003573686" lon="30.4759978596"><ele>81.85</ele><time>2026-08-20T20:42:47Z</time></trkpt><trkpt lat="59.1003141180" lon="30.4760154616"><ele>81.37</ele><time>2026-08-20T20:42:53Z</time></trkpt><trkpt lat="59.1002795845" lon="30.4760712851"><ele>81.37</ele><time>2026-08-20T20:43:00Z</time></trkpt><trkpt lat="59.1002745554" lon="30.4761359934"><ele>81.37</ele><time>2026-08-20T20:43:06Z</time></trkpt><trkpt lat="59.1002584621" lon="30.4761489853"><ele>81.37</ele><time>2026-08-20T20:43:13Z</time></trkpt><trkpt lat="59.1002542712" lon="30.4761512484"><ele>80.89</ele><time>2026-08-20T20:43:24Z</time></trkpt><trkpt lat="59.1002362501" lon="30.4761673417"><ele>80.89</ele><time>2026-08-20T20:43:32Z</time></trkpt><trkpt lat="59.1002160497" lon="30.4761473089"><ele>80.89</ele><time>2026-08-20T20:43:37Z</time></trkpt><trkpt lat="59.1002159659" lon="30.4761408549"><ele>80.89</ele><time>2026-08-20T20:43:38Z</time></trkpt><trkpt lat="59.1001541913" lon="30.4761059023"><ele>80.89</ele><time>2026-08-20T20:43:46Z</time></trkpt><trkpt lat="59.1001410317" lon="30.4761131108"><ele>80.41</ele><time>2026-08-20T20:43:59Z</time></trkpt><trkpt lat="59.1001297161" lon="30.4761016276"><ele>80.41</ele><time>2026-08-20T20:44:06Z</time></trkpt><trkpt lat="59.1001237649" lon="30.4761040583"><ele>80.41</ele><time>2026-08-20T20:44:18Z</time></trkpt><trkpt lat="59.1001240164" lon="30.4760984425"><ele>80.41</ele><time>2026-08-20T20:44:26Z</time></trkpt><trkpt lat="59.1001287941" lon="30.4761065729"><ele>79.93</ele><time>2026-08-20T20:44:39Z</time></trkpt><trkpt lat="59.1001287103" lon="30.4761039745"><ele>79.93</ele><time>2026-08-20T20:44:48Z</time></trkpt><trkpt lat="59.1001152992" lon="30.4760879651"><ele>79.93</ele><time>2026-08-20T20:44:56Z</time></trkpt><trkpt lat="59.1001129523" lon="30.4760538507"><ele>79.93</ele><time>2026-08-20T20:45:01Z</time></trkpt><trkpt lat="59.1001054086" lon="30.4759766534"><ele>79.93</ele><time>2026-08-20T20:45:08Z</time></trkpt><trkpt lat="59.1001102701" lon="30.4759442993"><ele>79.45</ele><time>2026-08-20T20:45:16Z</time></trkpt><trkpt lat="59.1001127847" lon="30.4759023897"><ele>79.45</ele><time>2026-08-20T20:45:23Z</time></trkpt><trkpt lat="59.1001296323" lon="30.4758208338"><ele>79.45</ele><time>2026-08-20T20:45:30Z</time></trkpt><trkpt lat="59.1001295485" lon="30.4757926706"><ele>79.45</ele><time>2026-08-20T20:45:35Z</time></trkpt><trkpt lat="59.1001135390" lon="30.4757604003"><ele>79.45</ele><time>2026-08-20T20:45:40Z</time></trkpt><trkpt lat="59.1000869684" lon="30.4757142160"><ele>78.97</ele><time>2026-08-20T20:45:47Z</time></trkpt><trkpt lat="59.1000510938" lon="30.4756380245"><ele>78.97</ele><time>2026-08-20T20:45:54Z</time></trkpt><trkpt lat="59.1000470705" lon="30.4756207578"><ele>78.97</ele><time>2026-08-20T20:46:01Z</time></trkpt><trkpt lat="59.1000153031" lon="30.4755805247"><ele>78.97</ele><time>2026-08-20T20:46:07Z</time></trkpt><trkpt lat="59.1000074241" lon="30.4755604081"><ele>78.97</ele><time>2026-08-20T20:46:17Z</time></trkpt><trkpt lat="59.1000035685" lon="30.4754974600"><ele>78.48</ele><time>2026-08-20T20:46:28Z</time></trkpt><trkpt lat="59.1000160575" lon="30.4754703026"><ele>78.48</ele><time>2026-08-20T20:46:34Z</time></trkpt><trkpt lat="59.1000023112" lon="30.4754253756"><ele>78.48</ele><time>2026-08-20T20:46:42Z</time></trkpt><trkpt lat="59.0999817755" lon="30.4753794428"><ele>78.48</ele><time>2026-08-20T20:46:48Z</time></trkpt><trkpt lat="59.0999847092" lon="30.4753734916"><ele>78.00</ele><time>2026-08-20T20:47:00Z</time></trkpt><trkpt lat="59.0999848768" lon="30.4753735755"><ele>78.00</ele><time>2026-08-20T20:47:13Z</time></trkpt><trkpt lat="59.0999683645" lon="30.4753381200"><ele>78.00</ele><time>2026-08-20T20:47:24Z</time></trkpt><trkpt lat="59.0999502596" lon="30.4752683826"><ele>77.52</ele><time>2026-08-20T20:47:31Z</time></trkpt><trkpt lat="59.0999462362" lon="30.4751741700"><ele>77.52</ele><time>2026-08-20T20:47:39Z</time></trkpt><trkpt lat="59.0999216773" lon="30.4751229566"><ele>77.52</ele><time>2026-08-20T20:47:47Z</time></trkpt><trkpt lat="59.0998914186" lon="30.4750639480"><ele>77.52</ele><time>2026-08-20T20:47:54Z</time></trkpt><trkpt lat="59.0998854674" lon="30.4750446696"><ele>77.04</ele><time>2026-08-20T20:48:04Z</time></trkpt><trkpt lat="59.0998921730" lon="30.4750550631"><ele>77.04</ele><time>2026-08-20T20:48:10Z</time></trkpt><trkpt lat="59.0999208391" lon="30.4750159197"><ele>77.04</ele><time>2026-08-20T20:48:18Z</time></trkpt><trkpt lat="59.0999148041" lon="30.4749661312"><ele>77.04</ele><time>2026-08-20T20:48:24Z</time></trkpt><trkpt lat="59.0998991299" lon="30.4749056976"><ele>77.04</ele><time>2026-08-20T20:48:30Z</time></trkpt><trkpt lat="59.0998909157" lon="30.4748640396"><ele>76.56</ele><time>2026-08-20T20:48:39Z</time></trkpt><trkpt lat="59.0998794325" lon="30.4748187773"><ele>76.56</ele><time>2026-08-20T20:48:46Z</time></trkpt><trkpt lat="59.0998878982" lon="30.4747525603"><ele>76.56</ele><time>2026-08-20T20:48:52Z</time></trkpt><trkpt lat="59.0999094397" lon="30.4746989161"><ele>76.56</ele><time>2026-08-20T20:48:59Z</time></trkpt><trkpt lat="59.0999119543" lon="30.4746698309"><ele>75.12</ele><time>2026-08-20T20:49:06Z</time></trkpt><trkpt lat="59.0999119543" lon="30.4746650532"><ele>75.12</ele><time>2026-08-20T20:49:07Z</time></trkpt><trkpt lat="59.0999215934" lon="30.4746403266"><ele>75.12</ele><time>2026-08-20T20:49:14Z</time></trkpt><trkpt lat="59.0999143012" lon="30.4745723493"><ele>74.64</ele><time>2026-08-20T20:49:22Z</time></trkpt><trkpt lat="59.0999083500" lon="30.4745001812"><ele>74.64</ele><time>2026-08-20T20:49:29Z</time></trkpt><trkpt lat="59.0998985432" lon="30.4744422622"><ele>74.64</ele><time>2026-08-20T20:49:35Z</time></trkpt><trkpt lat="59.0998654347" lon="30.4744001850"><ele>74.64</ele><time>2026-08-20T20:49:42Z</time></trkpt><trkpt lat="59.0998655185" lon="30.4743886180"><ele>74.64</ele><time>2026-08-20T20:49:52Z</time></trkpt><trkpt lat="59.0998439770" lon="30.4743389972"><ele>74.64</ele><time>2026-08-20T20:49:58Z</time></trkpt><trkpt lat="59.0998128802" lon="30.4742480535"><ele>74.16</ele><time>2026-08-20T20:50:04Z</time></trkpt><trkpt lat="59.0998109523" lon="30.4742034618"><ele>74.16</ele><time>2026-08-20T20:50:10Z</time></trkpt><trkpt lat="59.0998188313" lon="30.4741822556"><ele>74.16</ele><time>2026-08-20T20:50:15Z</time></trkpt><trkpt lat="59.0998166520" lon="30.4741663300"><ele>74.16</ele><time>2026-08-20T20:50:18Z</time></trkpt><trkpt lat="59.0998080187" lon="30.4740941618"><ele>74.16</ele><time>2026-08-20T20:50:25Z</time></trkpt><trkpt lat="59.0997943562" lon="30.4740515817"><ele>74.16</ele><time>2026-08-20T20:50:32Z</time></trkpt><trkpt lat="59.0997883212" lon="30.4740496539"><ele>74.16</ele><time>2026-08-20T20:50:40Z</time></trkpt><trkpt lat="59.0997703839" lon="30.4740197305"><ele>74.16</ele><time>2026-08-20T20:50:46Z</time></trkpt><trkpt lat="59.0997419693" lon="30.4739529267"><ele>73.68</ele><time>2026-08-20T20:50:52Z</time></trkpt><trkpt lat="59.0997231100" lon="30.4739263561"><ele>73.68</ele><time>2026-08-20T20:51:00Z</time></trkpt><trkpt lat="59.0997219365" lon="30.4739142023"><ele>73.20</ele><time>2026-08-20T20:51:11Z</time></trkpt><trkpt lat="59.0997055080" lon="30.4738525115"><ele>72.72</ele><time>2026-08-20T20:51:18Z</time></trkpt><trkpt lat="59.0997184999" lon="30.4738032259"><ele>72.72</ele><time>2026-08-20T20:51:25Z</time></trkpt><trkpt lat="59.0997180808" lon="30.4737903178"><ele>72.72</ele><time>2026-08-20T20:51:33Z</time></trkpt><trkpt lat="59.0997157339" lon="30.4737810139"><ele>72.72</ele><time>2026-08-20T20:51:45Z</time></trkpt><trkpt lat="59.0997124650" lon="30.4737816006"><ele>72.72</ele><time>2026-08-20T20:51:58Z</time></trkpt><trkpt lat="59.0997225232" lon="30.4737688601"><ele>72.24</ele><time>2026-08-20T20:52:14Z</time></trkpt><trkpt lat="59.0997251216" lon="30.4737541080"><ele>71.76</ele><time>2026-08-20T20:52:28Z</time></trkpt><trkpt lat="59.0997417178" lon="30.4737406131"><ele>73.20</ele><time>2026-08-20T20:52:34Z</time></trkpt><trkpt lat="59.0997458249" lon="30.4737380147"><ele>73.20</ele><time>2026-08-20T20:52:35Z</time></trkpt><trkpt lat="59.0997540392" lon="30.4736800957"><ele>73.20</ele><time>2026-08-20T20:52:43Z</time></trkpt><trkpt lat="59.0997712221" lon="30.4736620747"><ele>73.20</ele><time>2026-08-20T20:52:50Z</time></trkpt><trkpt lat="59.0997822024" lon="30.4736593086"><ele>73.20</ele><time>2026-08-20T20:52:58Z</time></trkpt><trkpt lat="59.0998008102" lon="30.4736317322"><ele>73.20</ele><time>2026-08-20T20:53:07Z</time></trkpt><trkpt lat="59.0998266265" lon="30.4736082628"><ele>73.20</ele><time>2026-08-20T20:53:13Z</time></trkpt><trkpt lat="59.0998235252" lon="30.4735577200"><ele>73.20</ele><time>2026-08-20T20:53:19Z</time></trkpt><trkpt lat="59.0998234414" lon="30.4735420458"><ele>73.20</ele><time>2026-08-20T20:53:20Z</time></trkpt><trkpt lat="59.0998130478" lon="30.4734873120"><ele>73.20</ele><time>2026-08-20T20:53:27Z</time></trkpt><trkpt lat="59.0998290572" lon="30.4734607413"><ele>72.72</ele><time>2026-08-20T20:53:35Z</time></trkpt><trkpt lat="59.0998386964" lon="30.4734499287"><ele>72.72</ele><time>2026-08-20T20:53:42Z</time></trkpt><trkpt lat="59.0998455696" lon="30.4734003078"><ele>72.72</ele><time>2026-08-20T20:53:49Z</time></trkpt><trkpt lat="59.0998733137" lon="30.4733145609"><ele>72.72</ele><time>2026-08-20T20:53:56Z</time></trkpt><trkpt lat="59.0998850483" lon="30.4732674547"><ele>72.72</ele><time>2026-08-20T20:54:03Z</time></trkpt><trkpt lat="59.0998769179" lon="30.4732182529"><ele>72.72</ele><time>2026-08-20T20:54:11Z</time></trkpt><trkpt lat="59.0998688713" lon="30.4732015729"><ele>71.76</ele><time>2026-08-20T20:54:23Z</time></trkpt><trkpt lat="59.0998687036" lon="30.4732018244"><ele>71.76</ele><time>2026-08-20T20:54:30Z</time></trkpt><trkpt lat="59.0998568013" lon="30.4731242917"><ele>71.27</ele><time>2026-08-20T20:54:36Z</time></trkpt><trkpt lat="59.0998472460" lon="30.4730714858"><ele>71.27</ele><time>2026-08-20T20:54:47Z</time></trkpt><trkpt lat="59.0998278838" lon="30.4730365332"><ele>71.27</ele><time>2026-08-20T20:54:55Z</time></trkpt><trkpt lat="59.0998065099" lon="30.4730198532"><ele>71.27</ele><time>2026-08-20T20:55:07Z</time></trkpt><trkpt lat="59.0998055879" lon="30.4730025865"><ele>71.27</ele><time>2026-08-20T20:55:17Z</time></trkpt><trkpt lat="59.0997982118" lon="30.4729945399"><ele>71.27</ele><time>2026-08-20T20:55:26Z</time></trkpt><trkpt lat="59.0997908358" lon="30.4729773570"><ele>71.27</ele><time>2026-08-20T20:55:35Z</time></trkpt><trkpt lat="59.0997899976" lon="30.4729737528"><ele>70.79</ele><time>2026-08-20T20:55:45Z</time></trkpt><trkpt lat="59.0997656900" lon="30.4729476012"><ele>70.79</ele><time>2026-08-20T20:55:59Z</time></trkpt><trkpt lat="59.0997713059" lon="30.4729222879"><ele>70.79</ele><time>2026-08-20T20:56:07Z</time></trkpt><trkpt lat="59.0997835435" lon="30.4729082063"><ele>70.31</ele><time>2026-08-20T20:56:20Z</time></trkpt><trkpt lat="59.0997754131" lon="30.4729078710"><ele>70.31</ele><time>2026-08-20T20:56:28Z</time></trkpt><trkpt lat="59.0997628402" lon="30.4729046859"><ele>70.31</ele><time>2026-08-20T20:56:41Z</time></trkpt><trkpt lat="59.0997590683" lon="30.4728979804"><ele>70.31</ele><time>2026-08-20T20:56:54Z</time></trkpt><trkpt lat="59.0997567214" lon="30.4728878383"><ele>70.31</ele><time>2026-08-20T20:57:11Z</time></trkpt><trkpt lat="59.0997552965" lon="30.4728783667"><ele>69.83</ele><time>2026-08-20T20:57:31Z</time></trkpt><trkpt lat="59.0997513570" lon="30.4728784505"><ele>69.83</ele><time>2026-08-20T20:57:40Z</time></trkpt><trkpt lat="59.0997495968" lon="30.4728771094"><ele>69.83</ele><time>2026-08-20T20:57:51Z</time></trkpt><trkpt lat="59.0997456573" lon="30.4728757683"><ele>70.79</ele><time>2026-08-20T20:58:06Z</time></trkpt><trkpt lat="59.0997475013" lon="30.4728845693"><ele>70.79</ele><time>2026-08-20T20:58:17Z</time></trkpt><trkpt lat="59.0997441486" lon="30.4728911910"><ele>70.31</ele><time>2026-08-20T20:58:31Z</time></trkpt><trkpt lat="59.0997438133" lon="30.4728910234"><ele>69.35</ele><time>2026-08-20T20:58:33Z</time></trkpt><trkpt lat="59.0997490101" lon="30.4728759360"><ele>69.35</ele><time>2026-08-20T20:58:49Z</time></trkpt><trkpt lat="59.0997544583" lon="30.4728881735"><ele>68.87</ele><time>2026-08-20T20:59:03Z</time></trkpt><trkpt lat="59.0997549612" lon="30.4729099665"><ele>68.87</ele><time>2026-08-20T20:59:15Z</time></trkpt><trkpt lat="59.0997568052" lon="30.4729170073"><ele>68.87</ele><time>2026-08-20T20:59:25Z</time></trkpt><trkpt lat="59.0997625049" lon="30.4729318433"><ele>68.87</ele><time>2026-08-20T20:59:43Z</time></trkpt><trkpt lat="59.0997623373" lon="30.4729332682"><ele>68.87</ele><time>2026-08-20T20:59:56Z</time></trkpt><trkpt lat="59.0997627564" lon="30.4729339387"><ele>68.87</ele><time>2026-08-20T21:00:14Z</time></trkpt><trkpt lat="59.0997628402" lon="30.4729344416"><ele>68.39</ele><time>2026-08-20T21:00:32Z</time></trkpt><trkpt lat="59.0997628402" lon="30.4729351122"><ele>68.39</ele><time>2026-08-20T21:00:44Z</time></trkpt><trkpt lat="59.0997627564" lon="30.4729325976"><ele>68.39</ele><time>2026-08-20T21:00:56Z</time></trkpt><trkpt lat="59.0997714736" lon="30.4729138222"><ele>68.39</ele><time>2026-08-20T21:01:14Z</time></trkpt><trkpt lat="59.0997841302" lon="30.4729018360"><ele>68.39</ele><time>2026-08-20T21:01:31Z</time></trkpt><trkpt lat="59.0997866448" lon="30.4729023390"><ele>68.39</ele><time>2026-08-20T21:01:43Z</time></trkpt><trkpt lat="59.0997883212" lon="30.4729016684"><ele>68.39</ele><time>2026-08-20T21:01:54Z</time></trkpt><trkpt lat="59.0997869801" lon="30.4728993215"><ele>68.39</ele><time>2026-08-20T21:02:03Z</time></trkpt><trkpt lat="59.0997898299" lon="30.4728875868"><ele>68.39</ele><time>2026-08-20T21:02:17Z</time></trkpt><trkpt lat="59.0997906681" lon="30.4728922807"><ele>67.91</ele><time>2026-08-20T21:02:27Z</time></trkpt><trkpt lat="59.0997931827" lon="30.4728942923"><ele>67.91</ele><time>2026-08-20T21:02:43Z</time></trkpt><trkpt lat="59.0997946076" lon="30.4728958849"><ele>67.91</ele><time>2026-08-20T21:03:04Z</time></trkpt><trkpt lat="59.0997956973" lon="30.4729078710"><ele>66.95</ele><time>2026-08-20T21:03:22Z</time></trkpt><trkpt lat="59.0997903328" lon="30.4729277361"><ele>67.91</ele><time>2026-08-20T21:03:42Z</time></trkpt><trkpt lat="59.0997885726" lon="30.4729315080"><ele>67.91</ele><time>2026-08-20T21:03:55Z</time></trkpt><trkpt lat="59.0997841302" lon="30.4729247186"><ele>67.91</ele><time>2026-08-20T21:04:10Z</time></trkpt><trkpt lat="59.0997801069" lon="30.4729338549"><ele>67.91</ele><time>2026-08-20T21:04:25Z</time></trkpt><trkpt lat="59.0997807775" lon="30.4729333520"><ele>67.91</ele><time>2026-08-20T21:04:33Z</time></trkpt><trkpt lat="59.0997842979" lon="30.4729420692"><ele>67.91</ele><time>2026-08-20T21:04:49Z</time></trkpt><trkpt lat="59.0997855552" lon="30.4729610123"><ele>67.91</ele><time>2026-08-20T21:05:07Z</time></trkpt><trkpt lat="59.0997886565" lon="30.4729642812"><ele>67.91</ele><time>2026-08-20T21:05:27Z</time></trkpt><trkpt lat="59.0997907519" lon="30.4729610961"><ele>67.91</ele><time>2026-08-20T21:05:39Z</time></trkpt><trkpt lat="59.0997858904" lon="30.4729544744"><ele>67.43</ele><time>2026-08-20T21:05:55Z</time></trkpt><trkpt lat="59.0997852199" lon="30.4729509540"><ele>67.43</ele><time>2026-08-20T21:06:16Z</time></trkpt><trkpt lat="59.0997864772" lon="30.4729515407"><ele>67.43</ele><time>2026-08-20T21:06:32Z</time></trkpt><trkpt lat="59.0997845493" lon="30.4729543068"><ele>67.43</ele><time>2026-08-20T21:06:47Z</time></trkpt><trkpt lat="59.0997863933" lon="30.4728983156"><ele>67.43</ele><time>2026-08-20T21:06:56Z</time></trkpt><trkpt lat="59.0997777600" lon="30.4727963917"><ele>67.43</ele><time>2026-08-20T21:07:02Z</time></trkpt><trkpt lat="59.0997817833" lon="30.4727419931"><ele>67.43</ele><time>2026-08-20T21:07:09Z</time></trkpt><trkpt lat="59.0997730661" lon="30.4727067053"><ele>67.43</ele><time>2026-08-20T21:07:16Z</time></trkpt><trkpt lat="59.0997889079" lon="30.4726798832"><ele>67.43</ele><time>2026-08-20T21:07:26Z</time></trkpt><trkpt lat="59.0997911710" lon="30.4726217128"><ele>67.43</ele><time>2026-08-20T21:07:31Z</time></trkpt><trkpt lat="59.0998232737" lon="30.4725549091"><ele>67.43</ele><time>2026-08-20T21:07:38Z</time></trkpt><trkpt lat="59.0998243634" lon="30.4724948108"><ele>67.43</ele><time>2026-08-20T21:07:44Z</time></trkpt><trkpt lat="59.0997967869" lon="30.4723902885"><ele>67.43</ele><time>2026-08-20T21:07:52Z</time></trkpt><trkpt lat="59.0998198371" lon="30.4723813199"><ele>67.43</ele><time>2026-08-20T21:07:58Z</time></trkpt><trkpt lat="59.0998309851" lon="30.4723720998"><ele>67.43</ele><time>2026-08-20T21:08:02Z</time></trkpt><trkpt lat="59.0998680331" lon="30.4723096546"><ele>66.95</ele><time>2026-08-20T21:08:08Z</time></trkpt><trkpt lat="59.0998858027" lon="30.4722659849"><ele>66.95</ele><time>2026-08-20T21:08:16Z</time></trkpt><trkpt lat="59.0999027342" lon="30.4722387437"><ele>66.95</ele><time>2026-08-20T21:08:22Z</time></trkpt><trkpt lat="59.0999116190" lon="30.4721778072"><ele>66.95</ele><time>2026-08-20T21:08:28Z</time></trkpt><trkpt lat="59.0999117028" lon="30.4721725266"><ele>66.95</ele><time>2026-08-20T21:08:30Z</time></trkpt><trkpt lat="59.0999123733" lon="30.4721308686"><ele>66.95</ele><time>2026-08-20T21:08:38Z</time></trkpt><trkpt lat="59.0999356750" lon="30.4721321259"><ele>66.95</ele><time>2026-08-20T21:08:41Z</time></trkpt><trkpt lat="59.0999743156" lon="30.4720901325"><ele>66.95</ele><time>2026-08-20T21:08:47Z</time></trkpt><trkpt lat="59.0999848768" lon="30.4720219877"><ele>66.95</ele><time>2026-08-20T21:08:53Z</time></trkpt><trkpt lat="59.0999982040" lon="30.4719675891"><ele>67.43</ele><time>2026-08-20T21:08:59Z</time></trkpt><trkpt lat="59.0999940969" lon="30.4719421919"><ele>67.43</ele><time>2026-08-20T21:09:04Z</time></trkpt><trkpt lat="59.0999793448" lon="30.4718696885"><ele>66.95</ele><time>2026-08-20T21:09:12Z</time></trkpt><trkpt lat="59.0999831166" lon="30.4717703629"><ele>66.95</ele><time>2026-08-20T21:09:18Z</time></trkpt><trkpt lat="59.0999670234" lon="30.4716986977"><ele>66.95</ele><time>2026-08-20T21:09:25Z</time></trkpt><trkpt lat="59.0999571327" lon="30.4716908187"><ele>66.95</ele><time>2026-08-20T21:09:41Z</time></trkpt><trkpt lat="59.0999581385" lon="30.4716832750"><ele>66.95</ele><time>2026-08-20T21:09:49Z</time></trkpt><trkpt lat="59.0999719687" lon="30.4716597218"><ele>66.95</ele><time>2026-08-20T21:09:53Z</time></trkpt><trkpt lat="59.0999907441" lon="30.4715435486"><ele>66.95</ele><time>2026-08-20T21:10:02Z</time></trkpt><trkpt lat="59.0999934264" lon="30.4715230968"><ele>66.95</ele><time>2026-08-20T21:10:13Z</time></trkpt><trkpt lat="59.0999977011" lon="30.4714949336"><ele>66.95</ele><time>2026-08-20T21:10:22Z</time></trkpt><trkpt lat="59.0999855474" lon="30.4714116175"><ele>66.95</ele><time>2026-08-20T21:10:27Z</time></trkpt><trkpt lat="59.0999588929" lon="30.4713478312"><ele>66.47</ele><time>2026-08-20T21:10:35Z</time></trkpt><trkpt lat="59.0999625809" lon="30.4713066760"><ele>66.47</ele><time>2026-08-20T21:10:40Z</time></trkpt><trkpt lat="59.0999484155" lon="30.4712409619"><ele>66.47</ele><time>2026-08-20T21:10:44Z</time></trkpt><trkpt lat="59.0999428835" lon="30.4711542930"><ele>66.47</ele><time>2026-08-20T21:10:49Z</time></trkpt><trkpt lat="59.0999278799" lon="30.4711119644"><ele>66.47</ele><time>2026-08-20T21:10:55Z</time></trkpt><trkpt lat="59.0999242757" lon="30.4710838012"><ele>66.47</ele><time>2026-08-20T21:11:04Z</time></trkpt><trkpt lat="59.0998958610" lon="30.4710216913"><ele>66.47</ele><time>2026-08-20T21:11:09Z</time></trkpt><trkpt lat="59.0998935141" lon="30.4709753394"><ele>66.47</ele><time>2026-08-20T21:11:15Z</time></trkpt><trkpt lat="59.0998713858" lon="30.4709750880"><ele>66.47</ele><time>2026-08-20T21:11:21Z</time></trkpt><trkpt lat="59.0998696256" lon="30.4709589947"><ele>66.47</ele><time>2026-08-20T21:11:29Z</time></trkpt><trkpt lat="59.0998630878" lon="30.4708947055"><ele>66.47</ele><time>2026-08-20T21:11:36Z</time></trkpt><trkpt lat="59.0998608246" lon="30.4708671290"><ele>66.47</ele><time>2026-08-20T21:11:42Z</time></trkpt><trkpt lat="59.0998734813" lon="30.4708540533"><ele>66.47</ele><time>2026-08-20T21:11:47Z</time></trkpt><trkpt lat="59.0998681169" lon="30.4708158318"><ele>65.99</ele><time>2026-08-20T21:11:54Z</time></trkpt><trkpt lat="59.0998635069" lon="30.4708147421"><ele>66.95</ele><time>2026-08-20T21:12:01Z</time></trkpt><trkpt lat="59.0998505987" lon="30.4708233755"><ele>66.95</ele><time>2026-08-20T21:12:08Z</time></trkpt><trkpt lat="59.0998446476" lon="30.4708153289"><ele>66.95</ele><time>2026-08-20T21:12:14Z</time></trkpt><trkpt lat="59.0998423006" lon="30.4707840644"><ele>66.95</ele><time>2026-08-20T21:12:21Z</time></trkpt><trkpt lat="59.0998426359" lon="30.4707770236"><ele>66.95</ele><time>2026-08-20T21:12:33Z</time></trkpt><trkpt lat="59.0998203401" lon="30.4707678035"><ele>66.47</ele><time>2026-08-20T21:12:39Z</time></trkpt><trkpt lat="59.0997997206" lon="30.4706965573"><ele>66.47</ele><time>2026-08-20T21:12:46Z</time></trkpt><trkpt lat="59.0997849684" lon="30.4706698190"><ele>66.47</ele><time>2026-08-20T21:12:51Z</time></trkpt><trkpt lat="59.0997768380" lon="30.4706088826"><ele>66.47</ele><time>2026-08-20T21:12:57Z</time></trkpt><trkpt lat="59.0997437295" lon="30.4705590941"><ele>66.47</ele><time>2026-08-20T21:13:03Z</time></trkpt><trkpt lat="59.0997421369" lon="30.4705469403"><ele>66.47</ele><time>2026-08-20T21:13:10Z</time></trkpt><trkpt lat="59.0997388680" lon="30.4705408216"><ele>66.47</ele><time>2026-08-20T21:13:20Z</time></trkpt><trkpt lat="59.0997262951" lon="30.4705239739"><ele>66.47</ele><time>2026-08-20T21:13:32Z</time></trkpt><trkpt lat="59.0997096151" lon="30.4704870936"><ele>66.47</ele><time>2026-08-20T21:13:40Z</time></trkpt><trkpt lat="59.0996979643" lon="30.4704676475"><ele>66.47</ele><time>2026-08-20T21:13:47Z</time></trkpt><trkpt lat="59.0996895824" lon="30.4704489559"><ele>66.47</ele><time>2026-08-20T21:13:53Z</time></trkpt><trkpt lat="59.0996744111" lon="30.4704245646"><ele>66.47</ele><time>2026-08-20T21:14:02Z</time></trkpt><trkpt lat="59.0996641014" lon="30.4703952279"><ele>65.99</ele><time>2026-08-20T21:14:08Z</time></trkpt><trkpt lat="59.0996526182" lon="30.4703684058"><ele>65.99</ele><time>2026-08-20T21:14:18Z</time></trkpt><trkpt lat="59.0996309090" lon="30.4703341238"><ele>65.99</ele><time>2026-08-20T21:14:24Z</time></trkpt><trkpt lat="59.0996153187" lon="30.4703340400"><ele>65.99</ele><time>2026-08-20T21:14:35Z</time></trkpt><trkpt lat="59.0996124689" lon="30.4703180306"><ele>65.99</ele><time>2026-08-20T21:14:42Z</time></trkpt><trkpt lat="59.0995955374" lon="30.4702621233"><ele>65.99</ele><time>2026-08-20T21:14:48Z</time></trkpt><trkpt lat="59.0995845571" lon="30.4702495504"><ele>65.99</ele><time>2026-08-20T21:14:58Z</time></trkpt><trkpt lat="59.0995755885" lon="30.4702539928"><ele>65.99</ele><time>2026-08-20T21:15:16Z</time></trkpt><trkpt lat="59.0995766781" lon="30.4702565912"><ele>65.99</ele><time>2026-08-20T21:15:31Z</time></trkpt><trkpt lat="59.0995735768" lon="30.4702475388"><ele>65.99</ele><time>2026-08-20T21:15:48Z</time></trkpt><trkpt lat="59.0995733254" lon="30.4702456947"><ele>65.99</ele><time>2026-08-20T21:16:07Z</time></trkpt><trkpt lat="59.0995711461" lon="30.4702337924"><ele>65.99</ele><time>2026-08-20T21:16:16Z</time></trkpt><trkpt lat="59.0995776001" lon="30.4702120833"><ele>65.99</ele><time>2026-08-20T21:16:21Z</time></trkpt><trkpt lat="59.0995768458" lon="30.4701707605"><ele>65.51</ele><time>2026-08-20T21:16:27Z</time></trkpt><trkpt lat="59.0995475091" lon="30.4701249953"><ele>65.51</ele><time>2026-08-20T21:16:34Z</time></trkpt><trkpt lat="59.0995596629" lon="30.4700731952"><ele>65.51</ele><time>2026-08-20T21:16:45Z</time></trkpt><trkpt lat="59.0995646082" lon="30.4700188804"><ele>65.51</ele><time>2026-08-20T21:16:53Z</time></trkpt><trkpt lat="59.0995677095" lon="30.4700059723"><ele>65.51</ele><time>2026-08-20T21:17:10Z</time></trkpt><trkpt lat="59.0995705593" lon="30.4700011108"><ele>65.51</ele><time>2026-08-20T21:17:25Z</time></trkpt><trkpt lat="59.0995679609" lon="30.4699986801"><ele>65.51</ele><time>2026-08-20T21:17:42Z</time></trkpt><trkpt lat="59.0995658655" lon="30.4699932318"><ele>65.51</ele><time>2026-08-20T21:17:57Z</time></trkpt><trkpt lat="59.0995470900" lon="30.4699766356"><ele>65.51</ele><time>2026-08-20T21:18:12Z</time></trkpt><trkpt lat="59.0995487664" lon="30.4699679185"><ele>65.51</ele><time>2026-08-20T21:18:19Z</time></trkpt><trkpt lat="59.0995481797" lon="30.4699674156"><ele>65.51</ele><time>2026-08-20T21:18:30Z</time></trkpt><trkpt lat="59.0995525382" lon="30.4699646495"><ele>65.51</ele><time>2026-08-20T21:18:41Z</time></trkpt><trkpt lat="59.0995527059" lon="30.4699681699"><ele>65.03</ele><time>2026-08-20T21:18:51Z</time></trkpt><trkpt lat="59.0995548852" lon="30.4699765518"><ele>65.03</ele><time>2026-08-20T21:19:09Z</time></trkpt><trkpt lat="59.0995471738" lon="30.4699869454"><ele>65.03</ele><time>2026-08-20T21:19:29Z</time></trkpt><trkpt lat="59.0995442402" lon="30.4699942376"><ele>65.03</ele><time>2026-08-20T21:19:40Z</time></trkpt><trkpt lat="59.0995417256" lon="30.4700047988"><ele>65.51</ele><time>2026-08-20T21:19:57Z</time></trkpt><trkpt lat="59.0995413065" lon="30.4700209759"><ele>64.55</ele><time>2026-08-20T21:20:13Z</time></trkpt><trkpt lat="59.0995515324" lon="30.4700217303"><ele>64.07</ele><time>2026-08-20T21:20:22Z</time></trkpt><trkpt lat="59.0995491017" lon="30.4699840117"><ele>64.07</ele><time>2026-08-20T21:20:30Z</time></trkpt><trkpt lat="59.0995524544" lon="30.4699550103"><ele>64.07</ele><time>2026-08-20T21:20:37Z</time></trkpt><trkpt lat="59.0995465871" lon="30.4699020367"><ele>64.07</ele><time>2026-08-20T21:20:43Z</time></trkpt><trkpt lat="59.0995303262" lon="30.4698828422"><ele>64.07</ele><time>2026-08-20T21:20:49Z</time></trkpt><trkpt lat="59.0995378699" lon="30.4698441178"><ele>64.07</ele><time>2026-08-20T21:21:03Z</time></trkpt><trkpt lat="59.0995369479" lon="30.4698257614"><ele>64.07</ele><time>2026-08-20T21:21:08Z</time></trkpt><trkpt lat="59.0995342657" lon="30.4698244203"><ele>64.07</ele><time>2026-08-20T21:21:10Z</time></trkpt><trkpt lat="59.0995611716" lon="30.4698050581"><ele>64.07</ele><time>2026-08-20T21:21:14Z</time></trkpt><trkpt lat="59.0995801985" lon="30.4697776493"><ele>64.07</ele><time>2026-08-20T21:21:20Z</time></trkpt><trkpt lat="59.0995927714" lon="30.4697336443"><ele>64.07</ele><time>2026-08-20T21:21:27Z</time></trkpt><trkpt lat="59.0995938610" lon="30.4696728755"><ele>64.07</ele><time>2026-08-20T21:21:44Z</time></trkpt><trkpt lat="59.0995729901" lon="30.4696650803"><ele>64.07</ele><time>2026-08-20T21:21:49Z</time></trkpt><trkpt lat="59.0995700564" lon="30.4696271941"><ele>64.07</ele><time>2026-08-20T21:21:51Z</time></trkpt><trkpt lat="59.0995542984" lon="30.4695774056"><ele>64.07</ele><time>2026-08-20T21:21:57Z</time></trkpt><trkpt lat="59.0995367803" lon="30.4695530981"><ele>64.07</ele><time>2026-08-20T21:22:05Z</time></trkpt><trkpt lat="59.0995332599" lon="30.4695248511"><ele>64.07</ele><time>2026-08-20T21:22:14Z</time></trkpt><trkpt lat="59.0995368641" lon="30.4694876354"><ele>64.07</ele><time>2026-08-20T21:22:23Z</time></trkpt><trkpt lat="59.0995337628" lon="30.4694804270"><ele>64.07</ele><time>2026-08-20T21:22:29Z</time></trkpt><trkpt lat="59.0995293204" lon="30.4694603104"><ele>64.07</ele><time>2026-08-20T21:22:35Z</time></trkpt><trkpt lat="59.0995298233" lon="30.4694121983"><ele>64.07</ele><time>2026-08-20T21:22:44Z</time></trkpt><trkpt lat="59.0995149873" lon="30.4693985358"><ele>64.07</ele><time>2026-08-20T21:22:51Z</time></trkpt><trkpt lat="59.0994993970" lon="30.4693754856"><ele>64.07</ele><time>2026-08-20T21:22:57Z</time></trkpt><trkpt lat="59.0994975530" lon="30.4693007190"><ele>64.07</ele><time>2026-08-20T21:23:06Z</time></trkpt><trkpt lat="59.0994977206" lon="30.4692956898"><ele>64.07</ele><time>2026-08-20T21:23:16Z</time></trkpt><trkpt lat="59.0994881652" lon="30.4692818597"><ele>64.07</ele><time>2026-08-20T21:23:22Z</time></trkpt><trkpt lat="59.0994849801" lon="30.4692422133"><ele>64.07</ele><time>2026-08-20T21:23:27Z</time></trkpt><trkpt lat="59.0994860698" lon="30.4692383576"><ele>64.07</ele><time>2026-08-20T21:23:33Z</time></trkpt><trkpt lat="59.0994934458" lon="30.4692055006"><ele>64.07</ele><time>2026-08-20T21:23:38Z</time></trkpt><trkpt lat="59.0994672943" lon="30.4691936821"><ele>64.07</ele><time>2026-08-20T21:23:44Z</time></trkpt><trkpt lat="59.0994557273" lon="30.4691780079"><ele>64.07</ele><time>2026-08-20T21:23:50Z</time></trkpt><trkpt lat="59.0994511172" lon="30.4691355117"><ele>64.07</ele><time>2026-08-20T21:23:53Z</time></trkpt><trkpt lat="59.0994620975" lon="30.4690718930"><ele>63.58</ele><time>2026-08-20T21:24:01Z</time></trkpt><trkpt lat="59.0994719882" lon="30.4690595716"><ele>63.58</ele><time>2026-08-20T21:24:08Z</time></trkpt><trkpt lat="59.0994864050" lon="30.4690365214"><ele>63.58</ele><time>2026-08-20T21:24:15Z</time></trkpt><trkpt lat="59.0994962957" lon="30.4690336715"><ele>63.58</ele><time>2026-08-20T21:24:20Z</time></trkpt><trkpt lat="59.0994932782" lon="30.4689793568"><ele>63.58</ele><time>2026-08-20T21:24:27Z</time></trkpt><trkpt lat="59.0995081980" lon="30.4689607490"><ele>63.58</ele><time>2026-08-20T21:24:32Z</time></trkpt><trkpt lat="59.0995176695" lon="30.4689415544"><ele>63.58</ele><time>2026-08-20T21:24:40Z</time></trkpt><trkpt lat="59.0995356068" lon="30.4689240362"><ele>63.58</ele><time>2026-08-20T21:24:51Z</time></trkpt><trkpt lat="59.0995380376" lon="30.4688728228"><ele>63.58</ele><time>2026-08-20T21:24:59Z</time></trkpt><trkpt lat="59.0995337628" lon="30.4688536283"><ele>63.10</ele><time>2026-08-20T21:25:09Z</time></trkpt><trkpt lat="59.0995333437" lon="30.4688323382"><ele>63.10</ele><time>2026-08-20T21:25:17Z</time></trkpt><trkpt lat="59.0995215252" lon="30.4687361978"><ele>63.10</ele><time>2026-08-20T21:25:23Z</time></trkpt><trkpt lat="59.0995157417" lon="30.4686715733"><ele>63.10</ele><time>2026-08-20T21:25:29Z</time></trkpt><trkpt lat="59.0995240398" lon="30.4686139897"><ele>63.10</ele><time>2026-08-20T21:25:36Z</time></trkpt><trkpt lat="59.0995361097" lon="30.4685340263"><ele>63.10</ele><time>2026-08-20T21:25:42Z</time></trkpt><trkpt lat="59.0995412227" lon="30.4684820585"><ele>63.10</ele><time>2026-08-20T21:25:49Z</time></trkpt><trkpt lat="59.0995299909" lon="30.4684474412"><ele>63.10</ele><time>2026-08-20T21:25:57Z</time></trkpt><trkpt lat="59.0995232854" lon="30.4684057832"><ele>63.10</ele><time>2026-08-20T21:26:03Z</time></trkpt><trkpt lat="59.0995238721" lon="30.4683590960"><ele>63.10</ele><time>2026-08-20T21:26:10Z</time></trkpt><trkpt lat="59.0995033365" lon="30.4683119059"><ele>63.10</ele><time>2026-08-20T21:26:16Z</time></trkpt><trkpt lat="59.0995004028" lon="30.4682395700"><ele>63.10</ele><time>2026-08-20T21:26:24Z</time></trkpt><trkpt lat="59.0994989779" lon="30.4681773763"><ele>62.62</ele><time>2026-08-20T21:26:33Z</time></trkpt><trkpt lat="59.0994931106" lon="30.4680850916"><ele>62.62</ele><time>2026-08-20T21:26:40Z</time></trkpt><trkpt lat="59.0994997323" lon="30.4680241551"><ele>62.62</ele><time>2026-08-20T21:26:47Z</time></trkpt><trkpt lat="59.0994998999" lon="30.4679728579"><ele>62.62</ele><time>2026-08-20T21:26:55Z</time></trkpt><trkpt lat="59.0994833875" lon="30.4679223150"><ele>62.62</ele><time>2026-08-20T21:27:05Z</time></trkpt><trkpt lat="59.0994793642" lon="30.4678701796"><ele>62.62</ele><time>2026-08-20T21:27:11Z</time></trkpt><trkpt lat="59.0994945355" lon="30.4678193852"><ele>62.62</ele><time>2026-08-20T21:27:19Z</time></trkpt><trkpt lat="59.0994662885" lon="30.4677224066"><ele>62.62</ele><time>2026-08-20T21:27:24Z</time></trkpt><trkpt lat="59.0994185954" lon="30.4675776511"><ele>62.14</ele><time>2026-08-20T21:27:31Z</time></trkpt><trkpt lat="59.0994253010" lon="30.4675028007"><ele>62.14</ele><time>2026-08-20T21:27:38Z</time></trkpt><trkpt lat="59.0994294081" lon="30.4674795829"><ele>62.14</ele><time>2026-08-20T21:27:40Z</time></trkpt><trkpt lat="59.0994149912" lon="30.4674212448"><ele>62.14</ele><time>2026-08-20T21:27:45Z</time></trkpt><trkpt lat="59.0993915219" lon="30.4673132021"><ele>62.14</ele><time>2026-08-20T21:27:52Z</time></trkpt><trkpt lat="59.0993822180" lon="30.4672069196"><ele>62.14</ele><time>2026-08-20T21:27:59Z</time></trkpt><trkpt lat="59.0993885882" lon="30.4671029001"><ele>62.14</ele><time>2026-08-20T21:28:06Z</time></trkpt><trkpt lat="59.0993825532" lon="30.4669827037"><ele>62.14</ele><time>2026-08-20T21:28:13Z</time></trkpt><trkpt lat="59.0993740037" lon="30.4669506848"><ele>62.14</ele><time>2026-08-20T21:28:20Z</time></trkpt><trkpt lat="59.0993719921" lon="30.4668678716"><ele>62.14</ele><time>2026-08-20T21:28:27Z</time></trkpt><trkpt lat="59.0993752610" lon="30.4667598289"><ele>61.66</ele><time>2026-08-20T21:28:34Z</time></trkpt><trkpt lat="59.0993628558" lon="30.4667361919"><ele>61.66</ele><time>2026-08-20T21:28:40Z</time></trkpt><trkpt lat="59.0993577428" lon="30.4667243734"><ele>61.66</ele><time>2026-08-20T21:28:51Z</time></trkpt><trkpt lat="59.0993725788" lon="30.4667191766"><ele>61.66</ele><time>2026-08-20T21:28:58Z</time></trkpt><trkpt lat="59.0993359499" lon="30.4666897561"><ele>61.66</ele><time>2026-08-20T21:29:11Z</time></trkpt><trkpt lat="59.0993303340" lon="30.4666737467"><ele>61.66</ele><time>2026-08-20T21:29:22Z</time></trkpt><trkpt lat="59.0993223712" lon="30.4666610062"><ele>61.66</ele><time>2026-08-20T21:29:35Z</time></trkpt><trkpt lat="59.0993077029" lon="30.4666476790"><ele>61.66</ele><time>2026-08-20T21:29:48Z</time></trkpt><trkpt lat="59.0993030090" lon="30.4666522052"><ele>61.66</ele><time>2026-08-20T21:29:50Z</time></trkpt><trkpt lat="59.0992707387" lon="30.4666563962"><ele>61.66</ele><time>2026-08-20T21:29:56Z</time></trkpt><trkpt lat="59.0991833154" lon="30.4666492715"><ele>61.66</ele><time>2026-08-20T21:30:04Z</time></trkpt><trkpt lat="59.0991242230" lon="30.4666860681"><ele>61.66</ele><time>2026-08-20T21:30:10Z</time></trkpt><trkpt lat="59.0990640409" lon="30.4666783568"><ele>61.66</ele><time>2026-08-20T21:30:17Z</time></trkpt><trkpt lat="59.0989906993" lon="30.4667164944"><ele>61.66</ele><time>2026-08-20T21:30:25Z</time></trkpt><trkpt lat="59.0989262424" lon="30.4667435680"><ele>61.66</ele><time>2026-08-20T21:30:31Z</time></trkpt><trkpt lat="59.0988813154" lon="30.4667715635"><ele>62.14</ele><time>2026-08-20T21:30:37Z</time></trkpt><trkpt lat="59.0988365561" lon="30.4667936917"><ele>62.14</ele><time>2026-08-20T21:30:41Z</time></trkpt><trkpt lat="59.0987614542" lon="30.4668257944"><ele>62.14</ele><time>2026-08-20T21:30:50Z</time></trkpt><trkpt lat="59.0987518989" lon="30.4668534547"><ele>62.14</ele><time>2026-08-20T21:30:57Z</time></trkpt><trkpt lat="59.0987655614" lon="30.4668928497"><ele>62.14</ele><time>2026-08-20T21:31:09Z</time></trkpt><trkpt lat="59.0987650584" lon="30.4669223540"><ele>62.14</ele><time>2026-08-20T21:31:16Z</time></trkpt><trkpt lat="59.0987588558" lon="30.4669413809"><ele>62.14</ele><time>2026-08-20T21:31:29Z</time></trkpt><trkpt lat="59.0987578500" lon="30.4670345038"><ele>62.14</ele><time>2026-08-20T21:31:37Z</time></trkpt><trkpt lat="59.0987295192" lon="30.4671390262"><ele>62.14</ele><time>2026-08-20T21:31:44Z</time></trkpt><trkpt lat="59.0987228137" lon="30.4672366753"><ele>62.14</ele><time>2026-08-20T21:31:51Z</time></trkpt><trkpt lat="59.0987019427" lon="30.4673311394"><ele>62.14</ele><time>2026-08-20T21:31:58Z</time></trkpt><trkpt lat="59.0987130068" lon="30.4673664272"><ele>62.14</ele><time>2026-08-20T21:32:09Z</time></trkpt><trkpt lat="59.0987068042" lon="30.4673988651"><ele>62.14</ele><time>2026-08-20T21:32:15Z</time></trkpt><trkpt lat="59.0987431817" lon="30.4674616456"><ele>62.14</ele><time>2026-08-20T21:32:22Z</time></trkpt><trkpt lat="59.0987618733" lon="30.4675381724"><ele>62.14</ele><time>2026-08-20T21:32:30Z</time></trkpt><trkpt lat="59.0987551678" lon="30.4675768968"><ele>62.14</ele><time>2026-08-20T21:32:37Z</time></trkpt><trkpt lat="59.0987398289" lon="30.4676283617"><ele>62.14</ele><time>2026-08-20T21:32:43Z</time></trkpt><trkpt lat="59.0987672377" lon="30.4677012842"><ele>62.14</ele><time>2026-08-20T21:32:51Z</time></trkpt><trkpt lat="59.0987723507" lon="30.4677482229"><ele>61.66</ele><time>2026-08-20T21:32:58Z</time></trkpt><trkpt lat="59.0987648070" lon="30.4677699320"><ele>62.14</ele><time>2026-08-20T21:33:00Z</time></trkpt><trkpt lat="59.0987396613" lon="30.4678400885"><ele>61.66</ele><time>2026-08-20T21:33:06Z</time></trkpt><trkpt lat="59.0987350512" lon="30.4678907990"><ele>61.66</ele><time>2026-08-20T21:33:14Z</time></trkpt><trkpt lat="59.0987313632" lon="30.4679336306"><ele>62.62</ele><time>2026-08-20T21:33:21Z</time></trkpt><trkpt lat="59.0987049602" lon="30.4679949023"><ele>62.62</ele><time>2026-08-20T21:33:28Z</time></trkpt><trkpt lat="59.0987007692" lon="30.4680601135"><ele>63.10</ele><time>2026-08-20T21:33:35Z</time></trkpt><trkpt lat="59.0986981709" lon="30.4680886120"><ele>63.10</ele><time>2026-08-20T21:33:41Z</time></trkpt><trkpt lat="59.0987031162" lon="30.4681044538"><ele>63.10</ele><time>2026-08-20T21:33:43Z</time></trkpt><trkpt lat="59.0987255797" lon="30.4681765381"><ele>63.10</ele><time>2026-08-20T21:33:49Z</time></trkpt><trkpt lat="59.0987181198" lon="30.4682694934"><ele>63.10</ele><time>2026-08-20T21:33:56Z</time></trkpt><trkpt lat="59.0987234004" lon="30.4682790488"><ele>63.10</ele><time>2026-08-20T21:34:07Z</time></trkpt><trkpt lat="59.0987266693" lon="30.4683352914"><ele>62.62</ele><time>2026-08-20T21:34:16Z</time></trkpt><trkpt lat="59.0987482946" lon="30.4683746025"><ele>62.62</ele><time>2026-08-20T21:34:22Z</time></trkpt><trkpt lat="59.0987483785" lon="30.4683763627"><ele>62.62</ele><time>2026-08-20T21:34:23Z</time></trkpt><trkpt lat="59.0987472050" lon="30.4684749339"><ele>62.62</ele><time>2026-08-20T21:34:29Z</time></trkpt><trkpt lat="59.0987437684" lon="30.4685201962"><ele>62.62</ele><time>2026-08-20T21:34:36Z</time></trkpt><trkpt lat="59.0987442713" lon="30.4685899336"><ele>62.62</ele><time>2026-08-20T21:34:41Z</time></trkpt><trkpt lat="59.0987328719" lon="30.4686412308"><ele>62.62</ele><time>2026-08-20T21:34:47Z</time></trkpt><trkpt lat="59.0987393260" lon="30.4686418176"><ele>62.62</ele><time>2026-08-20T21:35:02Z</time></trkpt><trkpt lat="59.0987436846" lon="30.4686941206"><ele>62.62</ele><time>2026-08-20T21:35:12Z</time></trkpt><trkpt lat="59.0987355541" lon="30.4687418137"><ele>62.62</ele><time>2026-08-20T21:35:18Z</time></trkpt><trkpt lat="59.0987510607" lon="30.4688231181"><ele>62.62</ele><time>2026-08-20T21:35:24Z</time></trkpt><trkpt lat="59.0987477079" lon="30.4688807018"><ele>62.62</ele><time>2026-08-20T21:35:31Z</time></trkpt><trkpt lat="59.0987534914" lon="30.4689124692"><ele>62.62</ele><time>2026-08-20T21:35:37Z</time></trkpt><trkpt lat="59.0987606160" lon="30.4689739924"><ele>62.62</ele><time>2026-08-20T21:35:43Z</time></trkpt><trkpt lat="59.0987597778" lon="30.4689837154"><ele>62.62</ele><time>2026-08-20T21:35:50Z</time></trkpt><trkpt lat="59.0987513959" lon="30.4690321628"><ele>62.14</ele><time>2026-08-20T21:35:58Z</time></trkpt><trkpt lat="59.0987589397" lon="30.4690540396"><ele>62.14</ele><time>2026-08-20T21:36:03Z</time></trkpt><trkpt lat="59.0987518150" lon="30.4690746590"><ele>62.14</ele><time>2026-08-20T21:36:14Z</time></trkpt><trkpt lat="59.0987474564" lon="30.4690904170"><ele>62.14</ele><time>2026-08-20T21:36:20Z</time></trkpt><trkpt lat="59.0987493005" lon="30.4691282194"><ele>62.14</ele><time>2026-08-20T21:36:29Z</time></trkpt><trkpt lat="59.0987450257" lon="30.4691670276"><ele>62.14</ele><time>2026-08-20T21:36:36Z</time></trkpt><trkpt lat="59.0987461153" lon="30.4691687878"><ele>62.14</ele><time>2026-08-20T21:36:44Z</time></trkpt><trkpt lat="59.0987353027" lon="30.4692139663"><ele>62.14</ele><time>2026-08-20T21:36:47Z</time></trkpt><trkpt lat="59.0987433493" lon="30.4692724720"><ele>62.14</ele><time>2026-08-20T21:36:53Z</time></trkpt><trkpt lat="59.0987246577" lon="30.4693292174"><ele>62.14</ele><time>2026-08-20T21:37:00Z</time></trkpt><trkpt lat="59.0987015236" lon="30.4693923332"><ele>62.14</ele><time>2026-08-20T21:37:07Z</time></trkpt><trkpt lat="59.0986935608" lon="30.4694272857"><ele>62.14</ele><time>2026-08-20T21:37:14Z</time></trkpt><trkpt lat="59.0986793954" lon="30.4694795050"><ele>62.14</ele><time>2026-08-20T21:37:25Z</time></trkpt><trkpt lat="59.0986732766" lon="30.4695429560"><ele>62.14</ele><time>2026-08-20T21:37:31Z</time></trkpt><trkpt lat="59.0986708459" lon="30.4696390964"><ele>62.14</ele><time>2026-08-20T21:37:38Z</time></trkpt><trkpt lat="59.0986527409" lon="30.4696793295"><ele>61.66</ele><time>2026-08-20T21:37:45Z</time></trkpt><trkpt lat="59.0986548364" lon="30.4697049782"><ele>61.66</ele><time>2026-08-20T21:37:51Z</time></trkpt><trkpt lat="59.0986564290" lon="30.4696971830"><ele>61.18</ele><time>2026-08-20T21:38:01Z</time></trkpt><trkpt lat="59.0986607876" lon="30.4697333090"><ele>60.70</ele><time>2026-08-20T21:38:08Z</time></trkpt><trkpt lat="59.0986798145" lon="30.4697715305"><ele>60.70</ele><time>2026-08-20T21:38:15Z</time></trkpt><trkpt lat="59.0987021942" lon="30.4698057286"><ele>60.70</ele><time>2026-08-20T21:38:28Z</time></trkpt><trkpt lat="59.0986979194" lon="30.4698291142"><ele>60.70</ele><time>2026-08-20T21:38:36Z</time></trkpt><trkpt lat="59.0987083968" lon="30.4698225763"><ele>60.70</ele><time>2026-08-20T21:38:52Z</time></trkpt><trkpt lat="59.0987114143" lon="30.4698640667"><ele>60.70</ele><time>2026-08-20T21:38:57Z</time></trkpt><trkpt lat="59.0986975841" lon="30.4698929843"><ele>60.70</ele><time>2026-08-20T21:39:04Z</time></trkpt><trkpt lat="59.0986666549" lon="30.4699656554"><ele>60.70</ele><time>2026-08-20T21:39:09Z</time></trkpt><trkpt lat="59.0986570995" lon="30.4699724447"><ele>60.70</ele><time>2026-08-20T21:39:16Z</time></trkpt><trkpt lat="59.0986602008" lon="30.4699744564"><ele>60.70</ele><time>2026-08-20T21:39:22Z</time></trkpt><trkpt lat="59.0986665711" lon="30.4700334650"><ele>60.70</ele><time>2026-08-20T21:39:35Z</time></trkpt><trkpt lat="59.0986760426" lon="30.4700612929"><ele>60.70</ele><time>2026-08-20T21:39:43Z</time></trkpt><trkpt lat="59.0987060498" lon="30.4701043759"><ele>60.70</ele><time>2026-08-20T21:39:50Z</time></trkpt><trkpt lat="59.0987385716" lon="30.4701519851"><ele>60.70</ele><time>2026-08-20T21:39:58Z</time></trkpt><trkpt lat="59.0987694170" lon="30.4701991752"><ele>60.70</ele><time>2026-08-20T21:40:03Z</time></trkpt><trkpt lat="59.0987788886" lon="30.4702416714"><ele>60.70</ele><time>2026-08-20T21:40:09Z</time></trkpt><trkpt lat="59.0987880249" lon="30.4703248199"><ele>60.70</ele><time>2026-08-20T21:40:16Z</time></trkpt><trkpt lat="59.0987974126" lon="30.4703272507"><ele>60.70</ele><time>2026-08-20T21:40:26Z</time></trkpt><trkpt lat="59.0988108236" lon="30.4703326151"><ele>60.70</ele><time>2026-08-20T21:40:32Z</time></trkpt><trkpt lat="59.0988410823" lon="30.4703519773"><ele>60.22</ele><time>2026-08-20T21:40:39Z</time></trkpt><trkpt lat="59.0988449380" lon="30.4703717586"><ele>60.22</ele><time>2026-08-20T21:40:45Z</time></trkpt><trkpt lat="59.0988493804" lon="30.4703943897"><ele>60.22</ele><time>2026-08-20T21:40:47Z</time></trkpt><trkpt lat="59.0988575947" lon="30.4704171047"><ele>60.22</ele><time>2026-08-20T21:40:51Z</time></trkpt><trkpt lat="59.0988661442" lon="30.4704541527"><ele>60.22</ele><time>2026-08-20T21:40:57Z</time></trkpt><trkpt lat="59.0988762863" lon="30.4704779573"><ele>60.22</ele><time>2026-08-20T21:41:04Z</time></trkpt><trkpt lat="59.0988879371" lon="30.4705066234"><ele>60.22</ele><time>2026-08-20T21:41:09Z</time></trkpt><trkpt lat="59.0988921281" lon="30.4705443420"><ele>60.22</ele><time>2026-08-20T21:41:15Z</time></trkpt><trkpt lat="59.0989159327" lon="30.4706133250"><ele>60.22</ele><time>2026-08-20T21:41:21Z</time></trkpt><trkpt lat="59.0989271645" lon="30.4706423264"><ele>60.22</ele><time>2026-08-20T21:41:27Z</time></trkpt><trkpt lat="59.0989257395" lon="30.4706730880"><ele>60.22</ele><time>2026-08-20T21:41:32Z</time></trkpt><trkpt lat="59.0989281703" lon="30.4706783686"><ele>60.22</ele><time>2026-08-20T21:41:43Z</time></trkpt><trkpt lat="59.0989337023" lon="30.4706776980"><ele>60.22</ele><time>2026-08-20T21:41:56Z</time></trkpt><trkpt lat="59.0989304334" lon="30.4706854094"><ele>60.22</ele><time>2026-08-20T21:42:06Z</time></trkpt><trkpt lat="59.0989290085" lon="30.4706969764"><ele>60.22</ele><time>2026-08-20T21:42:17Z</time></trkpt><trkpt lat="59.0989285056" lon="30.4707005806"><ele>60.22</ele><time>2026-08-20T21:42:20Z</time></trkpt><trkpt lat="59.0989241470" lon="30.4707075376"><ele>60.22</ele><time>2026-08-20T21:42:22Z</time></trkpt><trkpt lat="59.0989357978" lon="30.4707451724"><ele>60.22</ele><time>2026-08-20T21:42:25Z</time></trkpt><trkpt lat="59.0989227220" lon="30.4708376247"><ele>60.22</ele><time>2026-08-20T21:42:33Z</time></trkpt><trkpt lat="59.0989142563" lon="30.4708962981"><ele>59.74</ele><time>2026-08-20T21:42:40Z</time></trkpt><trkpt lat="59.0989165194" lon="30.4709240422"><ele>59.74</ele><time>2026-08-20T21:42:42Z</time></trkpt><trkpt lat="59.0989034437" lon="30.4709470086"><ele>59.74</ele><time>2026-08-20T21:42:47Z</time></trkpt><trkpt lat="59.0989131667" lon="30.4709853139"><ele>59.74</ele><time>2026-08-20T21:42:53Z</time></trkpt><trkpt lat="59.0989176929" lon="30.4710170813"><ele>59.74</ele><time>2026-08-20T21:42:56Z</time></trkpt><trkpt lat="59.0989141725" lon="30.4710402992"><ele>59.74</ele><time>2026-08-20T21:43:01Z</time></trkpt><trkpt lat="59.0989225544" lon="30.4710832983"><ele>59.74</ele><time>2026-08-20T21:43:07Z</time></trkpt><trkpt lat="59.0989197046" lon="30.4711309075"><ele>59.74</ele><time>2026-08-20T21:43:14Z</time></trkpt><trkpt lat="59.0989225544" lon="30.4711688776"><ele>59.74</ele><time>2026-08-20T21:43:20Z</time></trkpt><trkpt lat="59.0989226382" lon="30.4711889941"><ele>59.74</ele><time>2026-08-20T21:43:23Z</time></trkpt><trkpt lat="59.0989247337" lon="30.4712184146"><ele>59.74</ele><time>2026-08-20T21:43:25Z</time></trkpt><trkpt lat="59.0989324450" lon="30.4712759983"><ele>59.74</ele><time>2026-08-20T21:43:30Z</time></trkpt><trkpt lat="59.0989247337" lon="30.4713139683"><ele>59.74</ele><time>2026-08-20T21:43:34Z</time></trkpt><trkpt lat="59.0989207104" lon="30.4713788442"><ele>59.74</ele><time>2026-08-20T21:43:39Z</time></trkpt><trkpt lat="59.0989272483" lon="30.4714173172"><ele>59.74</ele><time>2026-08-20T21:43:44Z</time></trkpt><trkpt lat="59.0989221353" lon="30.4714396130"><ele>59.74</ele><time>2026-08-20T21:43:49Z</time></trkpt><trkpt lat="59.0989317745" lon="30.4714747332"><ele>59.74</ele><time>2026-08-20T21:43:55Z</time></trkpt><trkpt lat="59.0989446826" lon="30.4715223424"><ele>59.74</ele><time>2026-08-20T21:44:01Z</time></trkpt><trkpt lat="59.0989526454" lon="30.4715433810"><ele>59.74</ele><time>2026-08-20T21:44:11Z</time></trkpt><trkpt lat="59.0989541542" lon="30.4715505056"><ele>59.74</ele><time>2026-08-20T21:44:14Z</time></trkpt><trkpt lat="59.0989751089" lon="30.4715889785"><ele>59.74</ele><time>2026-08-20T21:44:21Z</time></trkpt><trkpt lat="59.0989956446" lon="30.4715753160"><ele>59.74</ele><time>2026-08-20T21:44:27Z</time></trkpt><trkpt lat="59.0990094747" lon="30.4715631623"><ele>59.74</ele><time>2026-08-20T21:44:31Z</time></trkpt><trkpt lat="59.0990433376" lon="30.4715357535"><ele>59.74</ele><time>2026-08-20T21:44:37Z</time></trkpt><trkpt lat="59.0990458522" lon="30.4715394415"><ele>59.74</ele><time>2026-08-20T21:44:45Z</time></trkpt><trkpt lat="59.0990469418" lon="30.4715375975"><ele>59.74</ele><time>2026-08-20T21:44:49Z</time></trkpt><trkpt lat="59.0990937129" lon="30.4715313111"><ele>59.26</ele><time>2026-08-20T21:44:55Z</time></trkpt><trkpt lat="59.0991050284" lon="30.4715321492"><ele>59.26</ele><time>2026-08-20T21:44:57Z</time></trkpt><trkpt lat="59.0991370473" lon="30.4715768248"><ele>59.26</ele><time>2026-08-20T21:45:03Z</time></trkpt><trkpt lat="59.0991421603" lon="30.4715789203"><ele>59.26</ele><time>2026-08-20T21:45:04Z</time></trkpt><trkpt lat="59.0991709102" lon="30.4715835303"><ele>59.26</ele><time>2026-08-20T21:45:09Z</time></trkpt><trkpt lat="59.0991823096" lon="30.4716358334"><ele>59.26</ele><time>2026-08-20T21:45:17Z</time></trkpt><trkpt lat="59.0991876740" lon="30.4716168065"><ele>59.26</ele><time>2026-08-20T21:45:23Z</time></trkpt><trkpt lat="59.0992186870" lon="30.4715909902"><ele>59.26</ele><time>2026-08-20T21:45:29Z</time></trkpt><trkpt lat="59.0992264822" lon="30.4716031440"><ele>59.26</ele><time>2026-08-20T21:45:37Z</time></trkpt><trkpt lat="59.0992460959" lon="30.4715966899"><ele>58.78</ele><time>2026-08-20T21:45:48Z</time></trkpt><trkpt lat="59.0993021708" lon="30.4715696163"><ele>58.78</ele><time>2026-08-20T21:45:54Z</time></trkpt><trkpt lat="59.0993531328" lon="30.4715523496"><ele>58.78</ele><time>2026-08-20T21:46:00Z</time></trkpt><trkpt lat="59.0993529651" lon="30.4715474043"><ele>58.78</ele><time>2026-08-20T21:46:09Z</time></trkpt><trkpt lat="59.0993543901" lon="30.4715597257"><ele>58.78</ele><time>2026-08-20T21:46:17Z</time></trkpt><trkpt lat="59.0993791167" lon="30.4716564529"><ele>58.78</ele><time>2026-08-20T21:46:23Z</time></trkpt><trkpt lat="59.0994120575" lon="30.4717367515"><ele>58.78</ele><time>2026-08-20T21:46:31Z</time></trkpt><trkpt lat="59.0994170029" lon="30.4717745539"><ele>58.78</ele><time>2026-08-20T21:46:36Z</time></trkpt><trkpt lat="59.0994021669" lon="30.4717829358"><ele>58.78</ele><time>2026-08-20T21:46:48Z</time></trkpt><trkpt lat="59.0993745066" lon="30.4718625639"><ele>58.78</ele><time>2026-08-20T21:46:55Z</time></trkpt><trkpt lat="59.0993517078" lon="30.4719285294"><ele>58.78</ele><time>2026-08-20T21:47:01Z</time></trkpt><trkpt lat="59.0993409790" lon="30.4720326327"><ele>58.78</ele><time>2026-08-20T21:47:07Z</time></trkpt><trkpt lat="59.0993201081" lon="30.4721163679"><ele>58.78</ele><time>2026-08-20T21:47:14Z</time></trkpt><trkpt lat="59.0993175935" lon="30.4721897095"><ele>58.78</ele><time>2026-08-20T21:47:20Z</time></trkpt><trkpt lat="59.0993057750" lon="30.4722628836"><ele>58.78</ele><time>2026-08-20T21:47:29Z</time></trkpt><trkpt lat="59.0993039310" lon="30.4722682480"><ele>58.78</ele><time>2026-08-20T21:47:38Z</time></trkpt><trkpt lat="59.0993098821" lon="30.4722801503"><ele>58.78</ele><time>2026-08-20T21:47:48Z</time></trkpt><trkpt lat="59.0993138216" lon="30.4722840898"><ele>58.78</ele><time>2026-08-20T21:47:58Z</time></trkpt><trkpt lat="59.0992906038" lon="30.4723575152"><ele>58.78</ele><time>2026-08-20T21:48:06Z</time></trkpt><trkpt lat="59.0992799588" lon="30.4724348802"><ele>58.78</ele><time>2026-08-20T21:48:11Z</time></trkpt><trkpt lat="59.0992793720" lon="30.4725229740"><ele>58.78</ele><time>2026-08-20T21:48:19Z</time></trkpt><trkpt lat="59.0992830601" lon="30.4726094753"><ele>58.78</ele><time>2026-08-20T21:48:25Z</time></trkpt><trkpt lat="59.0992702357" lon="30.4726985749"><ele>58.78</ele><time>2026-08-20T21:48:30Z</time></trkpt><trkpt lat="59.0992820542" lon="30.4727549851"><ele>58.30</ele><time>2026-08-20T21:48:35Z</time></trkpt><trkpt lat="59.0992932022" lon="30.4727585893"><ele>58.30</ele><time>2026-08-20T21:48:48Z</time></trkpt><trkpt lat="59.0992755163" lon="30.4727973975"><ele>58.30</ele><time>2026-08-20T21:48:54Z</time></trkpt><trkpt lat="59.0992828086" lon="30.4728429951"><ele>58.30</ele><time>2026-08-20T21:49:00Z</time></trkpt><trkpt lat="59.0992595907" lon="30.4729175940"><ele>58.30</ele><time>2026-08-20T21:49:05Z</time></trkpt><trkpt lat="59.0992490295" lon="30.4729646165"><ele>58.30</ele><time>2026-08-20T21:49:11Z</time></trkpt><trkpt lat="59.0992002469" lon="30.4730236251"><ele>58.30</ele><time>2026-08-20T21:49:17Z</time></trkpt><trkpt lat="59.0991797112" lon="30.4730773531"><ele>58.30</ele><time>2026-08-20T21:49:22Z</time></trkpt><trkpt lat="59.0991854947" lon="30.4731419776"><ele>58.30</ele><time>2026-08-20T21:49:28Z</time></trkpt><trkpt lat="59.0991879255" lon="30.4731852282"><ele>58.30</ele><time>2026-08-20T21:49:35Z</time></trkpt><trkpt lat="59.0991836507" lon="30.4732203484"><ele>58.30</ele><time>2026-08-20T21:49:42Z</time></trkpt><trkpt lat="59.0992099699" lon="30.4732894991"><ele>58.30</ele><time>2026-08-20T21:49:49Z</time></trkpt><trkpt lat="59.0992154181" lon="30.4733637627"><ele>58.30</ele><time>2026-08-20T21:49:55Z</time></trkpt><trkpt lat="59.0992078744" lon="30.4734187480"><ele>58.30</ele><time>2026-08-20T21:50:02Z</time></trkpt><trkpt lat="59.0992019232" lon="30.4734505154"><ele>58.30</ele><time>2026-08-20T21:50:07Z</time></trkpt><trkpt lat="59.0992069524" lon="30.4734466597"><ele>58.30</ele><time>2026-08-20T21:50:13Z</time></trkpt><trkpt lat="59.0992025938" lon="30.4735054169"><ele>58.30</ele><time>2026-08-20T21:50:20Z</time></trkpt><trkpt lat="59.0991973132" lon="30.4736353364"><ele>58.30</ele><time>2026-08-20T21:50:28Z</time></trkpt><trkpt lat="59.0992028452" lon="30.4736707918"><ele>58.30</ele><time>2026-08-20T21:50:39Z</time></trkpt><trkpt lat="59.0992090479" lon="30.4736798443"><ele>58.30</ele><time>2026-08-20T21:50:45Z</time></trkpt><trkpt lat="59.0992155019" lon="30.4737311415"><ele>58.30</ele><time>2026-08-20T21:50:52Z</time></trkpt><trkpt lat="59.0992283262" lon="30.4737497494"><ele>58.30</ele><time>2026-08-20T21:51:04Z</time></trkpt><trkpt lat="59.0992268175" lon="30.4737624899"><ele>58.30</ele><time>2026-08-20T21:51:19Z</time></trkpt><trkpt lat="59.0992248897" lon="30.4737607297"><ele>58.30</ele><time>2026-08-20T21:51:29Z</time></trkpt><trkpt lat="59.0992204472" lon="30.4737731349"><ele>58.30</ele><time>2026-08-20T21:51:37Z</time></trkpt><trkpt lat="59.0992269013" lon="30.4738066625"><ele>58.30</ele><time>2026-08-20T21:51:52Z</time></trkpt><trkpt lat="59.0992403124" lon="30.4738124460"><ele>58.30</ele><time>2026-08-20T21:52:00Z</time></trkpt><trkpt lat="59.0992428269" lon="30.4738042317"><ele>58.30</ele><time>2026-08-20T21:52:10Z</time></trkpt><trkpt lat="59.0992452577" lon="30.4738017172"><ele>58.30</ele><time>2026-08-20T21:52:16Z</time></trkpt><trkpt lat="59.0992514603" lon="30.4737959336"><ele>58.30</ele><time>2026-08-20T21:52:24Z</time></trkpt><trkpt lat="59.0992616862" lon="30.4738110211"><ele>58.30</ele><time>2026-08-20T21:52:37Z</time></trkpt><trkpt lat="59.0992630273" lon="30.4737948440"><ele>58.30</ele><time>2026-08-20T21:52:48Z</time></trkpt><trkpt lat="59.0992656257" lon="30.4737934191"><ele>58.30</ele><time>2026-08-20T21:52:54Z</time></trkpt><trkpt lat="59.0992652904" lon="30.4738038126"><ele>58.30</ele><time>2026-08-20T21:52:55Z</time></trkpt><trkpt lat="59.0992709063" lon="30.4738476500"><ele>58.30</ele><time>2026-08-20T21:53:01Z</time></trkpt><trkpt lat="59.0992484428" lon="30.4738914873"><ele>58.30</ele><time>2026-08-20T21:53:09Z</time></trkpt><trkpt lat="59.0992017556" lon="30.4738955107"><ele>58.30</ele><time>2026-08-20T21:53:15Z</time></trkpt><trkpt lat="59.0991831478" lon="30.4739268590"><ele>58.30</ele><time>2026-08-20T21:53:26Z</time></trkpt><trkpt lat="59.0991644561" lon="30.4739686009"><ele>58.30</ele><time>2026-08-20T21:53:30Z</time></trkpt><trkpt lat="59.0991251450" lon="30.4740129411"><ele>58.30</ele><time>2026-08-20T21:53:37Z</time></trkpt><trkpt lat="59.0990936290" lon="30.4740255978"><ele>58.30</ele><time>2026-08-20T21:53:44Z</time></trkpt><trkpt lat="59.0991031006" lon="30.4740563594"><ele>58.30</ele><time>2026-08-20T21:53:52Z</time></trkpt><trkpt lat="59.0991033521" lon="30.4740823433"><ele>58.30</ele><time>2026-08-20T21:54:01Z</time></trkpt><trkpt lat="59.0990782063" lon="30.4741265159"><ele>58.30</ele><time>2026-08-20T21:54:06Z</time></trkpt><trkpt lat="59.0990650468" lon="30.4741848540"><ele>58.30</ele><time>2026-08-20T21:54:12Z</time></trkpt><trkpt lat="59.0990486182" lon="30.4742130172"><ele>58.30</ele><time>2026-08-20T21:54:15Z</time></trkpt><trkpt lat="59.0990183596" lon="30.4742792342"><ele>58.30</ele><time>2026-08-20T21:54:21Z</time></trkpt><trkpt lat="59.0990311839" lon="30.4743173718"><ele>58.30</ele><time>2026-08-20T21:54:29Z</time></trkpt><trkpt lat="59.0990339499" lon="30.4743539169"><ele>58.30</ele><time>2026-08-20T21:54:34Z</time></trkpt><trkpt lat="59.0990405716" lon="30.4743586108"><ele>58.30</ele><time>2026-08-20T21:54:43Z</time></trkpt><trkpt lat="59.0990448464" lon="30.4743654002"><ele>58.30</ele><time>2026-08-20T21:54:53Z</time></trkpt><trkpt lat="59.0990402363" lon="30.4743700940"><ele>58.30</ele><time>2026-08-20T21:55:07Z</time></trkpt><trkpt lat="59.0990538988" lon="30.4743654002"><ele>58.30</ele><time>2026-08-20T21:55:19Z</time></trkpt><trkpt lat="59.0990552399" lon="30.4743578564"><ele>58.30</ele><time>2026-08-20T21:55:31Z</time></trkpt><trkpt lat="59.0990580898" lon="30.4743600357"><ele>58.30</ele><time>2026-08-20T21:55:44Z</time></trkpt><trkpt lat="59.0990588441" lon="30.4743624665"><ele>58.30</ele><time>2026-08-20T21:55:57Z</time></trkpt><trkpt lat="59.0990496241" lon="30.4743542522"><ele>58.30</ele><time>2026-08-20T21:56:12Z</time></trkpt><trkpt lat="59.0990507975" lon="30.4743478820"><ele>58.30</ele><time>2026-08-20T21:56:25Z</time></trkpt><trkpt lat="59.0990529768" lon="30.4743489716"><ele>58.30</ele><time>2026-08-20T21:56:40Z</time></trkpt><trkpt lat="59.0990507137" lon="30.4743734468"><ele>58.30</ele><time>2026-08-20T21:56:49Z</time></trkpt><trkpt lat="59.0990523063" lon="30.4744052980"><ele>58.30</ele><time>2026-08-20T21:56:52Z</time></trkpt><trkpt lat="59.0990481153" lon="30.4744369816"><ele>58.30</ele><time>2026-08-20T21:56:54Z</time></trkpt><trkpt lat="59.0990482830" lon="30.4744676594"><ele>58.30</ele><time>2026-08-20T21:57:02Z</time></trkpt><trkpt lat="59.0990433376" lon="30.4744940624"><ele>58.30</ele><time>2026-08-20T21:57:14Z</time></trkpt><trkpt lat="59.0990376379" lon="30.4745560884"><ele>58.30</ele><time>2026-08-20T21:57:20Z</time></trkpt><trkpt lat="59.0990328602" lon="30.4745627940"><ele>58.30</ele><time>2026-08-20T21:57:22Z</time></trkpt><trkpt lat="59.0990615264" lon="30.4746203776"><ele>58.30</ele><time>2026-08-20T21:57:29Z</time></trkpt><trkpt lat="59.0990847442" lon="30.4746571742"><ele>58.30</ele><time>2026-08-20T21:57:35Z</time></trkpt><trkpt lat="59.0990962274" lon="30.4746958148"><ele>58.30</ele><time>2026-08-20T21:57:40Z</time></trkpt><trkpt lat="59.0991004184" lon="30.4747335333"><ele>57.82</ele><time>2026-08-20T21:57:46Z</time></trkpt><trkpt lat="59.0990834031" lon="30.4747539852"><ele>57.82</ele><time>2026-08-20T21:57:52Z</time></trkpt><trkpt lat="59.0990829002" lon="30.4747529794"><ele>58.78</ele><time>2026-08-20T21:57:55Z</time></trkpt><trkpt lat="59.0990787093" lon="30.4747727606"><ele>59.26</ele><time>2026-08-20T21:58:00Z</time></trkpt><trkpt lat="59.0990768652" lon="30.4747866746"><ele>59.26</ele><time>2026-08-20T21:58:01Z</time></trkpt><trkpt lat="59.0990608558" lon="30.4748479463"><ele>59.26</ele><time>2026-08-20T21:58:05Z</time></trkpt><trkpt lat="59.0990880132" lon="30.4749083798"><ele>59.26</ele><time>2026-08-20T21:58:12Z</time></trkpt><trkpt lat="59.0990872588" lon="30.4749513790"><ele>59.26</ele><time>2026-08-20T21:58:17Z</time></trkpt><trkpt lat="59.0990934614" lon="30.4749765247"><ele>59.26</ele><time>2026-08-20T21:58:23Z</time></trkpt><trkpt lat="59.0991089679" lon="30.4749623593"><ele>59.26</ele><time>2026-08-20T21:58:29Z</time></trkpt><trkpt lat="59.0991324373" lon="30.4750363715"><ele>59.26</ele><time>2026-08-20T21:58:35Z</time></trkpt><trkpt lat="59.0991446748" lon="30.4751211125"><ele>59.26</ele><time>2026-08-20T21:58:43Z</time></trkpt><trkpt lat="59.0991488658" lon="30.4751522932"><ele>59.26</ele><time>2026-08-20T21:58:50Z</time></trkpt><trkpt lat="59.0991739277" lon="30.4751698114"><ele>59.26</ele><time>2026-08-20T21:58:56Z</time></trkpt><trkpt lat="59.0991954692" lon="30.4751866590"><ele>59.26</ele><time>2026-08-20T21:59:00Z</time></trkpt><trkpt lat="59.0992073715" lon="30.4752270598"><ele>59.26</ele><time>2026-08-20T21:59:06Z</time></trkpt><trkpt lat="59.0992262308" lon="30.4752364475"><ele>58.78</ele><time>2026-08-20T21:59:11Z</time></trkpt><trkpt lat="59.0992369596" lon="30.4752606712"><ele>58.78</ele><time>2026-08-20T21:59:17Z</time></trkpt><trkpt lat="59.0992240515" lon="30.4753465019"><ele>58.78</ele><time>2026-08-20T21:59:24Z</time></trkpt><trkpt lat="59.0992124844" lon="30.4753853101"><ele>58.78</ele><time>2026-08-20T21:59:34Z</time></trkpt><trkpt lat="59.0991922002" lon="30.4754343443"><ele>58.78</ele><time>2026-08-20T21:59:39Z</time></trkpt><trkpt lat="59.0991668869" lon="30.4754546285"><ele>57.82</ele><time>2026-08-20T21:59:45Z</time></trkpt><trkpt lat="59.0991389751" lon="30.4755244497"><ele>57.82</ele><time>2026-08-20T21:59:53Z</time></trkpt><trkpt lat="59.0991352033" lon="30.4755511880"><ele>57.82</ele><time>2026-08-20T21:59:55Z</time></trkpt><trkpt lat="59.0991242230" lon="30.4756273795"><ele>57.82</ele><time>2026-08-20T22:00:01Z</time></trkpt><trkpt lat="59.0991223790" lon="30.4756483342"><ele>57.82</ele><time>2026-08-20T22:00:07Z</time></trkpt><trkpt lat="59.0991354547" lon="30.4757031519"><ele>57.82</ele><time>2026-08-20T22:00:14Z</time></trkpt><trkpt lat="59.0991513804" lon="30.4757515993"><ele>57.82</ele><time>2026-08-20T22:00:19Z</time></trkpt><trkpt lat="59.0991594270" lon="30.4758529365"><ele>57.82</ele><time>2026-08-20T22:00:26Z</time></trkpt><trkpt lat="59.0991315152" lon="30.4759113584"><ele>57.82</ele><time>2026-08-20T22:00:32Z</time></trkpt><trkpt lat="59.0991145838" lon="30.4759510886"><ele>57.82</ele><time>2026-08-20T22:00:39Z</time></trkpt><trkpt lat="59.0991043579" lon="30.4760207422"><ele>57.82</ele><time>2026-08-20T22:00:45Z</time></trkpt><trkpt lat="59.0990840737" lon="30.4760603886"><ele>57.82</ele><time>2026-08-20T22:00:48Z</time></trkpt><trkpt lat="59.0990879294" lon="30.4761069082"><ele>57.82</ele><time>2026-08-20T22:00:51Z</time></trkpt><trkpt lat="59.0990851633" lon="30.4761579540"><ele>57.82</ele><time>2026-08-20T22:00:59Z</time></trkpt><trkpt lat="59.0990529768" lon="30.4761662520"><ele>57.82</ele><time>2026-08-20T22:01:04Z</time></trkpt><trkpt lat="59.0990498755" lon="30.4761994444"><ele>57.82</ele><time>2026-08-20T22:01:09Z</time></trkpt><trkpt lat="59.0990328602" lon="30.4762740433"><ele>57.34</ele><time>2026-08-20T22:01:15Z</time></trkpt><trkpt lat="59.0990364645" lon="30.4762856103"><ele>57.34</ele><time>2026-08-20T22:01:18Z</time></trkpt><trkpt lat="59.0990549047" lon="30.4762967583"><ele>57.34</ele><time>2026-08-20T22:01:24Z</time></trkpt><trkpt lat="59.0990553237" lon="30.4763004463"><ele>57.34</ele><time>2026-08-20T22:01:32Z</time></trkpt><trkpt lat="59.0990509652" lon="30.4763028771"><ele>57.34</ele><time>2026-08-20T22:01:42Z</time></trkpt><trkpt lat="59.0990418289" lon="30.4763127677"><ele>57.34</ele><time>2026-08-20T22:01:56Z</time></trkpt><trkpt lat="59.0990411583" lon="30.4763182160"><ele>57.34</ele><time>2026-08-20T22:02:04Z</time></trkpt><trkpt lat="59.0990410745" lon="30.4763208982"><ele>57.34</ele><time>2026-08-20T22:02:14Z</time></trkpt><trkpt lat="59.0990325250" lon="30.4763359018"><ele>57.34</ele><time>2026-08-20T22:02:22Z</time></trkpt><trkpt lat="59.0990399010" lon="30.4763338063"><ele>57.34</ele><time>2026-08-20T22:02:32Z</time></trkpt><trkpt lat="59.0990431700" lon="30.4763296153"><ele>57.34</ele><time>2026-08-20T22:02:43Z</time></trkpt><trkpt lat="59.0990621969" lon="30.4762864485"><ele>57.34</ele><time>2026-08-20T22:02:48Z</time></trkpt><trkpt lat="59.0990687348" lon="30.4762655776"><ele>57.34</ele><time>2026-08-20T22:02:55Z</time></trkpt><trkpt lat="59.0990820620" lon="30.4762663320"><ele>57.34</ele><time>2026-08-20T22:03:00Z</time></trkpt><trkpt lat="59.0990814753" lon="30.4762776475"><ele>57.34</ele><time>2026-08-20T22:03:12Z</time></trkpt><trkpt lat="59.0990782902" lon="30.4762666672"><ele>56.86</ele><time>2026-08-20T22:03:25Z</time></trkpt><trkpt lat="59.0990844928" lon="30.4762654100"><ele>56.86</ele><time>2026-08-20T22:03:40Z</time></trkpt><trkpt lat="59.0990817267" lon="30.4762841854"><ele>56.86</ele><time>2026-08-20T22:03:51Z</time></trkpt><trkpt lat="59.0990843251" lon="30.4762870353"><ele>56.86</ele><time>2026-08-20T22:04:11Z</time></trkpt><trkpt lat="59.0990816429" lon="30.4762802459"><ele>56.86</ele><time>2026-08-20T22:04:30Z</time></trkpt><trkpt lat="59.0990789607" lon="30.4762776475"><ele>56.86</ele><time>2026-08-20T22:04:48Z</time></trkpt><trkpt lat="59.0991025139" lon="30.4762791563"><ele>56.86</ele><time>2026-08-20T22:04:57Z</time></trkpt><trkpt lat="59.0991018433" lon="30.4762713611"><ele>56.37</ele><time>2026-08-20T22:05:04Z</time></trkpt><trkpt lat="59.0991469380" lon="30.4762643203"><ele>56.37</ele><time>2026-08-20T22:05:12Z</time></trkpt><trkpt lat="59.0991717484" lon="30.4762928188"><ele>55.89</ele><time>2026-08-20T22:05:28Z</time></trkpt><trkpt lat="59.0991843212" lon="30.4762590397"><ele>55.89</ele><time>2026-08-20T22:05:36Z</time></trkpt><trkpt lat="59.0991986543" lon="30.4762178008"><ele>55.89</ele><time>2026-08-20T22:05:43Z</time></trkpt><trkpt lat="59.0992471855" lon="30.4762317147"><ele>55.89</ele><time>2026-08-20T22:05:52Z</time></trkpt><trkpt lat="59.0992863290" lon="30.4762453772"><ele>55.89</ele><time>2026-08-20T22:05:58Z</time></trkpt><trkpt lat="59.0992890950" lon="30.4762302898"><ele>55.89</ele><time>2026-08-20T22:06:13Z</time></trkpt><trkpt lat="59.0993108880" lon="30.4762152862"><ele>55.89</ele><time>2026-08-20T22:06:21Z</time></trkpt><trkpt lat="59.0993577428" lon="30.4762104247"><ele>55.89</ele><time>2026-08-20T22:06:29Z</time></trkpt><trkpt lat="59.0993854031" lon="30.4762049764"><ele>55.89</ele><time>2026-08-20T22:06:36Z</time></trkpt><trkpt lat="59.0994297434" lon="30.4761938285"><ele>55.89</ele><time>2026-08-20T22:06:42Z</time></trkpt><trkpt lat="59.0994572360" lon="30.4762124363"><ele>55.89</ele><time>2026-08-20T22:06:47Z</time></trkpt><trkpt lat="59.0994919371" lon="30.4761929065"><ele>55.89</ele><time>2026-08-20T22:06:54Z</time></trkpt><trkpt lat="59.0995058510" lon="30.4761618935"><ele>55.89</ele><time>2026-08-20T22:07:09Z</time></trkpt><trkpt lat="59.0995101258" lon="30.4761571996"><ele>55.89</ele><time>2026-08-20T22:07:15Z</time></trkpt><trkpt lat="59.0995607525" lon="30.4761870392"><ele>55.89</ele><time>2026-08-20T22:07:21Z</time></trkpt><trkpt lat="59.0995886642" lon="30.4761950858"><ele>55.89</ele><time>2026-08-20T22:07:26Z</time></trkpt><trkpt lat="59.0996207669" lon="30.4761799145"><ele>55.89</ele><time>2026-08-20T22:07:30Z</time></trkpt><trkpt lat="59.0996858943" lon="30.4761540983"><ele>55.89</ele><time>2026-08-20T22:07:37Z</time></trkpt><trkpt lat="59.0997319110" lon="30.4761521704"><ele>55.89</ele><time>2026-08-20T22:07:43Z</time></trkpt><trkpt lat="59.0997599903" lon="30.4761401005"><ele>55.89</ele><time>2026-08-20T22:07:49Z</time></trkpt><trkpt lat="59.0997671988" lon="30.4761454649"><ele>55.89</ele><time>2026-08-20T22:07:50Z</time></trkpt><trkpt lat="59.0998207591" lon="30.4761633184"><ele>55.89</ele><time>2026-08-20T22:07:57Z</time></trkpt><trkpt lat="59.0998365171" lon="30.4761585407"><ele>55.89</ele><time>2026-08-20T22:08:00Z</time></trkpt><trkpt lat="59.0998609923" lon="30.4761328083"><ele>55.89</ele><time>2026-08-20T22:08:05Z</time></trkpt><trkpt lat="59.0999056678" lon="30.4761179723"><ele>55.89</ele><time>2026-08-20T22:08:12Z</time></trkpt><trkpt lat="59.0999196656" lon="30.4761033040"><ele>55.89</ele><time>2026-08-20T22:08:17Z</time></trkpt><trkpt lat="59.0999474935" lon="30.4761245102"><ele>55.89</ele><time>2026-08-20T22:08:22Z</time></trkpt><trkpt lat="59.0999801829" lon="30.4761585407"><ele>55.89</ele><time>2026-08-20T22:08:26Z</time></trkpt><trkpt lat="59.1000200808" lon="30.4761252645"><ele>55.89</ele><time>2026-08-20T22:08:31Z</time></trkpt><trkpt lat="59.1000299715" lon="30.4761236720"><ele>55.89</ele><time>2026-08-20T22:08:38Z</time></trkpt><trkpt lat="59.1000422090" lon="30.4761309642"><ele>55.89</ele><time>2026-08-20T22:08:48Z</time></trkpt><trkpt lat="59.1000675224" lon="30.4761275277"><ele>55.89</ele><time>2026-08-20T22:08:57Z</time></trkpt><trkpt lat="59.1000954341" lon="30.4761522543"><ele>55.89</ele><time>2026-08-20T22:09:05Z</time></trkpt><trkpt lat="59.1001028940" lon="30.4761574510"><ele>55.89</ele><time>2026-08-20T22:09:11Z</time></trkpt><trkpt lat="59.1001554485" lon="30.4761192296"><ele>55.89</ele><time>2026-08-20T22:09:18Z</time></trkpt><trkpt lat="59.1002292093" lon="30.4760856181"><ele>55.89</ele><time>2026-08-20T22:09:26Z</time></trkpt><trkpt lat="59.1002624016" lon="30.4760669265"><ele>55.89</ele><time>2026-08-20T22:09:32Z</time></trkpt><trkpt lat="59.1003046464" lon="30.4760656692"><ele>55.89</ele><time>2026-08-20T22:09:37Z</time></trkpt><trkpt lat="59.1003491543" lon="30.4760583770"><ele>55.89</ele><time>2026-08-20T22:09:44Z</time></trkpt><trkpt lat="59.1003852803" lon="30.4760704469"><ele>55.89</ele><time>2026-08-20T22:09:51Z</time></trkpt><trkpt lat="59.1004195623" lon="30.4760608077"><ele>55.89</ele><time>2026-08-20T22:09:56Z</time></trkpt><trkpt lat="59.1004754696" lon="30.4760638252"><ele>55.89</ele><time>2026-08-20T22:10:03Z</time></trkpt><trkpt lat="59.1005079914" lon="30.4760488216"><ele>55.89</ele><time>2026-08-20T22:10:09Z</time></trkpt><trkpt lat="59.1005084105" lon="30.4760553595"><ele>55.89</ele><time>2026-08-20T22:10:20Z</time></trkpt><trkpt lat="59.1005470511" lon="30.4760195687"><ele>55.89</ele><time>2026-08-20T22:10:28Z</time></trkpt><trkpt lat="59.1005831771" lon="30.4760300461"><ele>55.89</ele><time>2026-08-20T22:10:33Z</time></trkpt><trkpt lat="59.1006369889" lon="30.4760267772"><ele>55.89</ele><time>2026-08-20T22:10:39Z</time></trkpt><trkpt lat="59.1006600391" lon="30.4760100972"><ele>55.89</ele><time>2026-08-20T22:10:44Z</time></trkpt><trkpt lat="59.1007301956" lon="30.4759945069"><ele>55.89</ele><time>2026-08-20T22:10:51Z</time></trkpt><trkpt lat="59.1007785592" lon="30.4759873822"><ele>55.89</ele><time>2026-08-20T22:10:57Z</time></trkpt><trkpt lat="59.1008188762" lon="30.4760021344"><ele>55.89</ele><time>2026-08-20T22:11:01Z</time></trkpt><trkpt lat="59.1008765437" lon="30.4759901483"><ele>55.89</ele><time>2026-08-20T22:11:07Z</time></trkpt><trkpt lat="59.1009135079" lon="30.4759772401"><ele>55.89</ele><time>2026-08-20T22:11:13Z</time></trkpt><trkpt lat="59.1009435989" lon="30.4759464785"><ele>55.89</ele><time>2026-08-20T22:11:19Z</time></trkpt><trkpt lat="59.1009703372" lon="30.4759508371"><ele>55.89</ele><time>2026-08-20T22:11:25Z</time></trkpt><trkpt lat="59.1009750310" lon="30.4759484902"><ele>55.89</ele><time>2026-08-20T22:11:27Z</time></trkpt><trkpt lat="59.1010377277" lon="30.4758940917"><ele>55.89</ele><time>2026-08-20T22:11:34Z</time></trkpt><trkpt lat="59.1011015140" lon="30.4758758191"><ele>55.89</ele><time>2026-08-20T22:11:40Z</time></trkpt><trkpt lat="59.1011217143" lon="30.4758772440"><ele>55.89</ele><time>2026-08-20T22:11:43Z</time></trkpt><trkpt lat="59.1011751909" lon="30.4758753162"><ele>55.89</ele><time>2026-08-20T22:11:50Z</time></trkpt><trkpt lat="59.1012279131" lon="30.4758702032"><ele>55.89</ele><time>2026-08-20T22:11:57Z</time></trkpt><trkpt lat="59.1012385581" lon="30.4758807644"><ele>55.89</ele><time>2026-08-20T22:11:59Z</time></trkpt><trkpt lat="59.1012652125" lon="30.4759015515"><ele>55.89</ele><time>2026-08-20T22:12:04Z</time></trkpt><trkpt lat="59.1012981534" lon="30.4758619051"><ele>55.89</ele><time>2026-08-20T22:12:10Z</time></trkpt><trkpt lat="59.1013442539" lon="30.4758308921"><ele>55.89</ele><time>2026-08-20T22:12:15Z</time></trkpt><trkpt lat="59.1013989877" lon="30.4758210015"><ele>55.89</ele><time>2026-08-20T22:12:21Z</time></trkpt><trkpt lat="59.1014582478" lon="30.4757893179"><ele>55.89</ele><time>2026-08-20T22:12:28Z</time></trkpt><trkpt lat="59.1015048511" lon="30.4758004658"><ele>55.89</ele><time>2026-08-20T22:12:33Z</time></trkpt><trkpt lat="59.1015413962" lon="30.4757616576"><ele>55.89</ele><time>2026-08-20T22:12:39Z</time></trkpt><trkpt lat="59.1016095411" lon="30.4757470731"><ele>55.89</ele><time>2026-08-20T22:12:46Z</time></trkpt><trkpt lat="59.1016227007" lon="30.4757593945"><ele>55.89</ele><time>2026-08-20T22:12:51Z</time></trkpt><trkpt lat="59.1017028317" lon="30.4757469893"><ele>55.41</ele><time>2026-08-20T22:12:58Z</time></trkpt><trkpt lat="59.1017414723" lon="30.4757525213"><ele>55.41</ele><time>2026-08-20T22:13:07Z</time></trkpt><trkpt lat="59.1017926019" lon="30.4757415410"><ele>55.41</ele><time>2026-08-20T22:13:12Z</time></trkpt><trkpt lat="59.1018156521" lon="30.4757109471"><ele>55.41</ele><time>2026-08-20T22:13:18Z</time></trkpt><trkpt lat="59.1018753313" lon="30.4757199157"><ele>55.41</ele><time>2026-08-20T22:13:24Z</time></trkpt><trkpt lat="59.1019343399" lon="30.4757163115"><ele>55.41</ele><time>2026-08-20T22:13:31Z</time></trkpt><trkpt lat="59.1019851342" lon="30.4756973684"><ele>55.41</ele><time>2026-08-20T22:13:37Z</time></trkpt><trkpt lat="59.1019860562" lon="30.4756981228"><ele>55.41</ele><time>2026-08-20T22:13:38Z</time></trkpt><trkpt lat="59.1020322405" lon="30.4756869748"><ele>55.41</ele><time>2026-08-20T22:13:43Z</time></trkpt><trkpt lat="59.1020899080" lon="30.4756748211"><ele>55.41</ele><time>2026-08-20T22:13:50Z</time></trkpt><trkpt lat="59.1021249443" lon="30.4756650142"><ele>55.41</ele><time>2026-08-20T22:13:56Z</time></trkpt><trkpt lat="59.1021704581" lon="30.4756679479"><ele>55.41</ele><time>2026-08-20T22:14:02Z</time></trkpt><trkpt lat="59.1022116970" lon="30.4756323248"><ele>55.41</ele><time>2026-08-20T22:14:09Z</time></trkpt><trkpt lat="59.1022163909" lon="30.4755563848"><ele>55.41</ele><time>2026-08-20T22:14:15Z</time></trkpt><trkpt lat="59.1021992918" lon="30.4754328355"><ele>55.41</ele><time>2026-08-20T22:14:21Z</time></trkpt><trkpt lat="59.1022136249" lon="30.4752798658"><ele>54.93</ele><time>2026-08-20T22:14:29Z</time></trkpt><trkpt lat="59.1022276226" lon="30.4752329271"><ele>54.93</ele><time>2026-08-20T22:14:32Z</time></trkpt><trkpt lat="59.1022332385" lon="30.4750853218"><ele>54.93</ele><time>2026-08-20T22:14:40Z</time></trkpt><trkpt lat="59.1022139601" lon="30.4749822244"><ele>54.93</ele><time>2026-08-20T22:14:47Z</time></trkpt><trkpt lat="59.1022292990" lon="30.4748968128"><ele>54.93</ele><time>2026-08-20T22:14:54Z</time></trkpt><trkpt lat="59.1022228450" lon="30.4748623632"><ele>54.93</ele><time>2026-08-20T22:15:00Z</time></trkpt><trkpt lat="59.1022222582" lon="30.4748468567"><ele>54.93</ele><time>2026-08-20T22:15:09Z</time></trkpt><trkpt lat="59.1022286285" lon="30.4748424143"><ele>54.93</ele><time>2026-08-20T22:15:29Z</time></trkpt><trkpt lat="59.1022450570" lon="30.4748527240"><ele>54.93</ele><time>2026-08-20T22:15:49Z</time></trkpt><trkpt lat="59.1022400279" lon="30.4748166818"><ele>54.93</ele><time>2026-08-20T22:15:58Z</time></trkpt><trkpt lat="59.1022363398" lon="30.4747547396"><ele>54.93</ele><time>2026-08-20T22:16:07Z</time></trkpt><trkpt lat="59.1022420395" lon="30.4747101478"><ele>54.93</ele><time>2026-08-20T22:16:13Z</time></trkpt><trkpt lat="59.1022532713" lon="30.4746351298"><ele>54.93</ele><time>2026-08-20T22:16:21Z</time></trkpt><trkpt lat="59.1022506729" lon="30.4746176116"><ele>54.93</ele><time>2026-08-20T22:16:28Z</time></trkpt><trkpt lat="59.1022690292" lon="30.4746022727"><ele>54.93</ele><time>2026-08-20T22:16:39Z</time></trkpt><trkpt lat="59.1022683587" lon="30.4745862633"><ele>54.93</ele><time>2026-08-20T22:16:49Z</time></trkpt><trkpt lat="59.1022374295" lon="30.4745155200"><ele>54.93</ele><time>2026-08-20T22:16:57Z</time></trkpt><trkpt lat="59.1022339929" lon="30.4744205531"><ele>54.93</ele><time>2026-08-20T22:17:05Z</time></trkpt><trkpt lat="59.1022230964" lon="30.4744015262"><ele>54.45</ele><time>2026-08-20T22:17:13Z</time></trkpt><trkpt lat="59.1022030637" lon="30.4744059686"><ele>54.45</ele><time>2026-08-20T22:17:18Z</time></trkpt><trkpt lat="59.1021851264" lon="30.4744280130"><ele>54.45</ele><time>2026-08-20T22:17:24Z</time></trkpt><trkpt lat="59.1021843720" lon="30.4744033702"><ele>54.45</ele><time>2026-08-20T22:17:37Z</time></trkpt><trkpt lat="59.1021684464" lon="30.4743872769"><ele>54.45</ele><time>2026-08-20T22:17:54Z</time></trkpt><trkpt lat="59.1021748167" lon="30.4743661545"><ele>54.45</ele><time>2026-08-20T22:18:03Z</time></trkpt><trkpt lat="59.1021880601" lon="30.4743378237"><ele>54.45</ele><time>2026-08-20T22:18:08Z</time></trkpt><trkpt lat="59.1021817736" lon="30.4742670804"><ele>53.97</ele><time>2026-08-20T22:18:15Z</time></trkpt><trkpt lat="59.1021753196" lon="30.4741487280"><ele>53.97</ele><time>2026-08-20T22:18:22Z</time></trkpt><trkpt lat="59.1021710448" lon="30.4740732070"><ele>53.97</ele><time>2026-08-20T22:18:27Z</time></trkpt><trkpt lat="59.1021210048" lon="30.4739706125"><ele>53.97</ele><time>2026-08-20T22:18:34Z</time></trkpt><trkpt lat="59.1021210887" lon="30.4739595484"><ele>53.97</ele><time>2026-08-20T22:18:36Z</time></trkpt><trkpt lat="59.1020601522" lon="30.4738359153"><ele>53.97</ele><time>2026-08-20T22:18:44Z</time></trkpt><trkpt lat="59.1020535305" lon="30.4737893119"><ele>53.97</ele><time>2026-08-20T22:18:49Z</time></trkpt><trkpt lat="59.1020649299" lon="30.4737628251"><ele>53.97</ele><time>2026-08-20T22:18:55Z</time></trkpt><trkpt lat="59.1020678636" lon="30.4737317283"><ele>53.97</ele><time>2026-08-20T22:19:01Z</time></trkpt><trkpt lat="59.1020581406" lon="30.4736396950"><ele>53.97</ele><time>2026-08-20T22:19:08Z</time></trkpt><trkpt lat="59.1020521056" lon="30.4735979531"><ele>53.49</ele><time>2026-08-20T22:19:11Z</time></trkpt><trkpt lat="59.1020407900" lon="30.4735060874"><ele>53.49</ele><time>2026-08-20T22:19:17Z</time></trkpt><trkpt lat="59.1020428017" lon="30.4734864738"><ele>53.49</ele><time>2026-08-20T22:19:19Z</time></trkpt><trkpt lat="59.1020092741" lon="30.4733652715"><ele>53.49</ele><time>2026-08-20T22:19:25Z</time></trkpt><trkpt lat="59.1019993834" lon="30.4733425565"><ele>53.49</ele><time>2026-08-20T22:19:29Z</time></trkpt><trkpt lat="59.1019709688" lon="30.4732770938"><ele>53.49</ele><time>2026-08-20T22:19:35Z</time></trkpt><trkpt lat="59.1019691247" lon="30.4732252099"><ele>53.49</ele><time>2026-08-20T22:19:39Z</time></trkpt><trkpt lat="59.1019469965" lon="30.4731087852"><ele>53.49</ele><time>2026-08-20T22:19:45Z</time></trkpt><trkpt lat="59.1019426379" lon="30.4730434902"><ele>53.49</ele><time>2026-08-20T22:19:48Z</time></trkpt><trkpt lat="59.1019606590" lon="30.4729455058"><ele>53.49</ele><time>2026-08-20T22:19:52Z</time></trkpt><trkpt lat="59.1019785963" lon="30.4728622735"><ele>53.49</ele><time>2026-08-20T22:19:58Z</time></trkpt><trkpt lat="59.1019655205" lon="30.4728132393"><ele>53.49</ele><time>2026-08-20T22:20:04Z</time></trkpt><trkpt lat="59.1019603238" lon="30.4727015086"><ele>53.49</ele><time>2026-08-20T22:20:10Z</time></trkpt><trkpt lat="59.1019444820" lon="30.4725928791"><ele>53.49</ele><time>2026-08-20T22:20:18Z</time></trkpt><trkpt lat="59.1019511037" lon="30.4725589324"><ele>53.97</ele><time>2026-08-20T22:20:24Z</time></trkpt><trkpt lat="59.1019391175" lon="30.4724927153"><ele>53.97</ele><time>2026-08-20T22:20:29Z</time></trkpt><trkpt lat="59.1018932685" lon="30.4723867681"><ele>53.97</ele><time>2026-08-20T22:20:34Z</time></trkpt><trkpt lat="59.1018762533" lon="30.4723266698"><ele>53.97</ele><time>2026-08-20T22:20:38Z</time></trkpt><trkpt lat="59.1018790193" lon="30.4722359776"><ele>53.49</ele><time>2026-08-20T22:20:44Z</time></trkpt><trkpt lat="59.1018735711" lon="30.4721822497"><ele>53.49</ele><time>2026-08-20T22:20:46Z</time></trkpt><trkpt lat="59.1018786840" lon="30.4721511528"><ele>53.49</ele><time>2026-08-20T22:20:49Z</time></trkpt><trkpt lat="59.1018987168" lon="30.4721345566"><ele>53.49</ele><time>2026-08-20T22:20:52Z</time></trkpt><trkpt lat="59.1019001417" lon="30.4720105045"><ele>53.49</ele><time>2026-08-20T22:20:58Z</time></trkpt><trkpt lat="59.1018855572" lon="30.4720253404"><ele>53.49</ele><time>2026-08-20T22:21:05Z</time></trkpt><trkpt lat="59.1018682066" lon="30.4720058944"><ele>53.49</ele><time>2026-08-20T22:21:08Z</time></trkpt><trkpt lat="59.1018351819" lon="30.4719677567"><ele>53.49</ele><time>2026-08-20T22:21:12Z</time></trkpt><trkpt lat="59.1017465852" lon="30.4718924034"><ele>53.49</ele><time>2026-08-20T22:21:19Z</time></trkpt><trkpt lat="59.1017195117" lon="30.4718730412"><ele>53.49</ele><time>2026-08-20T22:21:27Z</time></trkpt><trkpt lat="59.1017628461" lon="30.4719315469"><ele>53.49</ele><time>2026-08-20T22:21:34Z</time></trkpt><trkpt lat="59.1017881595" lon="30.4719286133"><ele>53.49</ele><time>2026-08-20T22:21:40Z</time></trkpt><trkpt lat="59.1018749122" lon="30.4719482269"><ele>53.49</ele><time>2026-08-20T22:21:48Z</time></trkpt><trkpt lat="59.1019071825" lon="30.4719489813"><ele>53.97</ele><time>2026-08-20T22:21:55Z</time></trkpt><trkpt lat="59.1019557137" lon="30.4718767293"><ele>53.97</ele><time>2026-08-20T22:22:02Z</time></trkpt><trkpt lat="59.1019801050" lon="30.4718448780"><ele>53.97</ele><time>2026-08-20T22:22:07Z</time></trkpt><trkpt lat="59.1019785125" lon="30.4718363285"><ele>53.97</ele><time>2026-08-20T22:22:12Z</time></trkpt><trkpt lat="59.1019459069" lon="30.4718173016"><ele>53.97</ele><time>2026-08-20T22:22:17Z</time></trkpt><trkpt lat="59.1019236948" lon="30.4717909824"><ele>53.97</ele><time>2026-08-20T22:22:22Z</time></trkpt><trkpt lat="59.1019254550" lon="30.4717446305"><ele>53.97</ele><time>2026-08-20T22:22:26Z</time></trkpt><trkpt lat="59.1018873174" lon="30.4717202391"><ele>53.97</ele><time>2026-08-20T22:22:31Z</time></trkpt><trkpt lat="59.1018595733" lon="30.4717416130"><ele>53.97</ele><time>2026-08-20T22:22:35Z</time></trkpt><trkpt lat="59.1018199269" lon="30.4717218317"><ele>53.97</ele><time>2026-08-20T22:22:41Z</time></trkpt><trkpt lat="59.1017940268" lon="30.4716726299"><ele>53.97</ele><time>2026-08-20T22:22:48Z</time></trkpt><trkpt lat="59.1017664503" lon="30.4715881404"><ele>53.97</ele><time>2026-08-20T22:22:54Z</time></trkpt><trkpt lat="59.1017343476" lon="30.4715209175"><ele>53.97</ele><time>2026-08-20T22:23:00Z</time></trkpt><trkpt lat="59.1017290670" lon="30.4714982864"><ele>53.97</ele><time>2026-08-20T22:23:01Z</time></trkpt><trkpt lat="59.1017050948" lon="30.4713983741"><ele>53.97</ele><time>2026-08-20T22:23:07Z</time></trkpt><trkpt lat="59.1016803682" lon="30.4713241104"><ele>53.97</ele><time>2026-08-20T22:23:10Z</time></trkpt><trkpt lat="59.1016133130" lon="30.4711982980"><ele>53.97</ele><time>2026-08-20T22:23:18Z</time></trkpt><trkpt lat="59.1016328428" lon="30.4711861443"><ele>53.97</ele><time>2026-08-20T22:23:21Z</time></trkpt><trkpt lat="59.1016136482" lon="30.4711236991"><ele>53.49</ele><time>2026-08-20T22:23:25Z</time></trkpt><trkpt lat="59.1015985608" lon="30.4711061809"><ele>53.49</ele><time>2026-08-20T22:23:28Z</time></trkpt><trkpt lat="59.1015911847" lon="30.4710553028"><ele>53.49</ele><time>2026-08-20T22:23:33Z</time></trkpt><trkpt lat="59.1015524603" lon="30.4709546361"><ele>53.49</ele><time>2026-08-20T22:23:40Z</time></trkpt><trkpt lat="59.1015388817" lon="30.4708972201"><ele>53.49</ele><time>2026-08-20T22:23:45Z</time></trkpt><trkpt lat="59.1015281528" lon="30.4708598368"><ele>53.49</ele><time>2026-08-20T22:23:52Z</time></trkpt><trkpt lat="59.1015227046" lon="30.4708048515"><ele>53.49</ele><time>2026-08-20T22:23:59Z</time></trkpt><trkpt lat="59.1015190165" lon="30.4707727488"><ele>53.49</ele><time>2026-08-20T22:24:05Z</time></trkpt><trkpt lat="59.1014967207" lon="30.4707277380"><ele>53.49</ele><time>2026-08-20T22:24:11Z</time></trkpt><trkpt lat="59.1014776938" lon="30.4706901032"><ele>53.49</ele><time>2026-08-20T22:24:14Z</time></trkpt><trkpt lat="59.1014610138" lon="30.4706590064"><ele>53.49</ele><time>2026-08-20T22:24:20Z</time></trkpt><trkpt lat="59.1014622711" lon="30.4706497863"><ele>53.49</ele><time>2026-08-20T22:24:31Z</time></trkpt><trkpt lat="59.1014754307" lon="30.4706427455"><ele>53.49</ele><time>2026-08-20T22:24:49Z</time></trkpt><trkpt lat="59.1014729999" lon="30.4706153367"><ele>53.49</ele><time>2026-08-20T22:24:56Z</time></trkpt><trkpt lat="59.1014536377" lon="30.4705579206"><ele>53.01</ele><time>2026-08-20T22:25:03Z</time></trkpt><trkpt lat="59.1013844032" lon="30.4704917036"><ele>53.01</ele><time>2026-08-20T22:25:10Z</time></trkpt><trkpt lat="59.1013642028" lon="30.4704587627"><ele>53.01</ele><time>2026-08-20T22:25:18Z</time></trkpt><trkpt lat="59.1013340279" lon="30.4703862593"><ele>53.01</ele><time>2026-08-20T22:25:24Z</time></trkpt><trkpt lat="59.1013360396" lon="30.4703016859"><ele>53.01</ele><time>2026-08-20T22:25:31Z</time></trkpt><trkpt lat="59.1013327707" lon="30.4702890292"><ele>53.01</ele><time>2026-08-20T22:25:33Z</time></trkpt><trkpt lat="59.1013178509" lon="30.4702123348"><ele>53.01</ele><time>2026-08-20T22:25:40Z</time></trkpt><trkpt lat="59.1013092175" lon="30.4701649770"><ele>53.01</ele><time>2026-08-20T22:25:46Z</time></trkpt><trkpt lat="59.1012951359" lon="30.4701558407"><ele>53.01</ele><time>2026-08-20T22:25:49Z</time></trkpt><trkpt lat="59.1012816411" lon="30.4701228160"><ele>53.01</ele><time>2026-08-20T22:25:53Z</time></trkpt><trkpt lat="59.1012467723" lon="30.4700717703"><ele>53.49</ele><time>2026-08-20T22:25:58Z</time></trkpt><trkpt lat="59.1011948884" lon="30.4699623864"><ele>52.53</ele><time>2026-08-20T22:26:05Z</time></trkpt><trkpt lat="59.1011796333" lon="30.4698891286"><ele>52.53</ele><time>2026-08-20T22:26:12Z</time></trkpt><trkpt lat="59.1011735145" lon="30.4698694311"><ele>52.53</ele><time>2026-08-20T22:26:17Z</time></trkpt><trkpt lat="59.1011561640" lon="30.4697959218"><ele>52.53</ele><time>2026-08-20T22:26:23Z</time></trkpt><trkpt lat="59.1011337005" lon="30.4697649088"><ele>52.53</ele><time>2026-08-20T22:26:29Z</time></trkpt><trkpt lat="59.1010970715" lon="30.4697312973"><ele>52.53</ele><time>2026-08-20T22:26:36Z</time></trkpt><trkpt lat="59.1010953113" lon="30.4696929082"><ele>52.53</ele><time>2026-08-20T22:26:42Z</time></trkpt><trkpt lat="59.1010613646" lon="30.4696310498"><ele>52.53</ele><time>2026-08-20T22:26:46Z</time></trkpt><trkpt lat="59.1010573413" lon="30.4696186446"><ele>52.53</ele><time>2026-08-20T22:26:59Z</time></trkpt><trkpt lat="59.1010456905" lon="30.4695925768"><ele>52.53</ele><time>2026-08-20T22:27:03Z</time></trkpt><trkpt lat="59.1010304354" lon="30.4695449676"><ele>52.53</ele><time>2026-08-20T22:27:08Z</time></trkpt><trkpt lat="59.1010149289" lon="30.4695142899"><ele>52.53</ele><time>2026-08-20T22:27:13Z</time></trkpt><trkpt lat="59.1009994224" lon="30.4694335721"><ele>52.53</ele><time>2026-08-20T22:27:18Z</time></trkpt><trkpt lat="59.1009862628" lon="30.4693913274"><ele>52.53</ele><time>2026-08-20T22:27:23Z</time></trkpt><trkpt lat="59.1009694152" lon="30.4693179019"><ele>52.53</ele><time>2026-08-20T22:27:28Z</time></trkpt><trkpt lat="59.1009683255" lon="30.4692900740"><ele>52.53</ele><time>2026-08-20T22:27:30Z</time></trkpt><trkpt lat="59.1009199619" lon="30.4691683687"><ele>52.53</ele><time>2026-08-20T22:27:37Z</time></trkpt><trkpt lat="59.1009009350" lon="30.4690927640"><ele>52.53</ele><time>2026-08-20T22:27:43Z</time></trkpt><trkpt lat="59.1008304432" lon="30.4689696338"><ele>52.53</ele><time>2026-08-20T22:27:50Z</time></trkpt><trkpt lat="59.1007910483" lon="30.4688952863"><ele>52.53</ele><time>2026-08-20T22:27:57Z</time></trkpt><trkpt lat="59.1008214746" lon="30.4688335117"><ele>52.53</ele><time>2026-08-20T22:28:18Z</time></trkpt><trkpt lat="59.1008131765" lon="30.4688317515"><ele>52.05</ele><time>2026-08-20T22:28:39Z</time></trkpt><trkpt lat="59.1008072253" lon="30.4687525425"><ele>52.05</ele><time>2026-08-20T22:28:46Z</time></trkpt><trkpt lat="59.1008021962" lon="30.4686721601"><ele>52.05</ele><time>2026-08-20T22:28:52Z</time></trkpt><trkpt lat="59.1007794812" lon="30.4686648678"><ele>52.05</ele><time>2026-08-20T22:29:04Z</time></trkpt><trkpt lat="59.1007794812" lon="30.4686732497"><ele>52.05</ele><time>2026-08-20T22:29:22Z</time></trkpt><trkpt lat="59.1007467080" lon="30.4686384648"><ele>52.05</ele><time>2026-08-20T22:29:44Z</time></trkpt><trkpt lat="59.1007539164" lon="30.4686230421"><ele>52.05</ele><time>2026-08-20T22:29:50Z</time></trkpt><trkpt lat="59.1007732786" lon="30.4685656261"><ele>52.05</ele><time>2026-08-20T22:30:01Z</time></trkpt><trkpt lat="59.1007831693" lon="30.4685268179"><ele>52.05</ele><time>2026-08-20T22:30:11Z</time></trkpt><trkpt lat="59.1007871926" lon="30.4685200285"><ele>51.57</ele><time>2026-08-20T22:30:20Z</time></trkpt><trkpt lat="59.1007773858" lon="30.4685030971"><ele>51.57</ele><time>2026-08-20T22:30:40Z</time></trkpt><trkpt lat="59.1008042917" lon="30.4684178531"><ele>51.57</ele><time>2026-08-20T22:30:55Z</time></trkpt><trkpt lat="59.1007892881" lon="30.4683250654"><ele>51.57</ele><time>2026-08-20T22:31:01Z</time></trkpt><trkpt lat="59.1007980891" lon="30.4682606924"><ele>51.57</ele><time>2026-08-20T22:31:09Z</time></trkpt><trkpt lat="59.1007931437" lon="30.4682223033"><ele>51.57</ele><time>2026-08-20T22:31:15Z</time></trkpt><trkpt lat="59.1007971670" lon="30.4681815673"><ele>51.57</ele><time>2026-08-20T22:31:22Z</time></trkpt><trkpt lat="59.1008017771" lon="30.4681479558"><ele>51.57</ele><time>2026-08-20T22:31:30Z</time></trkpt><trkpt lat="59.1008088179" lon="30.4680347163"><ele>51.57</ele><time>2026-08-20T22:31:38Z</time></trkpt><trkpt lat="59.1008133441" lon="30.4678848479"><ele>51.57</ele><time>2026-08-20T22:31:46Z</time></trkpt><trkpt lat="59.1008193791" lon="30.4678283539"><ele>51.57</ele><time>2026-08-20T22:31:52Z</time></trkpt><trkpt lat="59.1008340474" lon="30.4677769728"><ele>51.57</ele><time>2026-08-20T22:32:09Z</time></trkpt><trkpt lat="59.1008058842" lon="30.4677685071"><ele>51.57</ele><time>2026-08-20T22:32:30Z</time></trkpt><trkpt lat="59.1008032020" lon="30.4677623883"><ele>51.57</ele><time>2026-08-20T22:32:47Z</time></trkpt><trkpt lat="59.1008050460" lon="30.4677602928"><ele>52.05</ele><time>2026-08-20T22:32:56Z</time></trkpt><trkpt lat="59.1008005198" lon="30.4677159525"><ele>52.05</ele><time>2026-08-20T22:33:05Z</time></trkpt><trkpt lat="59.1007819120" lon="30.4676105920"><ele>52.05</ele><time>2026-08-20T22:33:13Z</time></trkpt><trkpt lat="59.1007665731" lon="30.4675148707"><ele>52.05</ele><time>2026-08-20T22:33:19Z</time></trkpt><trkpt lat="59.1007327102" lon="30.4674066603"><ele>52.05</ele><time>2026-08-20T22:33:27Z</time></trkpt><trkpt lat="59.1007289384" lon="30.4673548602"><ele>52.05</ele><time>2026-08-20T22:33:31Z</time></trkpt><trkpt lat="59.1006734502" lon="30.4672699515"><ele>52.05</ele><time>2026-08-20T22:33:38Z</time></trkpt><trkpt lat="59.1006694268" lon="30.4671961069"><ele>52.05</ele><time>2026-08-20T22:33:43Z</time></trkpt><trkpt lat="59.1006244160" lon="30.4670988768"><ele>52.05</ele><time>2026-08-20T22:33:51Z</time></trkpt><trkpt lat="59.1005906370" lon="30.4670257028"><ele>52.05</ele><time>2026-08-20T22:33:57Z</time></trkpt><trkpt lat="59.1005909722" lon="30.4669513553"><ele>52.05</ele><time>2026-08-20T22:34:04Z</time></trkpt><trkpt lat="59.1005909722" lon="30.4668350983"><ele>52.05</ele><time>2026-08-20T22:34:11Z</time></trkpt><trkpt lat="59.1005845182" lon="30.4667601641"><ele>52.05</ele><time>2026-08-20T22:34:22Z</time></trkpt><trkpt lat="59.1005678382" lon="30.4667093698"><ele>52.05</ele><time>2026-08-20T22:34:28Z</time></trkpt><trkpt lat="59.1005421896" lon="30.4666089546"><ele>52.05</ele><time>2026-08-20T22:34:35Z</time></trkpt><trkpt lat="59.1005293652" lon="30.4665079527"><ele>52.05</ele><time>2026-08-20T22:34:42Z</time></trkpt><trkpt lat="59.1004984360" lon="30.4664083757"><ele>52.05</ele><time>2026-08-20T22:34:49Z</time></trkpt><trkpt lat="59.1004796606" lon="30.4663361236"><ele>52.53</ele><time>2026-08-20T22:34:56Z</time></trkpt><trkpt lat="59.1004270222" lon="30.4663218744"><ele>52.53</ele><time>2026-08-20T22:35:05Z</time></trkpt><trkpt lat="59.1004135273" lon="30.4663227126"><ele>52.53</ele><time>2026-08-20T22:35:10Z</time></trkpt><trkpt lat="59.1004218254" lon="30.4662584234"><ele>52.53</ele><time>2026-08-20T22:35:18Z</time></trkpt><trkpt lat="59.1003978532" lon="30.4661919549"><ele>52.53</ele><time>2026-08-20T22:35:28Z</time></trkpt><trkpt lat="59.1004035529" lon="30.4661409091"><ele>52.53</ele><time>2026-08-20T22:35:39Z</time></trkpt><trkpt lat="59.1003879625" lon="30.4660497140"><ele>52.53</ele><time>2026-08-20T22:35:47Z</time></trkpt><trkpt lat="59.1003303789" lon="30.4659232311"><ele>53.01</ele><time>2026-08-20T22:35:56Z</time></trkpt><trkpt lat="59.1002877988" lon="30.4658099078"><ele>52.53</ele><time>2026-08-20T22:36:04Z</time></trkpt><trkpt lat="59.1002919897" lon="30.4657521565"><ele>52.53</ele><time>2026-08-20T22:36:15Z</time></trkpt><trkpt lat="59.1002691910" lon="30.4656713549"><ele>52.53</ele><time>2026-08-20T22:36:24Z</time></trkpt><trkpt lat="59.1002630722" lon="30.4655762203"><ele>52.53</ele><time>2026-08-20T22:36:32Z</time></trkpt><trkpt lat="59.1002764832" lon="30.4654503241"><ele>52.53</ele><time>2026-08-20T22:36:41Z</time></trkpt><trkpt lat="59.1002841108" lon="30.4653181415"><ele>52.53</ele><time>2026-08-20T22:36:50Z</time></trkpt><trkpt lat="59.1002818476" lon="30.4652802553"><ele>52.53</ele><time>2026-08-20T22:37:00Z</time></trkpt><trkpt lat="59.1002825182" lon="30.4652327299"><ele>52.53</ele><time>2026-08-20T22:37:09Z</time></trkpt><trkpt lat="59.1002816800" lon="30.4651964363"><ele>52.53</ele><time>2026-08-20T22:37:17Z</time></trkpt><trkpt lat="59.1002379265" lon="30.4648781754"><ele>52.53</ele><time>2026-08-20T22:37:27Z</time></trkpt><trkpt lat="59.1002240125" lon="30.4648487549"><ele>52.53</ele><time>2026-08-20T22:37:39Z</time></trkpt><trkpt lat="59.1002067458" lon="30.4648060072"><ele>52.53</ele><time>2026-08-20T22:37:54Z</time></trkpt><trkpt lat="59.1001840308" lon="30.4647226073"><ele>53.01</ele><time>2026-08-20T22:38:03Z</time></trkpt><trkpt lat="59.1001344938" lon="30.4645136464"><ele>52.53</ele><time>2026-08-20T22:38:12Z</time></trkpt><trkpt lat="59.1000992898" lon="30.4644288216"><ele>52.53</ele><time>2026-08-20T22:38:22Z</time></trkpt><trkpt lat="59.1000898182" lon="30.4644123092"><ele>52.53</ele><time>2026-08-20T22:38:32Z</time></trkpt><trkpt lat="59.1000800952" lon="30.4643639456"><ele>52.53</ele><time>2026-08-20T22:38:38Z</time></trkpt><trkpt lat="59.1000737250" lon="30.4643207788"><ele>52.53</ele><time>2026-08-20T22:38:43Z</time></trkpt><trkpt lat="59.1000510100" lon="30.4643078707"><ele>52.53</ele><time>2026-08-20T22:38:55Z</time></trkpt><trkpt lat="59.1000455618" lon="30.4642963037"><ele>52.53</ele><time>2026-08-20T22:39:05Z</time></trkpt><trkpt lat="59.1000291333" lon="30.4642704036"><ele>52.53</ele><time>2026-08-20T22:39:13Z</time></trkpt><trkpt lat="59.1000372637" lon="30.4642137419"><ele>53.01</ele><time>2026-08-20T22:39:21Z</time></trkpt><trkpt lat="59.1000248585" lon="30.4641663004"><ele>53.01</ele><time>2026-08-20T22:39:30Z</time></trkpt><trkpt lat="59.1000080109" lon="30.4640845768"><ele>53.01</ele><time>2026-08-20T22:39:37Z</time></trkpt><trkpt lat="59.0999711305" lon="30.4640106484"><ele>53.01</ele><time>2026-08-20T22:39:47Z</time></trkpt><trkpt lat="59.0999184921" lon="30.4639124963"><ele>53.01</ele><time>2026-08-20T22:39:58Z</time></trkpt><trkpt lat="59.0999143012" lon="30.4638699163"><ele>53.01</ele><time>2026-08-20T22:40:06Z</time></trkpt><trkpt lat="59.0999053326" lon="30.4637834150"><ele>53.01</ele><time>2026-08-20T22:40:13Z</time></trkpt><trkpt lat="59.0999184921" lon="30.4636493046"><ele>53.01</ele><time>2026-08-20T22:40:20Z</time></trkpt><trkpt lat="59.0999516007" lon="30.4635586962"><ele>53.01</ele><time>2026-08-20T22:40:27Z</time></trkpt><trkpt lat="59.0999715496" lon="30.4635258391"><ele>53.01</ele><time>2026-08-20T22:40:43Z</time></trkpt><trkpt lat="59.0999990422" lon="30.4634131026"><ele>53.01</ele><time>2026-08-20T22:40:51Z</time></trkpt><trkpt lat="59.1000130400" lon="30.4632853623"><ele>53.01</ele><time>2026-08-20T22:41:00Z</time></trkpt><trkpt lat="59.1000126209" lon="30.4632147029"><ele>53.01</ele><time>2026-08-20T22:41:08Z</time></trkpt><trkpt lat="59.1000313126" lon="30.4631119408"><ele>53.01</ele><time>2026-08-20T22:41:14Z</time></trkpt><trkpt lat="59.1000110283" lon="30.4631608073"><ele>53.01</ele><time>2026-08-20T22:41:20Z</time></trkpt><trkpt lat="59.1000088491" lon="30.4631532636"><ele>53.49</ele><time>2026-08-20T22:41:23Z</time></trkpt><trkpt lat="59.1000296362" lon="30.4630385991"><ele>53.49</ele><time>2026-08-20T22:41:29Z</time></trkpt><trkpt lat="59.1000218410" lon="30.4629107751"><ele>53.49</ele><time>2026-08-20T22:41:39Z</time></trkpt><trkpt lat="59.1000173148" lon="30.4628423788"><ele>53.49</ele><time>2026-08-20T22:41:48Z</time></trkpt><trkpt lat="59.1000307258" lon="30.4625837971"><ele>52.53</ele><time>2026-08-20T22:41:58Z</time></trkpt><trkpt lat="59.1000212543" lon="30.4624784365"><ele>52.53</ele><time>2026-08-20T22:42:04Z</time></trkpt><trkpt lat="59.1000127047" lon="30.4624308273"><ele>52.53</ele><time>2026-08-20T22:42:07Z</time></trkpt><trkpt lat="59.0999894030" lon="30.4623495229"><ele>52.53</ele><time>2026-08-20T22:42:13Z</time></trkpt><trkpt lat="59.0999504272" lon="30.4621921945"><ele>52.05</ele><time>2026-08-20T22:42:20Z</time></trkpt><trkpt lat="59.0999290533" lon="30.4621186014"><ele>51.57</ele><time>2026-08-20T22:42:26Z</time></trkpt><trkpt lat="59.0999325737" lon="30.4620816372"><ele>51.57</ele><time>2026-08-20T22:42:32Z</time></trkpt><trkpt lat="59.0999221802" lon="30.4620949645"><ele>51.57</ele><time>2026-08-20T22:42:40Z</time></trkpt><trkpt lat="59.0999292210" lon="30.4620852415"><ele>51.09</ele><time>2026-08-20T22:42:51Z</time></trkpt><trkpt lat="59.0999342501" lon="30.4620310944"><ele>51.09</ele><time>2026-08-20T22:42:54Z</time></trkpt><trkpt lat="59.0999399498" lon="30.4619814735"><ele>51.09</ele><time>2026-08-20T22:43:00Z</time></trkpt><trkpt lat="59.0999568813" lon="30.4619144183"><ele>51.09</ele><time>2026-08-20T22:43:05Z</time></trkpt><trkpt lat="59.0999637544" lon="30.4618783761"><ele>51.09</ele><time>2026-08-20T22:43:09Z</time></trkpt><trkpt lat="59.0999852121" lon="30.4618087225"><ele>51.09</ele><time>2026-08-20T22:43:13Z</time></trkpt><trkpt lat="59.1000056639" lon="30.4616788868"><ele>51.09</ele><time>2026-08-20T22:43:20Z</time></trkpt><trkpt lat="59.1000180691" lon="30.4615992587"><ele>51.57</ele><time>2026-08-20T22:43:25Z</time></trkpt><trkpt lat="59.1000163089" lon="30.4615191277"><ele>51.57</ele><time>2026-08-20T22:43:29Z</time></trkpt><trkpt lat="59.1000276245" lon="30.4613868613"><ele>51.57</ele><time>2026-08-20T22:43:35Z</time></trkpt><trkpt lat="59.1000094358" lon="30.4612623900"><ele>51.09</ele><time>2026-08-20T22:43:44Z</time></trkpt><trkpt lat="59.1000059992" lon="30.4611942451"><ele>51.09</ele><time>2026-08-20T22:43:51Z</time></trkpt><trkpt lat="59.0999968629" lon="30.4611312132"><ele>51.09</ele><time>2026-08-20T22:43:56Z</time></trkpt><trkpt lat="59.0999673586" lon="30.4610174708"><ele>51.09</ele><time>2026-08-20T22:44:02Z</time></trkpt><trkpt lat="59.0999456495" lon="30.4609147925"><ele>51.09</ele><time>2026-08-20T22:44:08Z</time></trkpt><trkpt lat="59.0999350045" lon="30.4608859587"><ele>51.09</ele><time>2026-08-20T22:44:11Z</time></trkpt><trkpt lat="59.0999195818" lon="30.4608114436"><ele>51.09</ele><time>2026-08-20T22:44:17Z</time></trkpt><trkpt lat="59.0998998005" lon="30.4607453104"><ele>51.09</ele><time>2026-08-20T22:44:22Z</time></trkpt><trkpt lat="59.0999136306" lon="30.4607175663"><ele>51.09</ele><time>2026-08-20T22:44:24Z</time></trkpt><trkpt lat="59.0998764150" lon="30.4605985433"><ele>51.09</ele><time>2026-08-20T22:44:31Z</time></trkpt><trkpt lat="59.0998622496" lon="30.4605537839"><ele>51.09</ele><time>2026-08-20T22:44:34Z</time></trkpt><trkpt lat="59.0998445638" lon="30.4604669474"><ele>51.09</ele><time>2026-08-20T22:44:38Z</time></trkpt><trkpt lat="59.0997995529" lon="30.4603592400"><ele>50.61</ele><time>2026-08-20T22:44:46Z</time></trkpt><trkpt lat="59.0997940209" lon="30.4603145644"><ele>50.61</ele><time>2026-08-20T22:44:50Z</time></trkpt><trkpt lat="59.0997819509" lon="30.4602982197"><ele>50.61</ele><time>2026-08-20T22:44:53Z</time></trkpt><trkpt lat="59.0997881535" lon="30.4601940326"><ele>50.61</ele><time>2026-08-20T22:45:00Z</time></trkpt><trkpt lat="59.0997516923" lon="30.4601096269"><ele>50.61</ele><time>2026-08-20T22:45:10Z</time></trkpt><trkpt lat="59.0997543745" lon="30.4600243829"><ele>50.61</ele><time>2026-08-20T22:45:16Z</time></trkpt><trkpt lat="59.0997475013" lon="30.4599155020"><ele>50.61</ele><time>2026-08-20T22:45:24Z</time></trkpt><trkpt lat="59.0997331683" lon="30.4598170985"><ele>50.61</ele><time>2026-08-20T22:45:30Z</time></trkpt><trkpt lat="59.0997115429" lon="30.4597103130"><ele>50.61</ele><time>2026-08-20T22:45:37Z</time></trkpt><trkpt lat="59.0996614192" lon="30.4596683197"><ele>50.61</ele><time>2026-08-20T22:45:47Z</time></trkpt><trkpt lat="59.0995862335" lon="30.4596349597"><ele>50.61</ele><time>2026-08-20T22:45:58Z</time></trkpt><trkpt lat="59.0995769296" lon="30.4595599417"><ele>50.61</ele><time>2026-08-20T22:46:04Z</time></trkpt><trkpt lat="59.0995585732" lon="30.4594834149"><ele>50.61</ele><time>2026-08-20T22:46:11Z</time></trkpt><trkpt lat="59.0995035041" lon="30.4594326206"><ele>50.61</ele><time>2026-08-20T22:46:19Z</time></trkpt><trkpt lat="59.0994962119" lon="30.4594183713"><ele>50.61</ele><time>2026-08-20T22:46:20Z</time></trkpt><trkpt lat="59.0994732454" lon="30.4593441077"><ele>50.61</ele><time>2026-08-20T22:46:27Z</time></trkpt><trkpt lat="59.0994885005" lon="30.4592518229"><ele>50.61</ele><time>2026-08-20T22:46:34Z</time></trkpt><trkpt lat="59.0994876623" lon="30.4592091590"><ele>50.13</ele><time>2026-08-20T22:46:40Z</time></trkpt><trkpt lat="59.0994807892" lon="30.4591937363"><ele>50.13</ele><time>2026-08-20T22:46:50Z</time></trkpt><trkpt lat="59.0994807053" lon="30.4591960832"><ele>50.13</ele><time>2026-08-20T22:47:01Z</time></trkpt><trkpt lat="59.0994751733" lon="30.4592096619"><ele>50.13</ele><time>2026-08-20T22:47:07Z</time></trkpt><trkpt lat="59.0994928591" lon="30.4592127632"><ele>50.13</ele><time>2026-08-20T22:47:15Z</time></trkpt><trkpt lat="59.0994916018" lon="30.4592128471"><ele>50.13</ele><time>2026-08-20T22:47:28Z</time></trkpt><trkpt lat="59.0994837228" lon="30.4592172895"><ele>50.13</ele><time>2026-08-20T22:47:39Z</time></trkpt><trkpt lat="59.0994828846" lon="30.4592207260"><ele>50.13</ele><time>2026-08-20T22:47:50Z</time></trkpt><trkpt lat="59.0994694736" lon="30.4592140205"><ele>49.65</ele><time>2026-08-20T22:47:58Z</time></trkpt><trkpt lat="59.0994673781" lon="30.4592138529"><ele>49.65</ele><time>2026-08-20T22:48:14Z</time></trkpt><trkpt lat="59.0994636063" lon="30.4592178762"><ele>49.65</ele><time>2026-08-20T22:48:26Z</time></trkpt><trkpt lat="59.0994759277" lon="30.4592275992"><ele>49.65</ele><time>2026-08-20T22:48:38Z</time></trkpt><trkpt lat="59.0994788613" lon="30.4592331313"><ele>49.65</ele><time>2026-08-20T22:48:51Z</time></trkpt><trkpt lat="59.0994856507" lon="30.4592119250"><ele>49.65</ele><time>2026-08-20T22:48:59Z</time></trkpt><trkpt lat="59.0994972177" lon="30.4592056386"><ele>49.65</ele><time>2026-08-20T22:49:06Z</time></trkpt><trkpt lat="59.0995046776" lon="30.4592235759"><ele>49.65</ele><time>2026-08-20T22:49:15Z</time></trkpt><trkpt lat="59.0994935296" lon="30.4592213966"><ele>49.65</ele><time>2026-08-20T22:49:25Z</time></trkpt><trkpt lat="59.0994890034" lon="30.4592287727"><ele>49.65</ele><time>2026-08-20T22:49:36Z</time></trkpt><trkpt lat="59.0994889196" lon="30.4592427704"><ele>49.65</ele><time>2026-08-20T22:49:48Z</time></trkpt><trkpt lat="59.0994817112" lon="30.4592408426"><ele>49.65</ele><time>2026-08-20T22:50:03Z</time></trkpt><trkpt lat="59.0994822141" lon="30.4592426028"><ele>49.65</ele><time>2026-08-20T22:50:16Z</time></trkpt><trkpt lat="59.0994877461" lon="30.4592417646"><ele>49.65</ele><time>2026-08-20T22:50:28Z</time></trkpt><trkpt lat="59.0994966310" lon="30.4592383280"><ele>49.16</ele><time>2026-08-20T22:50:39Z</time></trkpt><trkpt lat="59.0994984750" lon="30.4592094105"><ele>49.16</ele><time>2026-08-20T22:50:57Z</time></trkpt><trkpt lat="59.0994957928" lon="30.4591857735"><ele>49.16</ele><time>2026-08-20T22:51:16Z</time></trkpt><trkpt lat="59.0994911827" lon="30.4591866955"><ele>49.16</ele><time>2026-08-20T22:51:27Z</time></trkpt><trkpt lat="59.0994838905" lon="30.4591905512"><ele>49.16</ele><time>2026-08-20T22:51:38Z</time></trkpt><trkpt lat="59.0994822141" lon="30.4591945745"><ele>49.16</ele><time>2026-08-20T22:51:47Z</time></trkpt><trkpt lat="59.0994772688" lon="30.4591958318"><ele>49.16</ele><time>2026-08-20T22:51:54Z</time></trkpt></trkseg></trk></gpx>